[[{"header":{"parameterUnit":"m.s-1","parameterCategory":1,"la1":31.0,"la2":29.5877,"lo1":-88.7671,"lo2":-86.6584,"dy":0.0162,"dx":0.0185,"nx":115,"ny":88,"refTime":"2024-05-08T12:00:00:Z","depth":0,"parameterNumber":2,"parameterNumberName":"U-component_of_WINDS"},"data":[0.0,0.0,0.0,0.0,0.0,0.0,0.0,0.0,0.0,0.0,0.0,0.0,0.0,0.0,0.0,0.0,0.0,0.0,0.0,0.0,0.0,0.0,0.0,0.0,0.0,0.0,0.0,0.0,0.0,0.0,0.0,0.0,0.0,0.0,0.0,0.0,0.0,0.0,0.0,0.0,0.0,0.0,0.0,0.0,0.0,0.0,0.0,0.0,0.0,0.0,0.0,0.0,0.0,0.0,0.0,0.0,0.0,0.0,0.0,0.0,0.0,0.0,0.0,0.0,0.0,0.0,0.0,0.0,0.0,0.0,0.0,0.0,0.0,0.0,0.0,0.0,0.0,0.0,0.0,0.0,0.0,0.0,0.0,0.0,0.0,0.0,0.0,0.0,0.0,0.0,0.0,0.0,0.0,0.0,0.0,0.0,0.0,0.0,0.0,0.0,0.0,0.0,0.0,0.0,0.0,0.0,0.0,0.0,0.0,0.0,0.0,0.0,0.0,0.0,0.0,0.0,0.0,0.0,0.0,0.0,0.0,0.0,0.0,0.0,0.0,0.0,0.0,0.0,0.0,0.0,0.0,0.0,0.0,0.0,0.0,0.0,0.0,0.0,0.0,0.0,0.0,0.0,0.0,0.0,0.0,0.0,0.0,0.0,0.0,0.0,0.0,0.0,0.0,0.0,0.0,0.0,0.0,0.0,0.0,0.0,0.0,0.0,0.0,0.0,0.0,0.0,0.0,0.0,0.0,0.0,0.0,0.0,0.0,0.0,0.0,0.0,0.0,0.0,0.0,0.0,0.0,0.0,0.0,0.0,0.0,0.0,0.0,0.0,0.0,0.0,0.0,0.0,0.0,0.0,0.0,0.0,0.0,0.0,0.0,0.0,0.0,0.0,0.0,0.0,0.0,0.0,0.0,0.0,0.0,0.0,0.0,0.0,0.0,0.0,0.0,0.0,0.0,0.0,0.0,0.0,0.0,0.0,0.0,0.0,0.0,0.0,0.0,0.0,0.0,0.0,0.0,0.0,0.0,0.0,0.0,0.0,0.0,0.0,0.0,0.0,0.0,0.0,0.0,0.0,0.0,0.0,0.0,0.0,0.0,0.0,0.0,0.0,0.0,0.0,0.0,0.0,0.0,0.0,0.0,0.0,0.0,0.0,0.0,0.0,0.0,0.0,0.0,0.0,0.0,0.0,0.0,0.0,0.0,0.0,0.0,0.0,0.0,0.0,0.0,0.0,0.0,0.0,0.0,0.0,0.0,0.0,0.0,0.0,0.0,0.0,0.0,0.0,0.0,0.0,0.0,0.0,0.0,0.0,0.0,0.0,0.0,0.0,0.0,0.0,0.0,0.0,0.0,0.0,0.0,0.0,0.0,0.0,0.0,0.0,0.0,0.0,0.0,0.0,0.0,0.0,0.0,0.0,0.0,0.0,0.0,0.0,0.0,0.0,0.0,0.0,0.0,0.0,0.0,0.0,0.0,0.0,0.0,0.0,0.0,0.0,0.0,0.0,0.0,0.0,0.0,0.0,0.0,0.0,0.0,0.0,0.0,0.0,0.0,0.0,0.0,0.0,0.0,0.0,0.0,0.0,0.0,0.0,0.0,0.0,0.0,0.0,0.0,0.0,0.0,0.0,0.0,0.0,0.0,0.0,0.0,0.0,0.0,0.0,0.0,0.0,0.0,0.0,0.0,0.0,0.0,0.0,0.0,0.0,0.0,0.0,0.0,0.0,0.0,0.0,0.0,0.0,0.0,0.0,0.0,0.0,0.0,0.0,0.0,0.0,0.0,0.0,0.0,0.0,0.0,0.0,0.0,0.0,0.0,0.0,0.0,0.0,0.0,0.0,0.0,0.0,0.0,0.0,0.0,0.0,0.0,0.0,0.0,0.0,0.0,0.0,0.0,0.0,0.0,0.0,0.0,0.0,0.0,0.0,0.0,0.0,0.0,0.0,0.0,0.0,0.0,0.0,0.0,0.0,0.0,0.0,0.0,0.0,0.0,0.0,0.0,0.0,0.0,0.0,0.0,0.0,0.0,0.0,0.0,0.0,0.0,0.0,0.0,0.0,0.0,0.0,0.0,0.0,0.0,0.0,0.0,0.0,0.0,0.0,0.0,0.0,0.0,0.0,0.0,0.0,0.0,0.0,0.0,0.0,0.0,0.0,0.0,0.0,0.0,0.0,0.0,0.0,0.0,0.0,0.0,0.0,0.0,0.0,0.0,0.0,0.0,0.0,0.0,0.0,0.0,0.0,0.0,0.0,0.0,0.0,0.0,0.0,0.0,0.0,0.0,0.0,0.0,0.0,0.0,0.0,0.0,0.0,0.0,0.0,0.0,0.0,0.0,0.0,0.0,0.0,0.0,0.0,0.0,0.0,0.0,0.0,0.0,0.0,0.0,0.0,0.0,0.0,0.0,0.0,0.0,0.0,0.0,0.0,0.0,0.0,0.0,0.0,0.0,0.0,0.0,0.0,0.0,0.0,0.0,0.0,0.0,0.0,0.0,0.0,0.0,0.0,0.0,0.0,0.0,0.0,0.0,0.0,0.0,0.0,0.0,0.0,0.0,0.0,0.0,0.0,0.0,0.0,0.0,0.0,0.0,0.0,0.0,0.0,0.0,0.0,0.0,0.0,0.0,0.0,0.0,0.0,0.0,0.0,0.0,0.0,0.0,0.0,0.0,0.0,0.0,0.0,0.0,0.0,0.0,0.0,0.0,0.0,0.0,0.0,0.0,0.0,0.0,0.0,0.0,0.0,0.0,0.0,0.0,0.0,0.0,0.0,0.0,0.0,0.0,0.0,0.0,0.0,0.0,0.0,0.0,0.0,0.0,0.0,0.0,0.0,0.0,0.0,0.0,0.0,0.0,0.0,0.0,0.0,0.0,0.0,0.0,0.0,0.0,0.0,0.0,0.0,0.0,0.0,0.0,0.0,0.0,0.0,0.0,0.0,0.0,0.0,0.0,0.0,0.0,0.0,0.0,0.0,0.0,0.0,0.0,0.0,0.0,0.0,0.0,0.0,0.0,0.0,0.0,0.0,0.0,0.0,0.0,0.0,0.0,0.0,0.0,0.0,0.0,0.0,0.0,0.0,0.0,0.0,0.0,0.0,0.0,0.0,0.0,0.0,0.0,0.0,0.0,0.0,0.0,0.0,0.0,0.0,0.0,0.0,0.0,0.0,0.0,0.0,0.0,0.0,0.0,0.0,0.0,0.0,0.0,0.0,0.0,0.0,0.0,0.0,0.0,0.0,0.0,0.0,0.0,0.0,0.0,0.0,0.0,0.0,0.0,0.0,0.0,0.0,0.0,0.0,0.0,0.0,0.0,0.0,0.0,0.0,0.0,0.0,0.0,0.0,0.0,0.0,0.0,0.0,0.0,0.0,0.0,0.0,0.0,0.0,0.0,0.0,0.0,0.0,0.0,0.0,0.0,0.0,0.0,0.0,0.0,0.0,0.0,0.0,0.0,0.0,0.0,0.0,0.0,0.0,0.0,0.0,0.0,0.0,0.0,0.0,0.0,0.0,0.0,0.0,0.0,0.0,0.0,0.0,0.0,0.0,0.0,0.0,0.0,0.0,0.0,0.0,0.0,0.0,0.0,0.0,0.0,0.0,0.0,0.0,0.0,0.0,0.0,0.0,0.0,0.0,0.0,0.0,0.0,0.0,0.0,0.0,0.0,0.0,0.0,0.0,0.0,0.0,0.0,0.0,0.0,0.0,0.0,0.0,0.0,0.0,0.0,0.0,0.0,0.0,0.0,0.0,0.0,0.0,0.0,0.0,0.0,0.0,0.0,0.0,0.0,0.0,0.0,0.0,0.0,0.0,0.0,0.0,0.0,0.0,0.0,0.0,0.0,0.0,0.0,0.0,0.0,0.0,0.0,0.0,0.0,0.0,0.0,0.0,0.0,0.0,0.0,0.0,0.0,0.0,0.0,0.0,0.0,0.0,0.0,0.0,0.0,0.0,0.0,0.0,0.0,0.0,0.0,0.0,0.0,0.0,0.0,0.0,0.0,0.0,0.0,0.0,0.0,0.0,0.0,0.0,0.0,0.0,0.0,0.0,0.0,0.0,0.0,0.0,0.0,0.0,0.0,0.0,0.0,0.0,0.0,0.0,0.0,0.0,0.0,0.0,0.0,0.0,0.0,0.0,0.0,0.0,0.0,0.0,0.0,0.0,0.0,0.0,0.0,0.0,0.0,0.0,0.0,0.0,0.0,0.0,0.0,0.0,0.0,0.0,0.0,0.0,0.0,0.0,0.0,0.0,0.1968,0.0,0.0,0.0,0.0,0.0,0.0,0.0,0.0,0.0,0.0,0.0,0.0,0.0,0.0,0.0,0.0,0.0,0.0,0.0,0.0,0.0,0.0,0.0,0.0,0.0,0.0,0.0,0.0,0.0,0.0,0.0,0.0,0.0,0.0,0.0,0.0,0.0,0.0,0.0,0.0,0.0,0.0,0.0,0.0,0.0,0.0,0.0,0.0,0.0,0.0,0.0,0.0,0.0,0.0,0.0,0.0,0.0,0.0,0.0,0.0,0.0,0.0,0.0,0.0,0.0,0.0,0.0,0.0,0.0,0.0,0.0,0.0,0.0,0.0,0.0,0.0,0.0,0.0,0.0,0.0,0.0,0.0,0.0,0.0,0.0,0.0,0.0,0.0,0.0,0.0,0.0,0.0,0.0,0.0,0.0,0.0,0.0,0.0,0.0,0.0,0.0,0.0,0.0,0.0,0.0,0.0,0.0,0.0,0.0,0.0,0.158,0.1597,0.1799,0.1901,0.1901,0.0,0.0,0.0,0.0,0.0,0.0,0.0,0.0,0.0,0.0,0.0,0.0,0.0,0.0,0.0,0.0,0.0,0.0,0.0,0.0,0.0,0.0,0.0,0.0,0.0,0.0,0.0,0.0,0.0,0.0,0.0,0.0,0.0,0.0,0.0,0.0,0.0,0.0,0.0,0.0,0.0,0.0,0.0,0.0,0.0,0.0,0.0,0.0,0.0,0.0,0.0,0.0,0.0,0.0,0.0,0.0,0.0,0.0,0.0,0.0,0.0,0.0,0.0,0.0,0.0,0.0,0.0,0.0,0.0,0.0,0.0,0.0,0.0,0.0,0.0,0.0,0.0,0.0,0.0,0.0,0.0,0.0,0.0,0.0,0.0,0.0,0.0,0.0,0.0,0.0,0.0,0.0,0.0,0.0,0.0,0.0,0.0,0.0,0.0,0.0,0.0,0.0,0.0,0.0,0.0,0.0,0.0,0.0,0.0,0.0,0.0,0.0,0.1664,0.1832,0.1968,0.0,0.0,0.0,0.0,0.0,0.0,0.0,0.0,0.0,0.0,0.0,0.0,0.0,0.0,0.0,0.0,0.0,0.0,0.0,0.0,0.0,0.0,0.0,0.0,0.0,0.0,0.0,0.0,0.0,0.0,0.0,0.0,0.0,0.0,0.0,0.0,0.0,0.0,0.0,0.0,0.0,0.0,0.0,0.0,0.0,0.0,0.0,0.0,0.0,0.0,0.0,0.0,0.0,0.0,0.0,0.0,0.0,0.0,0.0,0.0,0.0,0.0,0.0,0.0,0.0,0.0,0.0,0.0,0.0,0.0,0.0,0.0,0.0,0.0,0.0,0.0,0.0,0.0,0.0,0.0,0.0,0.0,0.0,0.0,0.0,0.0,0.0,0.0,0.0,0.0,0.0,0.0,0.0,0.0,0.0,0.0,0.0,0.0,0.0,0.0,0.0,0.0,0.0,0.0,0.0,0.0,0.0,0.0,0.0,0.0,0.1143,0.1143,0.1294,0.0,0.2136,0.0,0.0,0.0,0.0,0.0,0.0,0.0,0.0,0.0,0.0,0.0,0.0,0.0,0.0,0.0,0.0,0.0,0.0,0.0,0.0,0.0,0.0,0.0,0.0,0.0,0.0,0.0,0.0,0.0,0.0,0.0,0.0,0.0,0.0,0.0,0.0,0.0,0.0,0.0,0.0,0.0,0.0,0.0,0.0,0.0,0.0,0.0,0.0,0.0,0.0,0.0,0.0,0.0,0.0,0.0,0.0,0.0,0.0,0.0,0.0,0.0,0.0,0.0,0.0,0.0,0.0,0.0,0.0,0.0,0.0,0.0,0.0,0.0,0.0,0.0,0.0,0.0,0.0,0.0,0.0,0.0,0.0,0.0,0.0,0.0,0.0,0.0,0.0,0.0,0.0,0.0,0.0,0.0,0.0,0.0,0.0,0.0,0.0,0.0,0.0,0.0,0.0,0.0,0.0,0.0,0.0,0.0,0.0,0.0,0.0,0.1092,0.1092,0.1344,0.1648,0.0,0.0,0.0,0.0,0.0,0.0,0.0,0.0,0.0,0.0,0.0,0.0,0.0,0.0,0.0,0.0,0.0,0.0,0.0,0.0,0.0,0.0,0.0,0.0,0.0,0.0,0.0,0.0,0.0,0.0,0.0,0.0,0.0,0.0,0.0,0.0,0.0,0.0,0.0,0.0,0.0,0.0,0.0,0.0,0.0,0.0,0.0,0.0,0.0,0.0,0.0,0.0,0.0,0.0,0.0,0.0,0.0,0.0,0.0,0.0,0.0,0.0,0.0,0.0,0.0,0.0,0.0,0.0,0.0,0.0,0.0,0.0,0.0,0.0,0.0,0.0,0.0,0.0,0.0,0.0,0.0,0.0,0.0,0.0,0.0,0.0,0.0,0.0,0.0,0.0,0.0,0.0,0.0,0.0,0.0,0.0,0.0,0.0,0.0,0.0,0.0,0.0,0.0,0.0,0.0,0.0,0.0,0.0,0.0,0.0,0.1092,0.1092,0.1126,0.1428,0.1664,0.1816,0.0,0.0,0.0,0.0,0.0,0.0,0.0,0.0,0.0,0.0,0.0,0.0,0.0,0.0,0.0,0.0,0.0,0.0,0.0,0.0,0.0,0.0,0.0,0.0,0.0,0.0,0.0,0.0,0.0,0.0,0.0,0.0,0.0,0.0,0.0,0.0,0.0,0.0,0.0,0.0,0.0,0.0,0.0,0.0,0.0,0.0,0.0,0.0,0.0,0.0,0.0,0.0,0.0,0.0,0.0,0.0,0.0,0.0,0.0,0.0,0.0,0.0,0.0,0.0,0.0,0.0,0.0,0.0,0.0,0.0,0.0,0.0,0.0,0.0,0.0,0.0,0.0,0.0,0.0,0.0,0.0,0.0,0.0,0.0,0.0,0.0,0.0,0.0,0.0,0.0,0.0,0.0,0.0,0.0,0.0,0.0,0.0,0.0,0.0,0.0,0.0,0.0,0.0,0.0,0.0,0.0,0.0,0.0,0.1092,0.1092,0.1092,0.1092,0.1428,0.1614,0.0,0.0,0.0,0.0,0.0,0.0,0.0,0.0,0.0,0.0,0.0,0.0,0.0,0.0,0.0,0.0,0.0,0.0,0.0,0.0,0.0,0.0,0.0,0.0,0.0,0.0,0.0,0.0,0.0,0.0,0.0,0.0,0.0,0.0,0.0,0.0,0.0,0.0,0.0,0.0,0.0,0.0,0.0,0.0,0.0,0.0,0.0,0.0,0.0,0.0,0.0,0.0,0.0,0.0,0.0,0.0,0.0,0.0,0.0,0.0,0.0,0.0,0.0,0.0,0.0,0.0,0.0,0.0,0.0,0.0,0.0,0.0,0.0,0.0,0.0,0.0,0.0,0.0,0.0,0.0,0.0,0.0,0.0,0.0,0.0,0.0,0.0,0.0,0.0,0.0,0.0,0.0,0.0,0.0,0.0,0.0,0.0,0.0,0.0,0.0,0.0,0.0,0.0,0.0,0.0,0.0,0.0,0.0,0.0,0.1092,0.1092,0.1092,0.1126,0.1412,0.158,0.0,0.0,0.0,0.0,0.0,0.0,0.0,0.0,0.0,0.0,0.0,0.0,0.0,0.0,0.0,0.0,0.0,0.0,0.0,0.0,0.0,0.0,0.0,0.0,0.0,0.0,0.0,0.0,0.0,0.0,0.0,0.0,0.0,0.0,0.0,0.0,0.0,0.0,0.0,0.0,0.0,0.0,0.0,0.0,0.0,0.0,0.0,0.0,0.0,0.0,0.0,0.0,0.0,0.0,0.0,0.0,0.0,0.0,0.0,0.0,0.0,0.0,0.0,0.0,0.0,0.0,0.0,0.0,0.0,0.0,0.0,0.0,0.0,0.0,0.0,0.0,0.0,0.0,0.0,0.0,0.0,0.0,0.0,0.0,0.0,0.0,0.0,0.0,0.0,0.0,0.0,0.0,0.0,0.0,0.0,0.0,0.0,0.0,0.0,0.0,0.0,0.0,0.0,0.0,0.0,0.0,0.0,0.0,0.0,0.1122,0.0,0.1122,0.1157,0.1451,0.1634,0.0,0.0,0.0,0.0,0.0,0.0,0.0,0.0,0.0,0.0,0.0,0.0,0.0,0.0,0.0,0.0,0.0,0.0,0.0,0.0,0.0,0.0,0.0,0.0,0.0,0.0,0.0,0.0,0.0,0.0,0.0,0.0,0.0,0.0,0.0,0.0,0.0,0.0,0.0,0.0,0.0,0.0,0.0,0.0,0.0,0.0,0.0,0.0,0.0,0.0,0.0,0.0,0.0,0.0,0.0,0.0,0.0,0.0,0.0,0.0,0.0,0.0,0.0,0.0,0.0,0.0,0.0,0.0,0.0,0.0,0.0,0.0,0.0,0.0,0.0,0.0,0.0,0.0,0.0,0.0,0.0,0.0,0.0,0.0,0.0,0.0,0.0,0.0,0.0,0.0,0.0,0.0,0.0,0.0,0.0,0.0,0.0,0.0,0.0,0.0,0.0,0.0,0.0,0.0,0.0,0.0,0.0,0.0,0.1184,0.1183,0.1182,0.1198,0.1221,0.1527,0.1709,0.0,0.0,0.0,0.0,0.0,0.0,0.0,0.0,0.0,0.0,0.0,0.0,0.0,0.0,0.0,0.0,0.0,0.0,0.0,0.0,0.0,0.0,0.0,0.0,0.0,0.0,0.0,0.0,0.0,0.0,0.0,0.0,0.0,0.0,0.0,0.0,0.0,0.0,0.0,0.0,0.0,0.0,0.0,0.0,0.0,0.0,0.0,0.0,0.0,0.0,0.0,0.0,0.0,0.0,0.0,0.0,0.0,0.0,0.0,0.0,0.0,0.0,0.0,0.0,0.0,0.0,0.0,0.0,0.0,0.0,0.0,0.0,0.0,0.0,0.0,0.0,0.0,0.0,0.0,0.0,0.0,0.0,0.0,0.0,0.0,0.0,0.0,0.0,0.0,0.0,0.0,0.0,0.0,0.0,0.0,0.0,0.0,0.0,0.0,0.0,0.0,0.0,0.0,0.0,0.0,0.0,0.0,0.0,0.0,0.1204,0.1184,0.1184,0.1203,0.1512,0.1708,0.0,0.0,0.0,0.0,0.0,0.0,0.0,0.0,0.0,0.0,0.0,0.0,0.0,0.0,0.0,0.0,0.0,0.0,0.0,0.0,0.0,0.0,0.0,0.0,0.0,0.0,0.0,0.0,0.0,0.0,0.0,0.0,0.0,0.0,0.0,0.0,0.0,0.0,0.0,0.0,0.0,0.0,0.0,0.0,0.0,0.0,0.0,0.0,0.0,0.0,0.0,0.0,0.0,0.0,0.0,0.0,0.0,0.0,0.0,0.0,0.0,0.0,0.0,0.0,0.0,0.0,0.0,0.0,0.0,0.0,0.0,0.0,0.0,0.0,0.0,0.0,0.0,0.0,0.0,0.0,0.0,0.0,0.0,0.0,0.0,0.0,0.0,0.0,0.0,0.0,0.0,0.0,0.0,0.0,0.0,0.0,0.0,0.0,0.0,0.0,0.0,0.0,0.0,0.0,0.0,0.0,0.0,0.0,0.0,0.1238,0.1244,0.1238,0.1256,0.1594,0.1774,0.1739,0.0,0.0,0.0,0.0,0.0,0.0,0.0,0.0,0.0,0.0,0.0,0.0,0.0,0.0,0.0,0.0,0.0,0.0,0.0,0.0,0.0,0.0,0.0,0.0,0.0,0.0,0.0,0.0,0.0,0.0,0.0,0.0,0.0,0.0,0.0,0.0,0.0,0.0,0.0,0.0,0.0,0.0,0.0,0.0,0.0,0.0,0.0,0.0,0.0,0.0,0.0,0.0,0.0,0.0,0.0,0.0,0.0,0.0,0.0,0.0,0.0,0.0,0.0,0.0,0.0,0.0,0.0,0.0,0.0,0.0,0.0,0.0,0.0,0.0,0.0,0.0,0.0,0.0,0.0,0.0,0.0,0.0,0.0,0.0,0.0,0.0,0.0,0.0,0.0,0.0,0.0,0.0,0.0,0.0,0.0,0.0,0.0,0.0,0.0,0.0,0.0,0.0,0.0,0.0,0.0,0.0,0.0,0.0,0.1325,0.1337,0.1321,0.1338,0.1692,0.1869,0.0,0.0,0.0,0.0,0.0,0.0,0.0,0.0,0.0,0.0,0.0,0.0,0.0,0.0,0.0,0.0,0.0,0.0,0.0,0.0,0.0,0.0,0.0,0.0,0.0,0.0,0.0,0.0,0.0,0.0,0.0,0.0,0.0,0.0,0.0,0.0,0.0,0.0,0.0,0.0,0.0,0.0,0.0,0.0,0.0,0.0,0.0,0.0,0.0,0.0,0.0,0.0,0.0,0.0,0.0,0.0,0.0,0.0,0.0,0.0,0.0,0.0,0.0,0.0,0.0,0.0,0.0,0.0,0.0,0.0,0.0,0.0,0.0,0.0,0.0,0.0,0.0,0.0,0.0,0.0,0.0,0.0,0.0,0.0,0.0,0.0,0.0,0.0,0.0,0.0,0.0,0.0,0.0,0.0,0.0,0.0,0.0,0.0,0.0,0.0,0.0,0.0,0.0,0.0,0.0,0.0,0.0,0.0,0.0,0.1584,0.1595,0.1578,0.1535,0.1773,0.1971,0.0,0.0,0.0,0.0,0.0,0.0,0.0,0.0,0.0,0.0,0.0,0.0,0.0,0.0,0.0,0.0,0.0,0.0,0.0,0.0,0.0,0.0,0.0,0.0,0.0,0.0,0.0,0.0,0.0,0.0,0.0,0.0,0.0,0.0,0.0,0.0,0.0,0.0,0.0,0.0,0.0,0.0,0.0,0.0,0.0,0.0,0.0,0.0,0.0,0.0,0.0,0.0,0.0,0.0,0.0,0.0,0.0,0.0,0.0,0.0,0.0,0.0,0.0,0.0,0.0,0.0,0.0,0.0,0.0,0.0,0.0,0.0,0.0,0.0,0.0,0.0,0.0,0.0,0.0,0.0,0.0,0.0,0.0,0.0,0.0,0.0,0.0,0.0,0.0,0.0,0.0,0.0,0.0,0.0,0.0,0.0,0.0,0.0,0.0,0.0,0.0,0.0,0.0,0.0,0.0,0.0,0.0,0.0,0.1471,0.1727,0.1742,0.1818,0.1927,0.2051,0.2161,0.0,0.0,0.0,0.0,0.0,0.0,0.0,0.0,0.0,0.0,0.0,0.0,0.0,0.0,0.0,0.0,0.0,0.0,0.0,0.0,0.0,0.0,0.0,0.0,0.0,0.0,0.0,0.0,0.0,0.0,0.0,0.0,0.0,0.0,0.0,0.0,0.0,0.0,0.0,0.0,0.0,0.0,0.0,0.0,0.0,0.0,0.0,0.0,0.0,0.0,0.0,0.0,0.0,0.0,0.0,0.0,0.0,0.0,0.0,0.0,0.0,0.0,0.0,0.0,0.0,0.0,0.0,0.0,0.0,0.0,0.0,0.0,0.0,0.0,0.0,0.0,0.0,0.0,0.0,0.0,0.0,0.0,0.0,0.0,0.0,0.0,0.0,0.0,0.0,0.0,0.0,0.0,0.0,0.0,0.0,0.0,0.0,0.0,0.0,0.0,0.0,0.0,0.0,0.0,0.0,0.0,0.0,0.0,0.1547,0.1831,0.1844,0.2023,0.2421,0.2412,0.238,0.0,0.0,0.0,0.0,0.0,0.0,0.0,0.0,0.0,0.0,0.0,0.0,0.0,0.0,0.0,0.0,0.0,0.0,0.0,0.0,0.0,0.0,0.0,0.0,0.0,0.0,0.0,0.0,0.0,0.0,0.0,0.0,0.0,0.0,0.0,0.0,0.0,0.0,0.0,0.0,0.0,0.0,0.0,0.0,0.0,0.0,0.0,0.0,0.0,0.0,0.0,0.0,0.0,0.0,0.0,0.0,0.0,0.0,0.0,0.0,0.0,0.0,0.0,0.0,0.0,0.0,0.0,0.0,0.0,0.0,0.0,0.0,0.0,0.0,0.0,0.0,0.0,0.0,0.0,0.0,0.0,0.0,0.0,0.0,0.0,0.0,0.0,0.0,0.0,0.0,0.0,0.0,0.0,0.0,0.0,0.0,0.0,0.0,0.0,0.0,0.0,0.0,0.0,0.0,0.0,0.0,0.0,0.0,0.1626,0.2095,0.2104,0.2329,0.2765,0.2555,0.2478,0.0,0.0,0.0,0.0,0.0,0.0,0.0,0.0,0.0,0.0,0.0,0.0,0.0,0.0,0.0,0.0,0.0,0.0,0.0,0.0,0.0,0.0,0.0,0.0,0.0,0.0,0.0,0.0,0.0,0.0,0.0,0.0,0.0,0.0,0.0,0.0,0.0,0.0,0.0,0.0,0.0,0.0,0.0,0.0,0.0,0.0,0.0,0.0,0.4253,0.0,0.0,0.0,0.0,0.0,0.0,0.0,0.0,0.0,0.0,0.0,0.0,0.0,0.0,0.0,0.0,0.0,0.0,0.0,0.0,0.0,0.0,0.0,0.0,0.0,0.0,0.0,0.0,0.0,0.0,0.0,0.0,0.0,0.0,0.0,0.0,0.0,0.0,0.0,0.0,0.0,0.0,0.0,0.0,0.0,0.0,0.0,0.0,0.0,0.0,0.0,0.0,0.0,0.0,0.0,0.0,0.0,0.0,0.0,0.1773,0.2177,0.2289,0.2515,0.2873,0.2817,0.2815,0.0,0.0,0.0,0.0,0.0,0.0,0.0,0.0,0.0,0.0,0.0,0.0,0.0,0.0,0.0,0.0,0.0,0.0,0.0,0.0,0.0,0.0,0.0,0.0,0.0,0.0,0.0,0.0,0.0,0.0,0.0,0.0,0.0,0.0,0.0,0.0,0.0,0.0,0.0,0.0,0.0,0.0,0.0,0.0,0.0,0.0,0.0,0.0,0.0,0.0,0.0,0.0,0.0,0.0,0.0,0.0,0.0,0.0,0.0,0.0,0.0,0.0,0.0,0.0,0.0,0.0,0.0,0.0,0.0,0.0,0.0,0.0,0.0,0.0,0.0,0.0,0.0,0.0,0.0,0.0,0.0,0.0,0.0,0.0,0.0,0.0,0.0,0.0,0.0,0.0,0.0,0.0,0.0,0.0,0.0,0.0,0.0,0.0,0.0,0.0,0.0,0.0,0.0,0.0,0.0,0.0,0.0,0.1355,0.1865,0.2186,0.2361,0.2607,0.2908,0.3056,0.3177,0.3185,0.0,0.0,0.0,0.0,0.0,0.0,0.0,0.0,0.0,0.0,0.0,0.0,0.0,0.0,0.0,0.0,0.0,0.0,0.0,0.0,0.0,0.0,0.0,0.0,0.0,0.0,0.0,0.0,0.0,0.0,0.0,0.0,0.0,0.0,0.0,0.0,0.0,0.0,0.4079,0.4392,0.0,0.0,0.0,0.0,0.0,0.0,0.0,0.0,0.3821,0.0,0.0,0.0,0.0,0.0,0.0,0.0,0.0,0.0,0.0,0.0,0.0,0.0,0.0,0.0,0.0,0.0,0.0,0.0,0.0,0.0,0.0,0.0,0.0,0.0,0.0,0.0,0.0,0.0,0.0,0.0,0.0,0.0,0.0,0.0,0.0,0.0,0.0,0.0,0.0,0.0,0.0,0.0,0.0,0.0,0.0,0.0,0.0,0.0,0.0,0.0,0.0,0.0,0.0,0.0,0.0,0.0696,0.1043,0.1538,0.2186,0.2219,0.2487,0.2964,0.2966,0.3136,0.3476,0.0,0.0,0.0,0.0,0.0,0.0,0.0,0.0,0.0,0.0,0.0,0.0,0.0,0.0,0.0,0.0,0.0,0.0,0.0,0.0,0.0,0.0,0.0,0.0,0.0,0.0,0.0,0.0,0.0,0.0,0.0,0.0,0.0,0.0,0.0,0.0,0.0,0.0,0.0,0.4157,0.4253,0.0,0.0,0.0,0.0,0.0,0.0,0.0,0.0,0.3882,0.0,0.0,0.0,0.0,0.0,0.0,0.0,0.0,0.0,0.0,0.0,0.0,0.0,0.0,0.0,0.0,0.0,0.0,0.0,0.0,0.0,0.0,0.0,0.0,0.0,0.0,0.0,0.0,0.0,0.0,0.0,0.0,0.0,0.0,0.0,0.0,0.0,0.0,0.0,0.0,0.0,0.0,0.0,0.0,0.0,0.0,0.0,0.0,0.0,0.0,0.0,0.0,0.0,0.0,0.0,0.0764,0.1248,0.1773,0.2231,0.2515,0.2823,0.3142,0.3276,0.3448,0.0,0.0,0.0,0.0,0.0,0.0,0.0,0.0,0.0,0.0,0.0,0.0,0.0,0.0,0.0,0.0,0.0,0.0,0.0,0.0,0.0,0.0,0.0,0.0,0.0,0.0,0.0,0.0,0.0,0.0,0.0,0.0,0.0,0.0,0.0,0.0,0.0,0.0,0.0,0.0,0.4038,0.4099,0.4092,0.0,0.0,0.0,0.0,0.0,0.0,0.3821,0.3841,0.0,0.0,0.0,0.0,0.0,0.0,0.0,0.0,0.0,0.0,0.0,0.0,0.0,0.0,0.0,0.0,0.0,0.0,0.0,0.0,0.0,0.0,0.0,0.0,0.0,0.0,0.0,0.0,0.0,0.0,0.0,0.0,0.0,0.0,0.0,0.0,0.0,0.0,0.0,0.0,0.0,0.0,0.0,0.0,0.0,0.0,0.0,0.0,0.0,0.0,0.0,0.0,0.0,0.0,0.0,0.0809,0.1371,0.1881,0.2324,0.2723,0.3073,0.3305,0.3499,0.3711,0.0,0.0,0.0,0.0,0.0,0.0,0.0,0.0,0.0,0.0,0.0,0.0,0.0,0.0,0.0,0.0,0.0,0.0,0.0,0.0,0.0,0.0,0.0,0.0,0.0,0.0,0.0,0.0,0.0,0.0,0.0,0.0,0.0,0.0,0.0,0.0,0.0,0.0,0.0,0.0,0.0,0.3979,0.3821,0.3958,0.0,0.0,0.0,0.0,0.3835,0.3843,0.0,0.0,0.0,0.0,0.0,0.0,0.0,0.0,0.0,0.0,0.0,0.0,0.0,0.0,0.0,0.0,0.0,0.0,0.0,0.0,0.0,0.0,0.0,0.0,0.0,0.0,0.0,0.0,0.0,0.0,0.0,0.0,0.0,0.0,0.0,0.0,0.0,0.0,0.0,0.0,0.0,0.0,0.0,0.0,0.0,0.0,0.0,0.0,0.0,0.0,0.0,0.0,0.0,0.0,0.0,0.0,0.0763,0.0895,0.1415,0.2316,0.2405,0.2716,0.3371,0.3362,0.3526,0.0,0.0,0.0,0.0,0.0,0.0,0.0,0.0,0.0,0.0,0.0,0.0,0.0,0.0,0.0,0.0,0.0,0.0,0.0,0.0,0.0,0.0,0.0,0.0,0.0,0.0,0.0,0.0,0.0,0.0,0.0,0.0,0.0,0.0,0.0,0.0,0.0,0.0,0.0,0.0,0.0,0.3821,0.3821,0.3874,0.3905,0.0,0.0,0.3912,0.3971,0.3936,0.0,0.0,0.0,0.0,0.0,0.0,0.0,0.0,0.0,0.0,0.0,0.0,0.0,0.0,0.0,0.0,0.0,0.0,0.0,0.0,0.0,0.0,0.0,0.0,0.0,0.0,0.0,0.0,0.0,0.0,0.0,0.0,0.0,0.0,0.0,0.0,0.0,0.0,0.0,0.0,0.0,0.0,0.0,0.0,0.0,0.0,0.0,0.0,0.0,0.0,0.0,0.0,0.0,0.0,0.0,0.0189,0.0574,0.0869,0.1321,0.1943,0.2226,0.2646,0.3222,0.3185,0.3401,0.0,0.0,0.0,0.0,0.0,0.0,0.0,0.0,0.0,0.0,0.0,0.0,0.0,0.0,0.0,0.0,0.0,0.0,0.0,0.0,0.0,0.0,0.0,0.0,0.0,0.0,0.0,0.0,0.0,0.0,0.0,0.0,0.0,0.0,0.0,0.0,0.0,0.0,0.0,0.0,0.0,0.0,0.4254,0.4235,0.0,0.0,0.0,0.4155,0.403,0.0,0.0,0.0,0.0,0.0,0.0,0.0,0.0,0.0,0.0,0.0,0.0,0.0,0.0,0.0,0.0,0.0,0.0,0.0,0.0,0.0,0.0,0.0,0.0,0.0,0.0,0.0,0.0,0.0,0.0,0.0,0.0,0.0,0.0,0.0,0.0,0.0,0.0,0.0,0.0,0.0,0.0,0.0,0.0,0.0,0.0,0.0,0.0,0.0,0.0,0.0,0.0,0.0,0.0,0.0,0.0,0.0,0.0393,0.0789,0.1195,0.1591,0.1994,0.2451,0.2969,0.3023,0.0,0.0,0.0,0.0,0.0,0.0,0.0,0.0,0.0,0.0,0.0,0.0,0.0,0.0,0.0,0.0,0.0,0.0,0.0,0.0,0.0,0.0,0.0,0.0,0.0,0.0,0.0,0.5105,0.0,0.0,0.0,0.0,0.0,0.0,0.0,0.0,0.0,0.0,0.0,0.0,0.0,0.0,0.4246,0.465,0.4597,0.4531,0.0,0.0,0.4455,0.427,0.4231,0.4212,0.0,0.0,0.0,0.0,0.0,0.0,0.0,0.0,0.0,0.0,0.0,0.0,0.0,0.0,0.0,0.0,0.0,0.0,0.0,0.0,0.0,0.0,0.0,0.0,0.0,0.0,0.0,0.0,0.0,0.0,0.0,0.0,0.0,0.0,0.0,0.0,0.0,0.0,0.0,0.0,0.0,0.0,0.0,0.0,0.0,0.0,0.0,0.0,0.0,0.0,0.0,0.0,0.0,0.0,0.0147,0.0393,0.045,0.0832,0.1566,0.1642,0.2002,0.2699,0.2964,0.3202,0.0,0.0,0.0,0.0,0.0,0.0,0.0,0.0,0.0,0.0,0.0,0.0,0.0,0.0,0.0,0.0,0.0,0.0,0.0,0.0,0.0,0.0,0.0,0.0,0.0,0.0,0.0,0.0,0.0,0.0,0.0,0.0,0.0,0.0,0.0,0.0,0.0,0.0,0.0,0.0,0.0,0.4655,0.4703,0.4787,0.4875,0.0,0.4875,0.4884,0.4931,0.4889,0.4851,0.4844,0.0,0.0,0.0,0.0,0.0,0.0,0.0,0.0,0.0,0.0,0.0,0.0,0.0,0.0,0.0,0.0,0.0,0.0,0.0,0.0,0.0,0.0,0.0,0.0,0.0,0.0,0.0,0.0,0.0,0.0,0.0,0.0,0.0,0.0,0.0,0.0,0.0,0.0,0.0,0.0,0.0,0.0,0.0,0.0,0.0,0.0,0.0,0.0,0.0,0.0,0.0,0.0,0.0,0.005,0.015,0.0302,0.0631,0.1086,0.1263,0.1636,0.2249,0.2322,0.2641,0.0,0.0,0.0,0.0,0.0,0.0,0.0,0.0,0.0,0.0,0.0,0.0,0.0,0.0,0.0,0.0,0.0,0.0,0.0,0.0,0.0,0.0,0.0,0.0,0.0,0.0,0.0,0.0,0.5392,0.5373,0.5324,0.0,0.0,0.0,0.0,0.0,0.0,0.0,0.0,0.0,0.0,0.4953,0.528,0.5238,0.0,0.0,0.5198,0.5169,0.5026,0.4977,0.4954,0.4916,0.502,0.0,0.0,0.0,0.0,0.0,0.0,0.0,0.0,0.0,0.0,0.0,0.0,0.0,0.0,0.0,0.0,0.0,0.0,0.0,0.0,0.0,0.0,0.0,0.0,0.0,0.0,0.0,0.0,0.0,0.0,0.0,0.0,0.0,0.0,0.0,0.0,0.0,0.0,0.0,0.0,0.0,0.0,0.0,0.0,0.0,0.0,0.0,0.0,0.0,0.0,0.0,0.0,0.0,0.0,0.0178,0.0406,0.0682,0.0864,0.1219,0.1718,0.1796,0.2104,0.0,0.0,0.0,0.0,0.0,0.0,0.0,0.0,0.0,0.0,0.0,0.0,0.0,0.0,0.0,0.0,0.0,0.0,0.0,0.0,0.0,0.0,0.0,0.0,0.0,0.0,0.0,0.0,0.5466,0.5423,0.5423,0.0,0.0,0.0,0.0,0.0,0.0,0.0,0.0,0.0,0.0,0.5482,0.5786,0.5708,0.5594,0.5508,0.5485,0.5416,0.5258,0.5191,0.5188,0.5163,0.0,0.0,0.0,0.0,0.0,0.0,0.0,0.0,0.0,0.0,0.0,0.0,0.0,0.0,0.0,0.0,0.0,0.0,0.0,0.0,0.0,0.0,0.0,0.0,0.0,0.0,0.0,0.0,0.0,0.0,0.0,0.0,0.0,0.0,0.0,0.0,0.0,0.0,0.0,0.0,0.0,0.0,0.0,0.0,0.0,0.0,0.0,0.0,0.0,0.0,0.0,0.0,0.0,0.0,0.0,0.0,0.0129,0.0405,0.0411,0.0669,0.1215,0.1465,0.1742,0.2019,0.0,0.0,0.0,0.0,0.0,0.0,0.0,0.0,0.0,0.0,0.0,0.0,0.0,0.0,0.0,0.0,0.0,0.0,0.0,0.0,0.0,0.0,0.0,0.0,0.0,0.0,0.5694,0.5575,0.5505,0.0,0.0,0.0,0.0,0.0,0.0,0.0,0.0,0.0,0.5892,0.6146,0.6296,0.6102,0.6083,0.5997,0.5733,0.5688,0.5688,0.5688,0.5688,0.5688,0.0,0.0,0.0,0.0,0.0,0.0,0.0,0.0,0.0,0.0,0.0,0.0,0.0,0.0,0.0,0.0,0.0,0.0,0.0,0.0,0.0,0.0,0.0,0.0,0.0,0.0,0.0,0.0,0.0,0.0,0.0,0.0,0.0,0.0,0.0,0.0,0.0,0.0,0.0,0.0,0.0,0.0,0.0,0.0,0.0,0.0,0.0,0.0,0.0,0.0,0.0,0.0,0.0,0.0,0.0,0.0,0.0,0.013,0.0393,0.0395,0.058,0.0943,0.1036,0.1279,0.1744,0.0,0.0,0.0,0.0,0.0,0.0,0.0,0.0,0.0,0.0,0.0,0.0,0.0,0.0,0.0,0.0,0.0,0.0,0.0,0.0,0.0,0.0,0.0,0.0,0.0,0.571,0.0,0.0,0.0,0.0,0.0,0.0,0.0,0.0,0.0,0.0,0.0,0.618,0.6221,0.6338,0.6387,0.6299,0.6299,0.6276,0.0,0.0,0.0,0.0,0.0,0.0,0.0,0.0,0.0,0.0,0.0,0.0,0.0,0.0,0.715,0.7156,0.7621,0.8178,0.8774,0.0,0.0,0.0,0.0,0.0,0.0,0.0,0.0,0.0,0.0,0.0,0.0,0.0,0.0,0.0,0.0,0.0,0.0,0.0,0.0,0.0,0.0,0.0,0.0,0.0,0.0,0.0,0.0,0.0,0.0,0.0,0.0105,0.0129,0.0,0.0,0.0,0.0,0.0,0.0,0.0,0.0,0.0,0.0,0.0,0.008,0.0267,0.0268,0.0403,0.064,0.0738,0.1017,0.1469,0.187,0.2375,0.0,0.0,0.0,0.0,0.0,0.0,0.0,0.0,0.0,0.0,0.0,0.0,0.0,0.0,0.0,0.0,0.0,0.0,0.0,0.0,0.0,0.0,0.0,0.5816,0.0,0.0,0.0,0.0,0.0,0.0,0.0,0.0,0.0,0.6095,0.6306,0.6493,0.6533,0.6609,0.6609,0.6542,0.0,0.0,0.0,0.0,0.0,0.0,0.0,0.6406,0.6406,0.6406,0.6428,0.652,0.6814,0.7119,0.7325,0.0,0.0,0.7818,0.813,0.8657,0.9402,0.9792,1.025,1.1133,1.137,1.1569,0.0,0.0,0.0,0.0,0.0,0.0,0.0,0.0,0.0,0.0,0.0,0.0,0.0,0.0,0.0,0.0,0.0,0.0,0.0,0.0,0.0,0.0,0.0,0.0,0.0,0.0,0.0294,0.0427,0.0426,0.018,0.0,0.0,0.0,0.0,0.0,0.0,0.0,0.0,0.0,0.0,0.0,0.0,0.0136,0.0401,0.0641,0.0934,0.1253,0.1466,0.1971,0.2828,0.301,0.0,0.0,0.0,0.0,0.0,0.0,0.0,0.0,0.0,0.0,0.0,0.0,0.0,0.0,0.0,0.0,0.0,0.0,0.0,0.0,0.6133,0.0,0.0,0.0,0.0,0.0,0.0,0.0,0.0,0.0,0.6719,0.6494,0.6669,0.6821,0.6824,0.0,0.0,0.0,0.0,0.6735,0.6491,0.6444,0.6447,0.6447,0.6447,0.6447,0.6447,0.0,0.0,0.6786,0.7214,0.7596,0.78,0.8174,0.8531,0.8601,0.8638,0.8972,0.9848,1.0076,1.0362,1.1138,1.1619,1.1932,0.0895,0.0,0.0,0.0,0.0,0.0373,0.0275,0.0254,0.0076,0.0,0.0,0.0,0.0,0.0,0.0,0.0,0.0,0.0,0.0,0.0,0.0,0.0,0.0,0.0192,0.0276,0.0304,0.0601,0.076,0.0759,0.0664,0.063,0.0657,0.0,0.0,0.0,0.0,0.0186,0.0,0.0,0.0,0.0,0.0,0.0028,0.0109,0.019,0.0351,0.0641,0.0928,0.1402,0.2034,0.2611,0.0,0.0,0.0,0.0,0.0,0.0,0.0,0.0,0.0,0.0,0.0,0.0,0.0,0.0,0.0,0.0,0.0,0.0,0.0,0.6652,0.6679,0.6638,0.0,0.0,0.0,0.0,0.0,0.0,0.0,0.0,0.0,0.7257,0.7236,0.7218,0.0,0.0,0.7323,0.7362,0.7285,0.7255,0.7244,0.7257,0.0,0.726,0.726,0.726,0.726,0.7419,0.758,0.7649,0.793,0.8217,0.8401,0.8548,0.876,0.9088,0.9323,0.9734,1.0504,1.0822,1.1229,1.2131,1.2445,1.2669,0.1376,0.1135,0.0929,0.0852,0.0826,0.0645,0.0598,0.0604,0.042,0.0343,0.0373,0.0369,0.0367,0.0341,0.0208,0.0,0.0,0.0,0.0135,0.0162,0.0302,0.0359,0.036,0.053,0.0589,0.0616,0.0916,0.1049,0.1077,0.1176,0.1252,0.1251,0.0,0.08,0.0614,0.0591,0.0514,0.0383,0.0358,0.0305,0.0168,0.0028,0.0,0.0,0.0,0.0137,0.0381,0.0703,0.1131,0.1668,0.226,0.2736,0.0,0.0,0.0,0.0,0.0,0.0,0.0,0.0,0.0,0.0,0.0,0.6225,0.6201,0.0,0.0,0.0,0.6611,0.6852,0.7,0.7024,0.0,0.0,0.0,0.0,0.0,0.0,0.0,0.7332,0.7355,0.7429,0.7574,0.7593,0.7526,0.7491,0.7485,0.7495,0.7587,0.0,0.7519,0.7587,0.7695,0.7762,0.7765,0.7855,0.7926,0.7926,0.804,0.8157,0.818,0.8364,0.857,0.8769,0.8906,0.9119,0.9553,0.9847,1.0165,1.07,1.1078,1.1561,1.2346,1.2643,1.2962,0.1764,0.1685,0.1178,0.0989,0.096,0.0934,0.0934,0.0935,0.0909,0.0883,0.0884,0.0882,0.0882,0.088,0.0588,0.0,0.008,0.0327,0.0439,0.0439,0.0752,0.0897,0.0897,0.0925,0.0925,0.0953,0.1206,0.1346,0.1346,0.1654,0.1795,0.1793,0.1251,0.0964,0.0938,0.0924,0.0931,0.0904,0.089,0.0757,0.0448,0.0168,0.0028,0.0,0.0,0.0112,0.0364,0.069,0.1123,0.1614,0.1937,0.2342,0.2807,0.0,0.0,0.0,0.0,0.0,0.0,0.0,0.0,0.0,0.0,0.0,0.0,0.0,0.0,0.0,0.7092,0.0,0.726,0.7263,0.0,0.0,0.0,0.7196,0.7259,0.727,0.7344,0.7611,0.0,0.0,0.7661,0.7794,0.7828,0.7699,0.7671,0.7668,0.7655,0.7698,0.7665,0.7743,0.7918,0.8079,0.8084,0.8266,0.8411,0.8408,0.8428,0.8471,0.8494,0.8655,0.8851,0.9036,0.9236,0.9518,0.9911,1.0141,1.04,1.0491,1.0957,1.1484,1.2042,1.2486,1.2911,0.1808,0.1773,0.1635,0.1557,0.1492,0.1279,0.1208,0.1168,0.1005,0.0876,0.0886,0.0875,0.0891,0.0881,0.0811,0.0733,0.068,0.0747,0.0781,0.0781,0.0868,0.0897,0.0897,0.1093,0.1206,0.1206,0.1514,0.1683,0.1683,0.1767,0.1795,0.1794,0.1642,0.1469,0.1192,0.1196,0.1087,0.092,0.0895,0.0869,0.0785,0.0476,0.0308,0.028,0.0112,0.0028,0.0112,0.0614,0.0975,0.1114,0.1803,0.2228,0.2304,0.2525,0.0,0.0,0.0,0.0,0.0,0.0,0.0,0.0,0.0,0.6489,0.6692,0.0,0.6867,0.0,0.7344,0.7593,0.7789,0.7814,0.0,0.0,0.7789,0.7801,0.7813,0.781,0.7835,0.7887,0.8077,0.8203,0.8224,0.8427,0.8557,0.8517,0.825,0.8097,0.8203,0.8295,0.841,0.8481,0.8555,0.8612,0.8625,0.8664,0.8726,0.8685,0.886,0.9014,0.9014,0.923,0.9392,0.9457,0.9514,0.9608,0.969,0.9895,1.0165,1.0416,1.1023,1.1747,1.2472,1.2706,1.3041,0.1795,0.1795,0.1795,0.1776,0.1744,0.1581,0.1535,0.152,0.1382,0.1306,0.1289,0.1305,0.1211,0.1092,0.1074,0.1023,0.0913,0.1033,0.1093,0.1093,0.1234,0.1318,0.1318,0.1458,0.1514,0.1514,0.1711,0.1795,0.1795,0.1795,0.1795,0.1795,0.1795,0.1711,0.1542,0.1514,0.143,0.1318,0.1149,0.1065,0.1065,0.0785,0.0561,0.0392,0.0252,0.0168,0.0196,0.0645,0.0953,0.1093,0.1683,0.1987,0.1968,0.2199,0.243,0.0,0.0,0.0,0.0,0.0,0.0,0.0,0.0,0.0,0.0,0.0,0.7433,0.7744,0.7907,0.806,0.8187,0.8209,0.8213,0.8209,0.8209,0.8235,0.8238,0.8209,0.826,0.8387,0.8537,0.8689,0.8824,0.8972,0.9078,0.9074,0.8978,0.8825,0.863,0.8648,0.8704,0.8785,0.8903,0.9031,0.9126,0.915,0.9154,0.9175,0.9278,0.9381,0.9381,0.9509,0.9599,0.9599,0.9599,0.9653,0.9776,0.9998,1.0265,1.056,1.1027,1.1585,1.2151,1.254,1.3026,0.1795,0.1795,0.1795,0.1795,0.1795,0.1795,0.1795,0.1795,0.1795,0.1795,0.1795,0.1795,0.1627,0.1346,0.1374,0.1234,0.1037,0.1262,0.1374,0.1374,0.1655,0.1795,0.1795,0.1795,0.1795,0.1795,0.1795,0.1795,0.1795,0.1795,0.1795,0.1795,0.1795,0.1795,0.1795,0.1795,0.1795,0.1795,0.1514,0.1346,0.1346,0.1093,0.0813,0.0533,0.0476,0.0476,0.0476,0.0785,0.1065,0.1289,0.1631,0.1809,0.1804,0.1968,0.2216,0.0,0.3034,0.0,0.0,0.0,0.0,0.0,0.0,0.0,0.0,0.765,0.8133,0.8469,0.8509,0.8509,0.8509,0.8509,0.8509,0.8509,0.8509,0.8509,0.8509,0.8535,0.8636,0.8872,0.8977,0.9137,0.9399,0.9466,0.9515,0.9518,0.9659,0.9602,0.9114,0.9028,0.9032,0.8988,0.917,0.9438,0.9597,0.9664,0.9623,0.964,0.9591,0.9603,0.9603,0.9603,0.9599,0.9599,0.9653,0.9727,0.9969,1.022,1.0462,1.0732,1.0973,1.1267,1.1614,1.2175,1.2735,0.1795,0.1795,0.1795,0.1795,0.1795,0.1795,0.1795,0.1795,0.1795,0.1795,0.1795,0.1795,0.1767,0.1711,0.1711,0.1683,0.1655,0.1683,0.1711,0.1711,0.1767,0.1795,0.1795,0.1795,0.1795,0.1795,0.1795,0.1795,0.1795,0.1795,0.1795,0.1795,0.1795,0.1795,0.1795,0.0,0.0,0.0,0.1739,0.1711,0.1683,0.1374,0.1206,0.1121,0.0925,0.0,0.0813,0.1065,0.1234,0.1318,0.1622,0.0,0.0,0.0,0.0,0.0,0.0,0.0,0.0,0.0,0.0,0.0,0.702,0.7482,0.7503,0.8053,0.8426,0.8479,0.8509,0.8509,0.8509,0.8509,0.8509,0.8509,0.8509,0.8509,0.8509,0.8692,0.8842,0.8898,0.9321,0.9646,0.9736,0.9929,1.0038,1.0054,1.0086,1.0084,0.9941,0.9896,0.9925,0.9925,0.9927,0.9999,1.0088,0.9954,0.9835,0.9823,0.9709,0.9616,0.9611,0.9603,0.9603,0.9628,0.9776,0.992,0.9994,1.0212,1.0511,1.0752,1.085,1.1027,1.1487,1.1883,1.2297,0.1832,0.179,0.1789,0.1808,0.0,0.1795,0.1795,0.1795,0.1795,0.1795,0.1795,0.1795,0.1795,0.1795,0.1795,0.1795,0.1795,0.1795,0.1795,0.1795,0.1795,0.1795,0.1795,0.1795,0.1795,0.1795,0.1795,0.1795,0.1795,0.1795,0.1795,0.1795,0.1795,0.1795,0.1795,0.1795,0.1795,0.1795,0.1795,0.1795,0.1795,0.1627,0.1458,0.129,0.1177,0.0,0.0,0.0,0.0,0.0,0.0,0.0,0.0,0.1799,0.0,0.2434,0.257,0.3115,0.4123,0.4829,0.5565,0.63,0.7248,0.7896,0.8125,0.8478,0.871,0.8683,0.871,0.8706,0.8679,0.8706,0.8706,0.871,0.8706,0.8733,0.8921,0.9056,0.9271,0.9567,0.9862,1.008,1.0237,1.034,1.0424,1.0451,1.0451,1.0443,1.043,1.0296,1.0186,1.0186,1.0186,1.0186,1.0178,1.0147,1.0048,1.0027,0.9872,0.977,0.9754,0.966,0.9653,0.9752,0.992,1.0068,1.0364,1.0507,1.0679,1.0924,1.0998,1.1071,1.1365,1.1609,1.1956,0.1871,0.182,0.1819,0.1834,0.181,0.1839,0.181,0.181,0.18,0.0,0.0,0.1795,0.1795,0.1795,0.1795,0.1795,0.1795,0.1795,0.1795,0.1795,0.1795,0.1795,0.1795,0.1795,0.1795,0.1795,0.1795,0.1795,0.1795,0.18,0.1803,0.1804,0.1808,0.1839,0.181,0.1811,0.1811,0.181,0.18,0.1795,0.1795,0.1795,0.1683,0.1402,0.1402,0.1374,0.1374,0.1402,0.1514,0.1795,0.1795,0.1795,0.1795,0.1795,0.2075,0.2637,0.2693,0.3223,0.4424,0.5063,0.5736,0.6469,0.7493,0.8274,0.8703,0.8838,0.8909,0.8909,0.8909,0.8909,0.8909,0.8909,0.8909,0.8909,0.8909,0.902,0.932,0.9461,0.9664,1.0198,1.0323,1.0472,1.0648,1.0672,1.0719,1.0688,1.0691,1.0719,1.0683,1.0475,1.0312,1.0316,1.0333,1.03,1.0284,1.0255,1.0243,1.0231,1.008,0.9966,0.9985,0.9866,0.9838,1.0111,1.0127,1.0343,1.0703,1.0826,1.0929,1.1149,1.1194,1.1194,1.1218,1.1414,1.1761,0.1883,0.1879,0.1879,0.1907,0.1902,0.1902,0.1902,0.1898,0.1818,0.1795,0.1795,0.1795,0.1795,0.1795,0.1795,0.1795,0.1795,0.1795,0.1795,0.1795,0.1795,0.1795,0.1795,0.1795,0.1795,0.1795,0.1795,0.1795,0.1797,0.1793,0.1806,0.1809,0.1859,0.1902,0.1873,0.1873,0.1902,0.1872,0.1821,0.1795,0.1795,0.1795,0.1795,0.1739,0.1711,0.1711,0.1739,0.1739,0.1767,0.1795,0.1795,0.1795,0.1795,0.1795,0.2075,0.2637,0.2693,0.3225,0.4397,0.5067,0.5986,0.7299,0.8045,0.8561,0.8854,0.8899,0.8909,0.8909,0.8909,0.8909,0.8909,0.8909,0.8909,0.8909,0.8909,0.9047,0.9379,0.9627,0.9899,1.0253,1.0527,1.0637,1.0692,1.0719,1.0719,1.0719,1.0719,1.0719,1.0711,1.0679,1.0619,1.0619,1.0619,1.0619,1.0566,1.0481,1.0408,1.0373,1.0272,1.0249,1.0457,1.0335,1.0293,1.0533,1.0619,1.0719,1.0844,1.0998,1.1139,1.1217,1.1212,1.1198,1.1194,1.1414,1.1707,0.1955,0.1881,0.1732,0.1633,0.162,0.1443,0.1355,0.1383,0.1537,0.1671,0.1844,0.1844,0.1844,0.1842,0.1827,0.1792,0.179,0.1802,0.1804,0.1791,0.1792,0.1829,0.1843,0.1873,0.1873,0.1844,0.1844,0.1844,0.1845,0.1858,0.1865,0.1836,0.1879,0.1885,0.1885,0.1885,0.1885,0.1885,0.1858,0.1873,0.1873,0.1844,0.1844,0.1873,0.1829,0.1791,0.1792,0.1804,0.1795,0.1795,0.1795,0.1795,0.1795,0.1935,0.2216,0.2665,0.2833,0.3307,0.4175,0.5094,0.6126,0.7296,0.7771,0.8214,0.8654,0.8823,0.8909,0.8909,0.8909,0.8909,0.8909,0.8909,0.8909,0.8909,0.9047,0.9296,0.9599,0.9895,1.0174,1.0472,1.0606,1.0692,1.0719,1.0719,1.0719,1.0719,1.0719,1.0719,1.0719,1.0719,1.0719,1.0719,1.0719,1.0719,1.0688,1.0631,1.0578,1.0574,1.0589,1.0618,1.0751,1.0685,1.0766,1.0894,1.1031,1.1139,1.1172,1.1274,1.1344,1.1334,1.126,1.1208,1.1243,1.1414,1.1731,0.187,0.179,0.1456,0.1265,0.1162,0.0834,0.0715,0.0715,0.1042,0.134,0.1577,0.1804,0.1885,0.1883,0.1861,0.1822,0.1847,0.1826,0.1828,0.182,0.1822,0.1863,0.1884,0.1885,0.1885,0.1885,0.1885,0.1885,0.1886,0.1892,0.19,0.1905,0.1907,0.1936,0.1936,0.1936,0.1936,0.1936,0.1936,0.1929,0.1886,0.1885,0.1885,0.1884,0.1863,0.1822,0.182,0.1828,0.1816,0.1815,0.1809,0.1805,0.1804,0.1995,0.23,0.2665,0.2889,0.3334,0.4092,0.5096,0.607,0.6932,0.7324,0.7782,0.8394,0.8706,0.8887,0.8888,0.8909,0.8909,0.8909,0.8909,0.8937,0.9023,0.9241,0.9541,0.9871,1.0147,1.0421,1.0637,1.0719,1.0719,1.0719,1.0719,1.0719,1.0719,1.0719,1.0719,1.0719,1.0719,1.0719,1.0719,1.0719,1.0719,1.0719,1.0715,1.0707,1.0743,1.0854,1.0994,1.1081,1.1186,1.1179,1.1262,1.1371,1.1459,1.1486,1.1557,1.1551,1.1546,1.143,1.1289,1.1301,1.1438,1.1731,0.1542,0.1479,0.1139,0.0862,0.0553,0.0215,0.0092,0.0123,0.043,0.0584,0.0704,0.1522,0.1858,0.1885,0.1883,0.1881,0.1881,0.1879,0.1878,0.1881,0.1882,0.1883,0.1889,0.1887,0.1885,0.1887,0.1889,0.1891,0.1893,0.1885,0.191,0.1965,0.1969,0.1997,0.1997,0.1997,0.1998,0.1999,0.1999,0.1941,0.1889,0.1885,0.1885,0.1885,0.1883,0.1881,0.1881,0.1879,0.1877,0.1876,0.1821,0.1807,0.1805,0.1811,0.2105,0.2639,0.2724,0.3225,0.4342,0.5067,0.5687,0.6346,0.6917,0.7522,0.8247,0.8571,0.8767,0.8904,0.8919,0.8933,0.8912,0.8947,0.9064,0.9345,0.941,0.9627,1.0115,1.028,1.0394,1.0665,1.0719,1.0719,1.0719,1.0719,1.0719,1.0719,1.0719,1.0719,1.0719,1.0719,1.0719,1.0719,1.0719,1.0719,1.0719,1.0719,1.0798,1.0989,1.1091,1.1302,1.158,1.1693,1.1648,1.1648,1.1728,1.1726,1.1629,1.1626,1.1763,1.1744,1.1628,1.1485,1.156,1.16,1.1742,0.0896,0.0865,0.034,-0.0093,-0.0371,-0.0525,-0.0587,-0.0556,-0.0247,-0.0093,-0.0031,0.0518,0.1,0.1363,0.153,0.1614,0.1613,0.1834,0.1896,0.1881,0.1883,0.1922,0.1969,0.197,0.197,0.197,0.197,0.197,0.1972,0.1952,0.1964,0.2006,0.2008,0.2008,0.2008,0.2008,0.2008,0.2008,0.2008,0.1994,0.1943,0.197,0.197,0.1967,0.1922,0.1883,0.1881,0.1896,0.1885,0.1885,0.1874,0.1867,0.1867,0.2001,0.2225,0.2456,0.2657,0.3117,0.3982,0.4439,0.5041,0.582,0.645,0.7164,0.8043,0.8535,0.8998,0.9386,0.9315,0.9283,0.9447,0.9398,0.9451,0.9748,0.9876,1.004,1.0253,1.0417,1.0582,1.0692,1.0719,1.0719,1.0719,1.0719,1.0719,1.0719,1.0719,1.0719,1.0719,1.0719,1.0719,1.0719,1.0719,1.0719,1.0719,1.0852,1.0989,1.1126,1.1427,1.1782,1.1905,1.2118,1.2091,1.1987,1.2065,1.2046,1.1919,1.1909,1.198,1.1933,1.182,1.1687,1.1728,1.1714,1.1764,0.0247,0.0,-0.071,-0.1173,-0.1419,-0.1513,-0.1543,-0.1512,-0.1173,-0.0987,-0.0895,-0.0555,-0.0093,0.0462,0.0945,0.1214,0.1334,0.153,0.1652,0.1639,0.167,0.1711,0.1852,0.1853,0.1915,0.2008,0.2006,0.2007,0.2008,0.2008,0.2008,0.2008,0.2008,0.2008,0.2008,0.2008,0.2008,0.2008,0.2008,0.2008,0.2007,0.2008,0.2008,0.2006,0.1956,0.1944,0.1912,0.1922,0.194,0.1911,0.1904,0.1898,0.1898,0.2098,0.2209,0.2328,0.262,0.2972,0.3444,0.3824,0.4441,0.5262,0.5994,0.6857,0.7879,0.8614,0.9277,0.9882,0.9852,0.989,0.9946,0.9878,0.9927,1.0252,1.0375,1.0441,1.0508,1.0686,1.0753,1.0732,1.0719,1.0719,1.0719,1.0719,1.0719,1.0719,1.0719,1.0719,1.0719,1.0719,1.0719,1.0719,1.0719,1.0719,1.0719,1.0911,1.1076,1.1322,1.1678,1.1973,1.2082,1.23,1.2316,1.21,1.2305,1.2315,1.2103,1.2093,1.2123,1.2067,1.1989,1.1853,1.1801,1.1808,1.1803,-0.0339,-0.1048,-0.2004,-0.2406,-0.2466,-0.2746,-0.29,-0.2807,-0.2529,-0.222,-0.1912,-0.1573,-0.1233,-0.0833,0.0,0.0678,0.0955,0.1015,0.1045,0.1047,0.1048,0.1203,0.1513,0.1514,0.1699,0.1946,0.1977,0.1977,0.2008,0.2008,0.2008,0.2008,0.2008,0.2008,0.2008,0.2008,0.2008,0.2008,0.2008,0.2008,0.2008,0.2008,0.2008,0.2007,0.2006,0.2003,0.2003,0.1973,0.2001,0.1972,0.1944,0.1899,0.1897,0.1903,0.2038,0.2272,0.2595,0.2799,0.2919,0.3395,0.4012,0.4743,0.5634,0.6715,0.8004,0.8816,0.952,1.0231,1.0545,1.0621,1.0416,1.0323,1.0409,1.0722,1.0768,1.0821,1.0948,1.0928,1.0875,1.0765,1.0741,1.0768,1.074,1.0719,1.07,1.0724,1.0719,1.0719,1.0719,1.0719,1.0719,1.0719,1.0719,1.0719,1.0747,1.1021,1.1263,1.1537,1.1841,1.2087,1.225,1.2363,1.226,1.2208,1.2334,1.2334,1.2216,1.2165,1.2212,1.2194,1.2164,1.2051,1.1971,1.1843,1.1857,-0.1788,-0.262,-0.2991,-0.3237,-0.339,-0.3513,-0.3575,-0.3544,-0.3269,-0.3085,-0.2929,-0.262,-0.2282,-0.1943,-0.1604,-0.0895,0.0031,0.0247,0.0371,0.0401,0.0587,0.0741,0.0865,0.1081,0.1359,0.1637,0.1668,0.1791,0.2008,0.2008,0.2008,0.2008,0.2008,0.2008,0.2008,0.2008,0.2008,0.2008,0.2008,0.2008,0.2008,0.2008,0.2008,0.2008,0.2008,0.2008,0.2008,0.2008,0.2008,0.2008,0.1997,0.196,0.1959,0.198,0.2005,0.2096,0.2217,0.2398,0.2638,0.3003,0.3641,0.4457,0.542,0.654,0.7854,0.8956,0.9885,1.0536,1.1129,1.1357,1.1244,1.0945,1.0872,1.1153,1.1123,1.1072,1.1094,1.1131,1.1102,1.1049,1.1029,1.0992,1.0919,1.0899,1.085,1.0744,1.0719,1.0732,1.0724,1.0719,1.0712,1.0724,1.0719,1.0747,1.0939,1.1236,1.1537,1.1814,1.2087,1.2223,1.2382,1.2382,1.2307,1.2292,1.2385,1.2385,1.226,1.2269,1.2316,1.2307,1.2277,1.2235,1.2211,1.2107,1.2126,-0.3021,-0.3607,-0.3856,-0.4071,-0.4192,-0.4223,-0.4223,-0.4192,-0.4041,-0.3887,-0.3764,-0.3547,-0.3268,-0.299,-0.2959,-0.2497,-0.1573,-0.0956,-0.0586,-0.0463,-0.0247,-0.0031,0.0185,0.0494,0.0865,0.1173,0.142,0.1668,0.1977,0.2008,0.2008,0.2008,0.2008,0.2008,0.2008,0.2008,0.2008,0.2008,0.2008,0.2008,0.2008,0.2008,0.2008,0.2008,0.2008,0.2008,0.2008,0.2008,0.2008,0.2008,0.2008,0.2008,0.2008,0.2008,0.2008,0.2008,0.2008,0.213,0.2467,0.2837,0.3391,0.4347,0.5325,0.6429,0.7658,0.8909,0.9879,1.0577,1.1246,1.1677,1.1722,1.1449,1.1351,1.1548,1.1476,1.1374,1.1292,1.1284,1.1248,1.1187,1.1167,1.1151,1.1078,1.1086,1.0997,1.0875,1.0863,1.0863,1.0863,1.0863,1.0863,1.0867,1.0887,1.1026,1.1247,1.1534,1.1708,1.1964,1.2169,1.2327,1.2382,1.2382,1.2382,1.2382,1.2382,1.2382,1.2382,1.2382,1.2382,1.2382,1.2358,1.2311,1.2321,1.2354,1.2316,-0.3912,-0.4038,-0.4624,-0.4872,-0.4902,-0.4904,-0.4902,-0.4902,-0.4843,-0.4655,-0.4439,-0.4376,-0.413,-0.3913,-0.3852,-0.3821,-0.3513,-0.2589,-0.1912,-0.1572,-0.1449,-0.1111,-0.0587,-0.0247,0.0185,0.0556,0.1143,0.1637,0.1946,0.1946,0.1977,0.2008,0.2008,0.2008,0.2008,0.2008,0.2008,0.2008,0.2008,0.2008,0.2008,0.2008,0.2008,0.2008,0.2008,0.2008,0.2008,0.2008,0.2008,0.2008,0.2008,0.2008,0.2008,0.2008,0.2008,0.2008,0.2008,0.216,0.2467,0.2837,0.3453,0.4315,0.5297,0.6307,0.7413,0.8574,0.9579,1.0247,1.0944,1.1428,1.1712,1.173,1.1748,1.1772,1.1745,1.1676,1.1541,1.15,1.1435,1.1309,1.1281,1.1207,1.1195,1.1224,1.12,1.1138,1.1126,1.1147,1.1135,1.1131,1.1159,1.1159,1.1131,1.1224,1.1512,1.1826,1.191,1.2037,1.2228,1.2382,1.2382,1.2382,1.2382,1.2382,1.2382,1.2382,1.2382,1.2382,1.2382,1.2382,1.2382,1.2382,1.2382,1.2382,1.2382,-0.4745,-0.4928,-0.5145,-0.5362,-0.5579,-0.5579,-0.5609,-0.5548,-0.5362,-0.5177,-0.5053,-0.4839,-0.4687,-0.4624,-0.4593,-0.4593,-0.4562,-0.413,-0.3608,-0.2899,-0.2405,-0.2097,-0.1789,-0.1295,-0.0617,0.0123,0.0587,0.1112,0.1544,0.1668,0.1761,0.1977,0.2008,0.2008,0.2008,0.2008,0.2008,0.2008,0.2008,0.2008,0.2008,0.2008,0.2008,0.2008,0.2008,0.2008,0.2008,0.2008,0.2008,0.2008,0.2008,0.2008,0.2008,0.2008,0.2008,0.2038,0.2222,0.2375,0.2529,0.3022,0.3639,0.4376,0.5112,0.6125,0.7263,0.8327,0.9207,0.991,1.0759,1.1363,1.1458,1.1677,1.1772,1.1806,1.1806,1.1786,1.1721,1.1709,1.1697,1.1656,1.1631,1.1553,1.1447,1.1411,1.137,1.1269,1.1219,1.1219,1.1207,1.1236,1.1191,1.1191,1.1241,1.1446,1.181,1.208,1.2208,1.2329,1.2501,1.2503,1.248,1.2456,1.2451,1.2382,1.2382,1.2382,1.2382,1.2382,1.2382,1.2382,1.2382,1.2382,1.2382,1.2382,1.2382,-0.5208,-0.5391,-0.5546,-0.5702,-0.5888,-0.5888,-0.5888,-0.5857,-0.5671,-0.5577,-0.5546,-0.5364,-0.5271,-0.5273,-0.5271,-0.5271,-0.5271,-0.5147,-0.4778,-0.4132,-0.336,-0.299,-0.2775,-0.2034,-0.1264,-0.0432,0.0123,0.0587,0.1112,0.139,0.1606,0.1791,0.1946,0.2008,0.2008,0.2008,0.2008,0.2008,0.2008,0.2008,0.2008,0.2008,0.2008,0.2008,0.2008,0.2008,0.2008,0.2008,0.2008,0.2038,0.2099,0.216,0.2191,0.2316,0.2377,0.2408,0.2561,0.2714,0.2868,0.3269,0.3825,0.4501,0.5083,0.582,0.6924,0.7897,0.872,0.942,1.0183,1.091,1.1243,1.1458,1.1647,1.1806,1.1806,1.1806,1.1806,1.1806,1.1802,1.1786,1.179,1.1745,1.1638,1.1598,1.1561,1.1447,1.1427,1.1431,1.1398,1.1439,1.1419,1.1419,1.1464,1.1737,1.2106,1.2323,1.2474,1.2629,1.2819,1.2729,1.2649,1.2621,1.2602,1.2451,1.2382,1.2382,1.2382,1.2382,1.2382,1.2382,1.2382,1.2382,1.2382,1.2382,1.2382,-0.5452,-0.5452,-0.5763,-0.5888,-0.5888,-0.5888,-0.5888,-0.5888,-0.5888,-0.5857,-0.5855,-0.5796,-0.5824,-0.5857,-0.5794,-0.5794,-0.5824,-0.5577,-0.5423,-0.5083,-0.4436,-0.3822,-0.3361,-0.262,-0.188,-0.111,-0.0494,0.0031,0.0463,0.105,0.1483,0.1544,0.1853,0.2008,0.2008,0.2008,0.2008,0.2008,0.2008,0.2008,0.2008,0.2008,0.2008,0.2008,0.2008,0.2038,0.2069,0.213,0.2099,0.2069,0.2345,0.2529,0.259,0.2837,0.293,0.29,0.2991,0.3177,0.3394,0.3517,0.3887,0.4687,0.5054,0.5634,0.6372,0.7289,0.808,0.8717,0.9484,1.0274,1.097,1.1303,1.1458,1.1742,1.1806,1.1806,1.1806,1.1806,1.1806,1.1806,1.1806,1.1802,1.1782,1.1752,1.1774,1.1766,1.1745,1.1729,1.1733,1.1709,1.1774,1.1758,1.1697,1.1946,1.2283,1.2447,1.263,1.3044,1.3145,1.3003,1.2814,1.2776,1.2724,1.2573,1.2419,1.241,1.2387,1.2387,1.2387,1.2382,1.2382,1.2382,1.2382,1.2382,1.2382,-0.5763,-0.5794,-0.5855,-0.5888,-0.5888,-0.5888,-0.5888,-0.5888,-0.5888,-0.5888,-0.5888,-0.5888,-0.5888,-0.5888,-0.5888,-0.5888,-0.5857,-0.5794,-0.5763,-0.5702,-0.5268,-0.4529,-0.3913,-0.3543,-0.2927,-0.2127,-0.1573,-0.1048,-0.0247,0.0463,0.0988,0.1514,0.1791,0.2008,0.2008,0.2008,0.2008,0.2008,0.2008,0.2008,0.2008,0.2008,0.2008,0.2008,0.2008,0.213,0.2345,0.2622,0.2591,0.2406,0.2683,0.2868,0.2868,0.2991,0.3053,0.3085,0.3239,0.3394,0.3517,0.3671,0.4042,0.447,0.4653,0.5053,0.5976,0.6709,0.7439,0.8172,0.9119,1.0004,1.0547,1.1031,1.1398,1.1742,1.1806,1.1806,1.1806,1.1806,1.1806,1.1806,1.1806,1.1806,1.1806,1.1806,1.1806,1.1806,1.1806,1.1806,1.1806,1.1806,1.1806,1.1806,1.183,1.2148,1.2397,1.253,1.2849,1.3406,1.3501,1.3363,1.3122,1.2894,1.2823,1.2724,1.2579,1.2546,1.2466,1.2418,1.2414,1.241,1.2382,1.2382,1.2382,1.2382,1.2382,-0.5888,-0.5888,-0.5888,-0.5888,-0.5888,-0.5888,-0.5888,-0.5888,-0.5888,-0.5888,-0.5888,-0.5888,-0.5888,-0.5888,-0.5888,-0.5888,-0.5888,-0.5888,-0.5888,-0.5855,-0.5669,-0.5116,-0.4438,-0.4098,-0.3605,-0.3052,-0.2343,-0.1695,-0.1048,-0.0185,0.0556,0.105,0.1544,0.1853,0.2008,0.2008,0.2008,0.2008,0.2008,0.2008,0.2008,0.2008,0.2008,0.2038,0.213,0.2376,0.2714,0.3022,0.3053,0.2868,0.3022,0.3208,0.3239,0.3331,0.3362,0.3393,0.3548,0.3671,0.3702,0.3826,0.4041,0.4316,0.4407,0.4838,0.5607,0.628,0.6952,0.7686,0.8757,0.9609,1.0308,1.1035,1.1522,1.1772,1.1806,1.1806,1.1806,1.1806,1.1806,1.1806,1.1806,1.1806,1.1806,1.1806,1.1806,1.1806,1.1806,1.1806,1.1806,1.1806,1.1837,1.1833,1.1923,1.2178,1.2466,1.2663,1.2958,1.3506,1.3666,1.3562,1.3354,1.307,1.2975,1.2894,1.2762,1.2645,1.2588,1.2527,1.2499,1.2494,1.2447,1.2387,1.2387,1.2382,1.2382,-0.5888,-0.5888,-0.5888,-0.5888,-0.5888,-0.5888,-0.5888,-0.5888,-0.5888,-0.5888,-0.5888,-0.5888,-0.5888,-0.5888,-0.5888,-0.5888,-0.5888,-0.5888,-0.5888,-0.5888,-0.5824,-0.5515,-0.4995,-0.4499,-0.4098,-0.376,-0.2713,-0.222,-0.1727,-0.074,0.0,0.0556,0.1143,0.1606,0.1853,0.1977,0.2008,0.2008,0.2008,0.2008,0.2008,0.2008,0.2038,0.216,0.25,0.2776,0.3085,0.3331,0.3394,0.3115,0.3362,0.3517,0.3579,0.3765,0.3857,0.3857,0.3826,0.3857,0.3888,0.3888,0.4011,0.4256,0.4347,0.4653,0.5329,0.6004,0.674,0.7413,0.8305,0.9369,1.0338,1.125,1.1712,1.1806,1.1806,1.1806,1.1806,1.1806,1.1806,1.1806,1.1806,1.1806,1.1806,1.1806,1.1806,1.1806,1.1806,1.1806,1.1833,1.1889,1.1919,1.1923,1.2044,1.2191,1.2483,1.2779,1.3135,1.3559,1.3649,1.3608,1.3485,1.3277,1.3188,1.3084,1.2956,1.2876,1.2814,1.2753,1.2696,1.2606,1.2546,1.248,1.2423,1.2387,1.2382,-0.5888,-0.5888,-0.5888,-0.5888,-0.5888,-0.5888,-0.5888,-0.5888,-0.5888,-0.5888,-0.5888,-0.5888,-0.5888,-0.5888,-0.5888,-0.5888,-0.5888,-0.5888,-0.5888,-0.5888,-0.5888,-0.5824,-0.5579,-0.5206,-0.4776,-0.4313,-0.379,-0.3113,-0.2343,-0.1573,-0.071,0.0093,0.0741,0.1266,0.1606,0.1884,0.2008,0.2008,0.2008,0.2008,0.2008,0.2038,0.216,0.2437,0.293,0.3269,0.3425,0.3671,0.3765,0.3734,0.3734,0.3796,0.3796,0.3857,0.3919,0.3919,0.3919,0.3919,0.3919,0.3919,0.395,0.4042,0.4286,0.4562,0.4995,0.5882,0.6648,0.7385,0.8305,0.9427,1.0547,1.1375,1.1746,1.1806,1.1806,1.1806,1.1806,1.1806,1.1806,1.1806,1.1806,1.1806,1.1806,1.1806,1.1806,1.1806,1.1806,1.1806,1.1889,1.1975,1.2066,1.2096,1.2277,1.2457,1.2758,1.3024,1.3294,1.3569,1.3658,1.3684,1.3561,1.348,1.3387,1.3278,1.3145,1.3079,1.306,1.3022,1.2947,1.2814,1.2673,1.2602,1.2513,1.247,1.2382,-0.5888,-0.5888,-0.5888,-0.5888,-0.5888,-0.5888,-0.5888,-0.5888,-0.5888,-0.5888,-0.5888,-0.5888,-0.5888,-0.5888,-0.5888,-0.5888,-0.5888,-0.5888,-0.5888,-0.5888,-0.5888,-0.5888,-0.5888,-0.5702,-0.5362,-0.4838,-0.416,-0.3574,-0.302,-0.2188,-0.1295,-0.0463,0.0339,0.1019,0.1483,0.1822,0.2008,0.2008,0.2008,0.2008,0.2008,0.2161,0.25,0.29,0.3331,0.3548,0.3702,0.3796,0.3888,0.3919,0.3919,0.3919,0.3919,0.3919,0.3919,0.3919,0.3919,0.3919,0.3919,0.3919,0.3919,0.3919,0.4224,0.4562,0.5025,0.5822,0.6648,0.7444,0.8455,0.9609,1.088,1.1466,1.1772,1.1806,1.1806,1.1806,1.1806,1.1806,1.1806,1.1806,1.1806,1.1806,1.1806,1.1806,1.1806,1.1806,1.1806,1.1837,1.2036,1.2152,1.2298,1.2393,1.2543,1.2784,1.3089,1.3294,1.3474,1.3629,1.3688,1.3688,1.3641,1.3589,1.3567,1.3477,1.3362,1.332,1.3302,1.3264,1.3174,1.3008,1.2866,1.2729,1.2621,1.2508,1.2447,-0.5888,-0.5888,-0.5888,-0.5888,-0.5888,-0.5888,-0.5888,-0.5888,-0.5888,-0.5888,-0.5888,-0.5888,-0.5888,-0.5888,-0.5888,-0.5888,-0.5888,-0.5888,-0.5888,-0.5888,-0.5888,-0.5888,-0.5888,-0.5824,-0.5702,-0.5391,-0.4592,-0.4037,-0.3543,-0.2743,-0.1849,-0.1079,-0.0154,0.0587,0.1235,0.173,0.1946,0.2008,0.2008,0.2069,0.213,0.2376,0.2776,0.3301,0.3548,0.3671,0.3826,0.3888,0.3919,0.3919,0.3919,0.3919,0.3919,0.3919,0.3919,0.3919,0.3919,0.3919,0.3919,0.3919,0.3919,0.3919,0.4287,0.4624,0.5116,0.5945,0.6834,0.778,0.8818,1.0061,1.1152,1.1587,1.1772,1.1806,1.1806,1.1806,1.1806,1.1806,1.1806,1.1806,1.1806,1.1806,1.1806,1.1806,1.1806,1.1806,1.1806,1.1893,1.2092,1.2328,1.2479,1.2749,1.2964,1.3084,1.3359,1.3449,1.3624,1.3658,1.3688,1.3688,1.3688,1.3685,1.3652,1.368,1.3594,1.3528,1.351,1.3472,1.3349,1.3169,1.3003,1.2875,1.2715,1.2578,1.2475,-0.5888,-0.5888,-0.5888,-0.5888,-0.5888,-0.5888,-0.5888,-0.5888,-0.5888,-0.5888,-0.5888,-0.5888,-0.5888,-0.5888,-0.5888,-0.5888,-0.5888,-0.5888,-0.5888,-0.5888,-0.5888,-0.5888,-0.5888,-0.5888,-0.5824,-0.5671,-0.5025,-0.4407,-0.3913,-0.3175,-0.2466,-0.1758,-0.0802,0.0031,0.071,0.1266,0.173,0.1946,0.2038,0.2161,0.2345,0.256,0.2899,0.3486,0.3703,0.3826,0.3857,0.3919,0.3919,0.3919,0.3919,0.3919,0.3919,0.3919,0.3919,0.3919,0.3919,0.3919,0.3919,0.3919,0.3919,0.4042,0.4441,0.4931,0.5423,0.6219,0.7171,0.8358,0.9542,1.0728,1.1243,1.1617,1.1772,1.1806,1.1806,1.1806,1.1806,1.1806,1.1806,1.1806,1.1806,1.1806,1.1806,1.1806,1.1806,1.1806,1.1806,1.1979,1.2242,1.2509,1.2749,1.305,1.3384,1.3509,1.3658,1.3629,1.3688,1.3688,1.3688,1.3688,1.3688,1.3688,1.3688,1.3688,1.3688,1.3641,1.3643,1.3633,1.3548,1.3348,1.3188,1.2989,1.281,1.2658,1.2466,-0.5888,-0.5888,-0.5888,-0.5888,-0.5888,-0.5888,-0.5888,-0.5888,-0.5888,-0.5888,-0.5888,-0.5888,-0.5888,-0.5888,-0.5888,-0.5888,-0.5888,-0.5888,-0.5888,-0.5888,-0.5888,-0.5888,-0.5888,-0.5888,-0.5888,-0.5703,-0.5212,-0.4779,-0.4376,-0.379,-0.3021,-0.219,-0.1264,-0.0432,0.0278,0.1112,0.1514,0.1791,0.2068,0.2345,0.2559,0.2775,0.3269,0.3609,0.3826,0.3888,0.3919,0.3919,0.3919,0.3919,0.3919,0.3919,0.3919,0.3919,0.3919,0.3919,0.3919,0.3919,0.3919,0.3919,0.3919,0.398,0.4535,0.5024,0.5546,0.6342,0.7569,0.8937,0.9967,1.1001,1.1526,1.1712,1.1806,1.1806,1.1806,1.1806,1.1806,1.1806,1.1806,1.1806,1.1806,1.1806,1.1806,1.1806,1.1806,1.1806,1.1806,1.204,1.2333,1.2599,1.284,1.3264,1.3569,1.3629,1.3688,1.3688,1.3688,1.3688,1.3688,1.3688,1.3688,1.3688,1.3688,1.3688,1.3688,1.3688,1.3679,1.3676,1.3599,1.3528,1.3273,1.307,1.2918,1.2734,1.2532,-0.5888,-0.5888,-0.5888,-0.5888,-0.5888,-0.5888,-0.5888,-0.5888,-0.5888,-0.5888,-0.5888,-0.5888,-0.5888,-0.5888,-0.5888,-0.5888,-0.5888,-0.5888,-0.5888,-0.5888,-0.5888,-0.5888,-0.5888,-0.5888,-0.5855,-0.5671,-0.5333,-0.4964,-0.4685,-0.4069,-0.336,-0.2528,-0.1572,-0.0771,-0.0062,0.0865,0.1266,0.1759,0.216,0.2497,0.2806,0.3239,0.3671,0.3888,0.3919,0.3919,0.3919,0.3919,0.3919,0.3919,0.3919,0.3919,0.3919,0.3919,0.3919,0.3919,0.3919,0.3919,0.3919,0.3919,0.3919,0.395,0.4535,0.5054,0.579,0.6771,0.8061,0.9518,1.0395,1.1065,1.1621,1.1806,1.1806,1.1806,1.1806,1.1806,1.1806,1.1806,1.1806,1.1806,1.1806,1.1806,1.1806,1.1806,1.1806,1.1806,1.1806,1.201,1.2303,1.2569,1.287,1.3384,1.3688,1.3688,1.3688,1.3688,1.3688,1.3688,1.3688,1.3688,1.3688,1.3688,1.3688,1.3688,1.3688,1.3688,1.3688,1.3688,1.3651,1.3542,1.334,1.3155,1.3013,1.2795,1.2597,-0.5888,-0.5888,-0.5888,-0.5888,-0.5888,-0.5888,-0.5888,-0.5888,-0.5888,-0.5888,-0.5888,-0.5888,-0.5888,-0.5888,-0.5888,-0.5888,-0.5888,-0.5888,-0.5888,-0.5888,-0.5888,-0.5888,-0.5888,-0.5888,-0.5702,-0.5515,-0.5329,-0.5147,-0.4749,-0.401,-0.3393,-0.2775,-0.1942,-0.111,-0.0401,0.0618,0.1327,0.1882,0.2312,0.2806,0.33,0.364,0.3826,0.3888,0.3919,0.3919,0.3919,0.3919,0.3919,0.3919,0.3919,0.3919,0.3919,0.3919,0.3919,0.3919,0.3919,0.3919,0.3919,0.3919,0.3919,0.4011,0.4535,0.5176,0.6096,0.7413,0.876,0.964,1.0395,1.1035,1.1591,1.1772,1.1806,1.1806,1.1806,1.1806,1.1806,1.1806,1.1806,1.1806,1.1806,1.1806,1.1806,1.1806,1.1806,1.1806,1.1863,1.2036,1.2272,1.2569,1.296,1.3474,1.3688,1.3688,1.3688,1.3688,1.3688,1.3688,1.3688,1.3688,1.3688,1.3688,1.3688,1.3688,1.3688,1.3688,1.3688,1.3688,1.3688,1.3619,1.3434,1.3273,1.3117,1.2904,1.2644,-0.5888,-0.5888,-0.5888,-0.5888,-0.5888,-0.5888,-0.5888,-0.5888,-0.5888,-0.5888,-0.5888,-0.5888,-0.5888,-0.5888,-0.5888,-0.5888,-0.5888,-0.5888,-0.5888,-0.5857,-0.5857,-0.5857,-0.5855,-0.5702,-0.5485,-0.5329,-0.5053,-0.4747,-0.4441,-0.4193,-0.373,-0.2929,-0.2189,-0.145,-0.0679,0.0432,0.1172,0.1819,0.2528,0.3239,0.364,0.3826,0.3919,0.3919,0.3919,0.3919,0.3919,0.3919,0.3919,0.3919,0.3919,0.3919,0.3919,0.3919,0.3919,0.3919,0.3919,0.3919,0.3919,0.3919,0.3919,0.4073,0.4564,0.5331,0.6434,0.7689,0.8879,0.9457,1.0304,1.097,1.1462,1.1682,1.1772,1.1806,1.1806,1.1806,1.1806,1.1806,1.1806,1.1806,1.1806,1.1806,1.1806,1.1806,1.1806,1.1806,1.1863,1.1979,1.2333,1.2749,1.314,1.3569,1.3688,1.3688,1.3688,1.3688,1.3688,1.3688,1.3688,1.3688,1.3688,1.3688,1.3688,1.3688,1.3688,1.3688,1.3688,1.3688,1.3688,1.3643,1.3553,1.3396,1.3231,1.2946,1.2724,-0.5888,-0.5888,-0.5888,-0.5888,-0.5888,-0.5888,-0.5888,-0.5888,-0.5888,-0.5888,-0.5888,-0.5888,-0.5888,-0.5888,-0.5888,-0.5824,-0.5763,-0.5763,-0.5702,-0.5702,-0.564,-0.5609,-0.5517,-0.5364,-0.5206,-0.5143,-0.4715,-0.4409,-0.4316,-0.4132,-0.3731,-0.2991,-0.2436,-0.1696,-0.0864,0.0185,0.1172,0.2097,0.3054,0.364,0.3826,0.3888,0.3919,0.3919,0.3919,0.3919,0.3919,0.3919,0.3919,0.3919,0.3919,0.3919,0.3919,0.3919,0.3919,0.3919,0.3919,0.3919,0.3919,0.3919,0.3919,0.4134,0.4656,0.5546,0.6714,0.775,0.8601,0.9275,1.0126,1.0759,1.1243,1.1617,1.1772,1.1806,1.1806,1.1806,1.1806,1.1806,1.1806,1.1806,1.1806,1.1806,1.1806,1.1806,1.1806,1.1806,1.1863,1.1984,1.2367,1.284,1.3234,1.3629,1.3688,1.3688,1.3688,1.3688,1.3688,1.3688,1.3688,1.3688,1.3688,1.3688,1.3688,1.3688,1.3688,1.3688,1.3688,1.3688,1.3688,1.3671,1.3609,1.3515,1.333,1.3041,1.2804,-0.5888,-0.5888,-0.5888,-0.5888,-0.5888,-0.5888,-0.5888,-0.5888,-0.5888,-0.5888,-0.5888,-0.5888,-0.5888,-0.5888,-0.5824,-0.5702,-0.5452,-0.5421,-0.53,-0.5118,-0.4966,-0.5087,-0.5058,-0.4995,-0.4808,-0.4592,-0.4378,-0.4195,-0.401,-0.3979,-0.3548,-0.2991,-0.259,-0.1851,-0.0895,0.0247,0.1511,0.2498,0.3455,0.3796,0.3888,0.3919,0.3919,0.3919,0.3919,0.3919,0.3919,0.3919,0.3919,0.3919,0.3919,0.3919,0.3919,0.3919,0.3919,0.3919,0.3919,0.3919,0.3919,0.3919,0.3919,0.4195,0.4747,0.5638,0.6624,0.7477,0.8299,0.9122,0.9879,1.0577,1.1122,1.1583,1.1712,1.1806,1.1806,1.1806,1.1806,1.1806,1.1806,1.1806,1.1806,1.1806,1.1806,1.1806,1.1806,1.1806,1.1949,1.207,1.2487,1.293,1.3294,1.3599,1.3658,1.3688,1.3688,1.3688,1.3688,1.3688,1.3688,1.3688,1.3688,1.3688,1.3688,1.3688,1.3688,1.3688,1.3688,1.3688,1.3688,1.3688,1.3641,1.3572,1.342,1.3164,1.2951,-0.5888,-0.5888,-0.5888,-0.5888,-0.5888,-0.5888,-0.5888,-0.5888,-0.5888,-0.5888,-0.5888,-0.5888,-0.5888,-0.5855,-0.5669,-0.5546,-0.536,-0.5148,-0.4996,-0.4935,-0.4904,-0.4902,-0.4841,-0.4687,-0.4532,-0.4378,-0.4225,-0.4073,-0.3919,-0.3734,-0.3425,-0.3022,-0.2651,-0.1913,-0.0895,0.0494,0.1881,0.2775,0.3548,0.3888,0.3919,0.3919,0.3919,0.3919,0.3919,0.3919,0.3919,0.3919,0.3919,0.3919,0.3919,0.3919,0.3919,0.3919,0.3919,0.3919,0.3919,0.3919,0.3919,0.3919,0.398,0.4286,0.4778,0.5454,0.6318,0.7079,0.7872,0.8693,0.9481,1.0213,1.088,1.1307,1.1553,1.1712,1.1837,1.1833,1.1863,1.1893,1.1923,1.1984,1.1893,1.1806,1.1806,1.1806,1.1806,1.1837,1.1979,1.2216,1.2664,1.3024,1.3389,1.3599,1.3688,1.3688,1.3688,1.3688,1.3688,1.3688,1.3688,1.3688,1.3688,1.3688,1.3688,1.3688,1.3688,1.3688,1.3688,1.3688,1.3688,1.3688,1.3655,1.3594,1.3453,1.3273,1.3107,-0.5888,-0.5888,-0.5888,-0.5888,-0.5888,-0.5888,-0.5888,-0.5888,-0.5888,-0.5888,-0.5888,-0.5888,-0.5824,-0.5702,-0.5546,-0.5237,-0.5053,-0.4839,-0.4718,-0.4596,-0.4535,-0.4596,-0.4502,-0.441,-0.4225,-0.4164,-0.3979,-0.3765,-0.3734,-0.3486,-0.3146,-0.2837,-0.259,-0.1913,-0.0802,0.0833,0.222,0.296,0.3455,0.3857,0.3857,0.3919,0.3919,0.3919,0.3919,0.3919,0.3919,0.3919,0.3919,0.3919,0.3919,0.3919,0.3919,0.3919,0.3919,0.3919,0.3919,0.3919,0.3919,0.3919,0.4041,0.4347,0.4532,0.5148,0.5855,0.6591,0.7199,0.8236,0.9028,0.9819,1.0547,1.1061,1.1462,1.1712,1.1945,1.2005,1.2066,1.2096,1.2126,1.2186,1.21,1.213,1.216,1.2186,1.21,1.213,1.2277,1.2513,1.2874,1.3204,1.3449,1.3629,1.3688,1.3688,1.3688,1.3688,1.3688,1.3688,1.3688,1.3688,1.3688,1.3688,1.3688,1.3688,1.3688,1.3688,1.3688,1.3688,1.3688,1.3688,1.366,1.3627,1.3556,1.3395,1.3254,-0.5888,-0.5888,-0.5888,-0.5888,-0.5888,-0.5888,-0.5888,-0.5888,-0.5888,-0.5888,-0.5888,-0.5888,-0.5702,-0.5485,-0.5329,-0.4991,-0.4622,-0.447,-0.4318,-0.4134,-0.4104,-0.4013,-0.395,-0.3919,-0.3887,-0.3857,-0.364,-0.3486,-0.3486,-0.3177,-0.2837,-0.259,-0.2375,-0.1882,-0.0895,0.0647,0.1973,0.2868,0.3331,0.364,0.3857,0.3919,0.3919,0.3919,0.3919,0.3919,0.3919,0.3919,0.3919,0.3919,0.3919,0.3919,0.3919,0.3919,0.3919,0.3919,0.3919,0.3919,0.3919,0.3919,0.4073,0.4318,0.447,0.4931,0.5609,0.6101,0.662,0.7808,0.8538,0.9329,1.0119,1.088,1.1311,1.1764,1.2031,1.2178,1.2242,1.2333,1.2363,1.2393,1.2539,1.2659,1.2659,1.2599,1.2449,1.2449,1.2569,1.281,1.308,1.3354,1.3569,1.3629,1.3688,1.3688,1.3688,1.3688,1.3688,1.3688,1.3688,1.3688,1.3688,1.3688,1.3688,1.3688,1.3688,1.3688,1.3688,1.3688,1.3688,1.3688,1.3688,1.366,1.3613,1.3547,1.3405,-0.5888,-0.5888,-0.5888,-0.5888,-0.5888,-0.5888,-0.5888,-0.5888,-0.5888,-0.5888,-0.5824,-0.5702,-0.5546,-0.5329,-0.493,-0.4622,-0.4409,-0.4102,-0.395,-0.3919,-0.3888,-0.3765,-0.3671,-0.3609,-0.3548,-0.3331,-0.3208,-0.3177,-0.3146,-0.2837,-0.2683,-0.2467,-0.2036,-0.142,-0.0494,0.074,0.1911,0.262,0.3177,0.3609,0.3857,0.3919,0.3919,0.3919,0.3919,0.3919,0.3919,0.3919,0.3919,0.3919,0.3919,0.3919,0.3919,0.3919,0.3919,0.3919,0.3919,0.3919,0.3919,0.3919,0.3919,0.4164,0.4501,0.4808,0.5241,0.5945,0.6648,0.7413,0.8144,0.9055,1.0092,1.0668,1.1186,1.1911,1.2208,1.2359,1.2449,1.2569,1.2629,1.2599,1.2685,1.2745,1.2775,1.293,1.284,1.287,1.2964,1.2994,1.3234,1.3449,1.3658,1.3688,1.3688,1.3688,1.3688,1.3688,1.3688,1.3688,1.3688,1.3688,1.3688,1.3688,1.3688,1.3688,1.3688,1.3688,1.3688,1.3688,1.3688,1.3688,1.3688,1.3688,1.3655,1.3613,1.3576,-0.5888,-0.5888,-0.5888,-0.5888,-0.5888,-0.5888,-0.5888,-0.5888,-0.5794,-0.5732,-0.564,-0.5362,-0.5147,-0.4931,-0.4655,-0.4286,-0.4225,-0.4011,-0.3796,-0.3796,-0.3765,-0.3548,-0.3393,-0.33,-0.3239,-0.2992,-0.2868,-0.2837,-0.2807,-0.2498,-0.2345,-0.216,-0.179,-0.1297,-0.0494,0.0463,0.1573,0.2344,0.3022,0.3486,0.3765,0.3919,0.3919,0.3919,0.3919,0.3919,0.3919,0.3919,0.3919,0.3919,0.3919,0.3919,0.3919,0.3919,0.3919,0.3919,0.3919,0.3919,0.3919,0.4071,0.4102,0.4164,0.4533,0.4749,0.4964,0.5575,0.6344,0.7108,0.7841,0.8876,0.9879,1.0425,1.1273,1.1997,1.2479,1.2599,1.2779,1.29,1.305,1.302,1.299,1.299,1.299,1.311,1.3204,1.3294,1.3384,1.3359,1.3359,1.3539,1.3688,1.3688,1.3688,1.3688,1.3688,1.3688,1.3688,1.3688,1.3688,1.3688,1.3688,1.3688,1.3688,1.3688,1.3688,1.3688,1.3688,1.3688,1.3688,1.3688,1.3688,1.3688,1.3688,1.369,1.3647,-0.5888,-0.5888,-0.5888,-0.5888,-0.5888,-0.5794,-0.5826,-0.5855,-0.5515,-0.5391,-0.536,-0.5025,-0.4778,-0.4499,-0.4376,-0.4193,-0.3979,-0.3888,-0.3734,-0.3548,-0.3486,-0.3269,-0.3085,-0.296,-0.2869,-0.2807,-0.2684,-0.2499,-0.2468,-0.2253,-0.2099,-0.2007,-0.176,-0.1328,-0.0741,0.0093,0.1172,0.2066,0.2837,0.3331,0.3702,0.3888,0.3888,0.3919,0.3919,0.3919,0.3919,0.3919,0.3919,0.3919,0.3919,0.3919,0.3919,0.3919,0.3919,0.3919,0.3919,0.3919,0.395,0.4164,0.4316,0.4316,0.4501,0.4655,0.4993,0.5454,0.6129,0.6896,0.7627,0.8665,0.9609,1.0547,1.1454,1.2118,1.2749,1.299,1.3204,1.3354,1.3539,1.3569,1.3539,1.3539,1.3474,1.3539,1.3444,1.3509,1.3539,1.3569,1.3569,1.3569,1.3688,1.3688,1.3688,1.3688,1.3688,1.3688,1.3688,1.3688,1.3688,1.3688,1.3688,1.3688,1.3688,1.3688,1.3688,1.3688,1.3688,1.3688,1.3688,1.3688,1.3688,1.3688,1.3688,1.3688,1.3685,-0.5888,-0.5888,-0.5888,-0.5763,-0.5515,-0.5271,-0.5331,-0.5485,-0.5208,-0.5054,-0.5024,-0.4685,-0.447,-0.4376,-0.4164,-0.398,-0.3857,-0.3734,-0.3609,-0.3455,-0.3208,-0.296,-0.2745,-0.2621,-0.253,-0.2376,-0.2223,-0.2191,-0.2161,-0.2008,-0.2008,-0.1977,-0.1884,-0.1514,-0.0926,-0.0247,0.0771,0.1758,0.256,0.3177,0.3579,0.3796,0.3857,0.3919,0.3919,0.3919,0.3919,0.3919,0.3919,0.3919,0.3919,0.3919,0.3919,0.3919,0.3919,0.3919,0.3919,0.3919,0.395,0.4225,0.4407,0.4561,0.4807,0.5083,0.5331,0.5609,0.6101,0.6806,0.7505,0.8513,0.9545,1.0516,1.1454,1.2238,1.2779,1.3114,1.3324,1.3569,1.3688,1.3688,1.3688,1.3688,1.3688,1.3688,1.3599,1.3658,1.3688,1.3688,1.3688,1.3688,1.3688,1.3688,1.3688,1.3688,1.3688,1.3688,1.3688,1.3688,1.3688,1.3688,1.3688,1.3688,1.3688,1.3688,1.3688,1.3688,1.3688,1.3688,1.3688,1.3688,1.3688,1.3688,1.3688,1.3688,1.3688,-0.5517,-0.5486,-0.5519,-0.5394,-0.5147,-0.4841,-0.4839,-0.496,-0.4778,-0.4718,-0.4655,-0.4347,-0.4195,-0.4133,-0.3887,-0.3734,-0.3702,-0.3425,-0.3208,-0.2991,-0.2929,-0.2622,-0.2406,-0.2315,-0.2222,-0.2069,-0.2008,-0.2038,-0.2008,-0.2008,-0.2008,-0.2008,-0.2008,-0.1606,-0.1019,-0.0432,0.0309,0.1357,0.2313,0.3054,0.3455,0.3734,0.3857,0.3919,0.3919,0.3919,0.3919,0.3919,0.3919,0.3919,0.3919,0.3919,0.3919,0.3919,0.3919,0.3919,0.3919,0.3919,0.398,0.4349,0.4532,0.4747,0.5177,0.5485,0.5638,0.5794,0.6285,0.6837,0.7536,0.8327,0.9393,1.0456,1.1424,1.2359,1.2749,1.314,1.3384,1.3658,1.3688,1.3688,1.3688,1.3688,1.3688,1.3688,1.3688,1.3688,1.3688,1.3688,1.3688,1.3688,1.3688,1.3688,1.3688,1.3688,1.3688,1.3688,1.3688,1.3688,1.3688,1.3688,1.3688,1.3688,1.3688,1.3688,1.3688,1.3688,1.3688,1.3688,1.3688,1.3688,1.3688,1.3688,1.3688,1.3688,1.3688,-0.4935,-0.4904,-0.4872,-0.4872,-0.481,-0.4501,-0.4378,-0.4378,-0.4378,-0.4376,-0.4287,-0.4042,-0.3919,-0.3856,-0.364,-0.3517,-0.3362,-0.3115,-0.2837,-0.2528,-0.2499,-0.2315,-0.213,-0.2008,-0.2069,-0.2038,-0.2008,-0.2008,-0.2008,-0.2008,-0.2008,-0.2008,-0.2008,-0.1699,-0.1143,-0.0649,0.0093,0.0987,0.2128,0.3053,0.3394,0.3702,0.3919,0.3919,0.3919,0.3919,0.3919,0.3919,0.3919,0.3919,0.3919,0.3919,0.3919,0.3919,0.3919,0.3919,0.3919,0.3919,0.4073,0.4472,0.4749,0.5056,0.5517,0.5732,0.5855,0.5978,0.6405,0.6867,0.7538,0.833,0.9302,1.0274,1.1209,1.2083,1.2659,1.311,1.3539,1.3688,1.3688,1.3688,1.3688,1.3688,1.3688,1.3688,1.3688,1.3688,1.3688,1.3688,1.3688,1.3688,1.3688,1.3688,1.3688,1.3688,1.3688,1.3688,1.3688,1.3688,1.3688,1.3688,1.3688,1.3688,1.3688,1.3688,1.3688,1.3688,1.3688,1.3688,1.3688,1.3688,1.3688,1.3688,1.3688,1.3688,1.3688,-0.4904,-0.4872,-0.4624,-0.4501,-0.447,-0.4164,-0.4042,-0.4011,-0.4011,-0.4011,-0.398,-0.3919,-0.3765,-0.3579,-0.3486,-0.3331,-0.3085,-0.2807,-0.2621,-0.2406,-0.2284,-0.2161,-0.2007,-0.2008,-0.2008,-0.2008,-0.2008,-0.2008,-0.2008,-0.2008,-0.2008,-0.2008,-0.2008,-0.1761,-0.1328,-0.0834,-0.0123,0.071,0.1882,0.2775,0.3177,0.3609,0.3919,0.3919,0.3919,0.3919,0.3919,0.3919,0.3919,0.3919,0.3919,0.3919,0.3919,0.3919,0.3919,0.3919,0.3919,0.3919,0.4104,0.4472,0.4841,0.5119,0.5427,0.5734,0.5947,0.616,0.6495,0.6957,0.7569,0.836,0.915,1.0092,1.0967,1.1782,1.2565,1.308,1.3629,1.3688,1.3688,1.3688,1.3688,1.3688,1.3688,1.3688,1.3688,1.3688,1.3688,1.3688,1.3688,1.3688,1.3688,1.3688,1.3688,1.3688,1.3688,1.3688,1.3688,1.3688,1.3688,1.3688,1.3688,1.3688,1.3688,1.3688,1.3688,1.3688,1.3688,1.3688,1.3688,1.3688,1.3688,1.3688,1.3688,1.3688,1.3688,-0.4473,-0.4441,-0.4256,-0.4195,-0.4133,-0.395,-0.3857,-0.3734,-0.3703,-0.364,-0.3548,-0.3609,-0.3548,-0.3239,-0.3146,-0.3023,-0.2746,-0.2438,-0.2315,-0.2191,-0.2161,-0.2069,-0.2008,-0.2008,-0.2008,-0.2008,-0.2008,-0.2008,-0.2008,-0.2008,-0.2008,-0.2008,-0.1977,-0.1822,-0.1452,-0.0926,-0.0278,0.0525,0.1696,0.2467,0.296,0.3517,0.3888,0.3919,0.3919,0.3919,0.3919,0.3919,0.3919,0.3919,0.3919,0.3919,0.3919,0.3919,0.3919,0.3919,0.3919,0.3919,0.4104,0.4442,0.4904,0.5119,0.5519,0.5857,0.6193,0.6405,0.6622,0.7084,0.7536,0.8297,0.894,0.9792,1.0637,1.145,1.2174,1.2779,1.3324,1.3688,1.3688,1.3688,1.3688,1.3688,1.3688,1.3688,1.3688,1.3688,1.3688,1.3688,1.3688,1.3688,1.3688,1.3688,1.3688,1.3688,1.3688,1.3688,1.3688,1.3688,1.3688,1.3688,1.3688,1.3688,1.3688,1.3688,1.3688,1.3688,1.3688,1.3688,1.3688,1.3688,1.3688,1.3688,1.3688,1.3688,1.3688,-0.3919,-0.3919,-0.3857,-0.3857,-0.3826,-0.3796,-0.364,-0.3455,-0.3425,-0.3239,-0.3022,-0.3239,-0.3177,-0.2899,-0.2652,-0.2529,-0.2376,-0.2191,-0.2069,-0.2038,-0.2038,-0.2008,-0.2008,-0.2008,-0.2008,-0.2008,-0.2008,-0.2008,-0.2008,-0.2008,-0.2008,-0.2008,-0.1946,-0.1853,-0.1544,-0.1112,-0.0525,0.0401,0.1419,0.2312,0.296,0.3548,0.3796,0.3919,0.3919,0.3919,0.3919,0.3919,0.3919,0.3919,0.3919,0.3919,0.3919,0.3919,0.3919,0.3919,0.3919,0.395,0.4104,0.4566,0.4843,0.5119,0.5609,0.6039,0.6344,0.6622,0.6839,0.7204,0.7658,0.8147,0.879,0.943,1.0243,1.1182,1.1877,1.2599,1.3144,1.3658,1.3688,1.3688,1.3688,1.3688,1.3688,1.3688,1.3688,1.3688,1.3688,1.3688,1.3688,1.3688,1.3688,1.3688,1.3688,1.3688,1.3688,1.3688,1.3688,1.3688,1.3688,1.3688,1.3688,1.3688,1.3688,1.3688,1.3688,1.3688,1.3688,1.3688,1.3688,1.3688,1.3688,1.3688,1.3688,1.3688,1.3688,-0.3919,-0.3888,-0.3671,-0.3579,-0.3548,-0.33,-0.3146,-0.3115,-0.3085,-0.2899,-0.2683,-0.2652,-0.262,-0.259,-0.2559,-0.2406,-0.2161,-0.2007,-0.2008,-0.2008,-0.2008,-0.2008,-0.2008,-0.2008,-0.2008,-0.2008,-0.2008,-0.2008,-0.2008,-0.2008,-0.2008,-0.2008,-0.2008,-0.1946,-0.1822,-0.1297,-0.0618,0.0309,0.1296,0.2281,0.296,0.3486,0.3826,0.3919,0.3919,0.3919,0.3919,0.3919,0.3919,0.3919,0.3919,0.3919,0.3919,0.3919,0.3919,0.3919,0.3919,0.4041,0.4287,0.4656,0.4902,0.527,0.573,0.6068,0.6375,0.6716,0.6992,0.7355,0.775,0.8027,0.8577,0.9034,0.9761,1.097,1.1877,1.2573,1.3209,1.3509,1.3658,1.3688,1.3688,1.3688,1.3688,1.3688,1.3688,1.3688,1.3688,1.3688,1.3688,1.3688,1.3688,1.3688,1.3688,1.3688,1.3688,1.3688,1.3688,1.3688,1.3688,1.3688,1.3688,1.3688,1.3688,1.3688,1.3688,1.3688,1.3688,1.3688,1.3688,1.3688,1.3688,1.3688,1.3688,1.3688,1.3688]},{"header":{"parameterUnit":"m.s-1","parameterCategory":1,"la1":31.0,"la2":29.5877,"lo1":-88.7671,"lo2":-86.6584,"dy":0.0162,"dx":0.0185,"nx":115,"ny":88,"refTime":"2024-05-08T12:00:00:Z","depth":0,"parameterNumber":3,"parameterNumberName":"V-component_of_WINDS"},"data":[0.0,0.0,0.0,0.0,0.0,0.0,0.0,0.0,0.0,0.0,0.0,0.0,0.0,0.0,0.0,0.0,0.0,0.0,0.0,0.0,0.0,0.0,0.0,0.0,0.0,0.0,0.0,0.0,0.0,0.0,0.0,0.0,0.0,0.0,0.0,0.0,0.0,0.0,0.0,0.0,0.0,0.0,0.0,0.0,0.0,0.0,0.0,0.0,0.0,0.0,0.0,0.0,0.0,0.0,0.0,0.0,0.0,0.0,0.0,0.0,0.0,0.0,0.0,0.0,0.0,0.0,0.0,0.0,0.0,0.0,0.0,0.0,0.0,0.0,0.0,0.0,0.0,0.0,0.0,0.0,0.0,0.0,0.0,0.0,0.0,0.0,0.0,0.0,0.0,0.0,0.0,0.0,0.0,0.0,0.0,0.0,0.0,0.0,0.0,0.0,0.0,0.0,0.0,0.0,0.0,0.0,0.0,0.0,0.0,0.0,0.0,0.0,0.0,0.0,0.0,0.0,0.0,0.0,0.0,0.0,0.0,0.0,0.0,0.0,0.0,0.0,0.0,0.0,0.0,0.0,0.0,0.0,0.0,0.0,0.0,0.0,0.0,0.0,0.0,0.0,0.0,0.0,0.0,0.0,0.0,0.0,0.0,0.0,0.0,0.0,0.0,0.0,0.0,0.0,0.0,0.0,0.0,0.0,0.0,0.0,0.0,0.0,0.0,0.0,0.0,0.0,0.0,0.0,0.0,0.0,0.0,0.0,0.0,0.0,0.0,0.0,0.0,0.0,0.0,0.0,0.0,0.0,0.0,0.0,0.0,0.0,0.0,0.0,0.0,0.0,0.0,0.0,0.0,0.0,0.0,0.0,0.0,0.0,0.0,0.0,0.0,0.0,0.0,0.0,0.0,0.0,0.0,0.0,0.0,0.0,0.0,0.0,0.0,0.0,0.0,0.0,0.0,0.0,0.0,0.0,0.0,0.0,0.0,0.0,0.0,0.0,0.0,0.0,0.0,0.0,0.0,0.0,0.0,0.0,0.0,0.0,0.0,0.0,0.0,0.0,0.0,0.0,0.0,0.0,0.0,0.0,0.0,0.0,0.0,0.0,0.0,0.0,0.0,0.0,0.0,0.0,0.0,0.0,0.0,0.0,0.0,0.0,0.0,0.0,0.0,0.0,0.0,0.0,0.0,0.0,0.0,0.0,0.0,0.0,0.0,0.0,0.0,0.0,0.0,0.0,0.0,0.0,0.0,0.0,0.0,0.0,0.0,0.0,0.0,0.0,0.0,0.0,0.0,0.0,0.0,0.0,0.0,0.0,0.0,0.0,0.0,0.0,0.0,0.0,0.0,0.0,0.0,0.0,0.0,0.0,0.0,0.0,0.0,0.0,0.0,0.0,0.0,0.0,0.0,0.0,0.0,0.0,0.0,0.0,0.0,0.0,0.0,0.0,0.0,0.0,0.0,0.0,0.0,0.0,0.0,0.0,0.0,0.0,0.0,0.0,0.0,0.0,0.0,0.0,0.0,0.0,0.0,0.0,0.0,0.0,0.0,0.0,0.0,0.0,0.0,0.0,0.0,0.0,0.0,0.0,0.0,0.0,0.0,0.0,0.0,0.0,0.0,0.0,0.0,0.0,0.0,0.0,0.0,0.0,0.0,0.0,0.0,0.0,0.0,0.0,0.0,0.0,0.0,0.0,0.0,0.0,0.0,0.0,0.0,0.0,0.0,0.0,0.0,0.0,0.0,0.0,0.0,0.0,0.0,0.0,0.0,0.0,0.0,0.0,0.0,0.0,0.0,0.0,0.0,0.0,0.0,0.0,0.0,0.0,0.0,0.0,0.0,0.0,0.0,0.0,0.0,0.0,0.0,0.0,0.0,0.0,0.0,0.0,0.0,0.0,0.0,0.0,0.0,0.0,0.0,0.0,0.0,0.0,0.0,0.0,0.0,0.0,0.0,0.0,0.0,0.0,0.0,0.0,0.0,0.0,0.0,0.0,0.0,0.0,0.0,0.0,0.0,0.0,0.0,0.0,0.0,0.0,0.0,0.0,0.0,0.0,0.0,0.0,0.0,0.0,0.0,0.0,0.0,0.0,0.0,0.0,0.0,0.0,0.0,0.0,0.0,0.0,0.0,0.0,0.0,0.0,0.0,0.0,0.0,0.0,0.0,0.0,0.0,0.0,0.0,0.0,0.0,0.0,0.0,0.0,0.0,0.0,0.0,0.0,0.0,0.0,0.0,0.0,0.0,0.0,0.0,0.0,0.0,0.0,0.0,0.0,0.0,0.0,0.0,0.0,0.0,0.0,0.0,0.0,0.0,0.0,0.0,0.0,0.0,0.0,0.0,0.0,0.0,0.0,0.0,0.0,0.0,0.0,0.0,0.0,0.0,0.0,0.0,0.0,0.0,0.0,0.0,0.0,0.0,0.0,0.0,0.0,0.0,0.0,0.0,0.0,0.0,0.0,0.0,0.0,0.0,0.0,0.0,0.0,0.0,0.0,0.0,0.0,0.0,0.0,0.0,0.0,0.0,0.0,0.0,0.0,0.0,0.0,0.0,0.0,0.0,0.0,0.0,0.0,0.0,0.0,0.0,0.0,0.0,0.0,0.0,0.0,0.0,0.0,0.0,0.0,0.0,0.0,0.0,0.0,0.0,0.0,0.0,0.0,0.0,0.0,0.0,0.0,0.0,0.0,0.0,0.0,0.0,0.0,0.0,0.0,0.0,0.0,0.0,0.0,0.0,0.0,0.0,0.0,0.0,0.0,0.0,0.0,0.0,0.0,0.0,0.0,0.0,0.0,0.0,0.0,0.0,0.0,0.0,0.0,0.0,0.0,0.0,0.0,0.0,0.0,0.0,0.0,0.0,0.0,0.0,0.0,0.0,0.0,0.0,0.0,0.0,0.0,0.0,0.0,0.0,0.0,0.0,0.0,0.0,0.0,0.0,0.0,0.0,0.0,0.0,0.0,0.0,0.0,0.0,0.0,0.0,0.0,0.0,0.0,0.0,0.0,0.0,0.0,0.0,0.0,0.0,0.0,0.0,0.0,0.0,0.0,0.0,0.0,0.0,0.0,0.0,0.0,0.0,0.0,0.0,0.0,0.0,0.0,0.0,0.0,0.0,0.0,0.0,0.0,0.0,0.0,0.0,0.0,0.0,0.0,0.0,0.0,0.0,0.0,0.0,0.0,0.0,0.0,0.0,0.0,0.0,0.0,0.0,0.0,0.0,0.0,0.0,0.0,0.0,0.0,0.0,0.0,0.0,0.0,0.0,0.0,0.0,0.0,0.0,0.0,0.0,0.0,0.0,0.0,0.0,0.0,0.0,0.0,0.0,0.0,0.0,0.0,0.0,0.0,0.0,0.0,0.0,0.0,0.0,0.0,0.0,0.0,0.0,0.0,0.0,0.0,0.0,0.0,0.0,0.0,0.0,0.0,0.0,0.0,0.0,0.0,0.0,0.0,0.0,0.0,0.0,0.0,0.0,0.0,0.0,0.0,0.0,0.0,0.0,0.0,0.0,0.0,0.0,0.0,0.0,0.0,0.0,0.0,0.0,0.0,0.0,0.0,0.0,0.0,0.0,0.0,0.0,0.0,0.0,0.0,0.0,0.0,0.0,0.0,0.0,0.0,0.0,0.0,0.0,0.0,0.0,0.0,0.0,0.0,0.0,0.0,0.0,0.0,0.0,0.0,0.0,0.0,0.0,0.0,0.0,0.0,0.0,0.0,0.0,0.0,0.0,0.0,0.0,0.0,0.0,0.0,0.0,0.0,0.0,0.0,0.0,0.0,0.0,0.0,0.0,0.0,0.0,0.0,0.0,0.0,0.0,0.0,0.0,0.0,0.0,0.0,0.0,0.0,0.0,0.0,0.0,0.0,0.0,0.0,0.0,0.0,0.0,0.0,0.0,0.0,0.0,0.0,0.0,0.0,0.0,0.0,0.0,0.0,0.0,0.0,0.0,0.0,0.0,0.0,0.0,0.0,0.0,0.0,0.0,0.0,0.0,0.0,0.0,0.0,0.0,0.0,0.0,0.0,0.0,0.0,0.0,0.0,0.0,0.0,0.0,0.0,0.0,0.0,0.0,0.0,0.0,0.0,0.0,0.0,0.0,0.0,0.0,0.0,0.0,0.0,0.0,0.0,0.0,0.0,0.0,0.0,0.0,0.0,0.0,0.0,0.0,0.0,0.0,0.0,0.0,0.0,0.0,0.0,0.0,0.0,0.0,0.0,0.0,0.0,0.0,0.0,0.0,0.0,0.0,0.0,3.0796,0.0,0.0,0.0,0.0,0.0,0.0,0.0,0.0,0.0,0.0,0.0,0.0,0.0,0.0,0.0,0.0,0.0,0.0,0.0,0.0,0.0,0.0,0.0,0.0,0.0,0.0,0.0,0.0,0.0,0.0,0.0,0.0,0.0,0.0,0.0,0.0,0.0,0.0,0.0,0.0,0.0,0.0,0.0,0.0,0.0,0.0,0.0,0.0,0.0,0.0,0.0,0.0,0.0,0.0,0.0,0.0,0.0,0.0,0.0,0.0,0.0,0.0,0.0,0.0,0.0,0.0,0.0,0.0,0.0,0.0,0.0,0.0,0.0,0.0,0.0,0.0,0.0,0.0,0.0,0.0,0.0,0.0,0.0,0.0,0.0,0.0,0.0,0.0,0.0,0.0,0.0,0.0,0.0,0.0,0.0,0.0,0.0,0.0,0.0,0.0,0.0,0.0,0.0,0.0,0.0,0.0,0.0,0.0,0.0,0.0,3.0799,3.0798,3.0787,3.0801,3.0801,0.0,0.0,0.0,0.0,0.0,0.0,0.0,0.0,0.0,0.0,0.0,0.0,0.0,0.0,0.0,0.0,0.0,0.0,0.0,0.0,0.0,0.0,0.0,0.0,0.0,0.0,0.0,0.0,0.0,0.0,0.0,0.0,0.0,0.0,0.0,0.0,0.0,0.0,0.0,0.0,0.0,0.0,0.0,0.0,0.0,0.0,0.0,0.0,0.0,0.0,0.0,0.0,0.0,0.0,0.0,0.0,0.0,0.0,0.0,0.0,0.0,0.0,0.0,0.0,0.0,0.0,0.0,0.0,0.0,0.0,0.0,0.0,0.0,0.0,0.0,0.0,0.0,0.0,0.0,0.0,0.0,0.0,0.0,0.0,0.0,0.0,0.0,0.0,0.0,0.0,0.0,0.0,0.0,0.0,0.0,0.0,0.0,0.0,0.0,0.0,0.0,0.0,0.0,0.0,0.0,0.0,0.0,0.0,0.0,0.0,0.0,0.0,3.0795,3.0785,3.0796,0.0,0.0,0.0,0.0,0.0,0.0,0.0,0.0,0.0,0.0,0.0,0.0,0.0,0.0,0.0,0.0,0.0,0.0,0.0,0.0,0.0,0.0,0.0,0.0,0.0,0.0,0.0,0.0,0.0,0.0,0.0,0.0,0.0,0.0,0.0,0.0,0.0,0.0,0.0,0.0,0.0,0.0,0.0,0.0,0.0,0.0,0.0,0.0,0.0,0.0,0.0,0.0,0.0,0.0,0.0,0.0,0.0,0.0,0.0,0.0,0.0,0.0,0.0,0.0,0.0,0.0,0.0,0.0,0.0,0.0,0.0,0.0,0.0,0.0,0.0,0.0,0.0,0.0,0.0,0.0,0.0,0.0,0.0,0.0,0.0,0.0,0.0,0.0,0.0,0.0,0.0,0.0,0.0,0.0,0.0,0.0,0.0,0.0,0.0,0.0,0.0,0.0,0.0,0.0,0.0,0.0,0.0,0.0,0.0,0.0,3.0799,3.0799,3.0793,0.0,3.0785,0.0,0.0,0.0,0.0,0.0,0.0,0.0,0.0,0.0,0.0,0.0,0.0,0.0,0.0,0.0,0.0,0.0,0.0,0.0,0.0,0.0,0.0,0.0,0.0,0.0,0.0,0.0,0.0,0.0,0.0,0.0,0.0,0.0,0.0,0.0,0.0,0.0,0.0,0.0,0.0,0.0,0.0,0.0,0.0,0.0,0.0,0.0,0.0,0.0,0.0,0.0,0.0,0.0,0.0,0.0,0.0,0.0,0.0,0.0,0.0,0.0,0.0,0.0,0.0,0.0,0.0,0.0,0.0,0.0,0.0,0.0,0.0,0.0,0.0,0.0,0.0,0.0,0.0,0.0,0.0,0.0,0.0,0.0,0.0,0.0,0.0,0.0,0.0,0.0,0.0,0.0,0.0,0.0,0.0,0.0,0.0,0.0,0.0,0.0,0.0,0.0,0.0,0.0,0.0,0.0,0.0,0.0,0.0,0.0,0.0,3.0801,3.0801,3.0791,3.0796,0.0,0.0,0.0,0.0,0.0,0.0,0.0,0.0,0.0,0.0,0.0,0.0,0.0,0.0,0.0,0.0,0.0,0.0,0.0,0.0,0.0,0.0,0.0,0.0,0.0,0.0,0.0,0.0,0.0,0.0,0.0,0.0,0.0,0.0,0.0,0.0,0.0,0.0,0.0,0.0,0.0,0.0,0.0,0.0,0.0,0.0,0.0,0.0,0.0,0.0,0.0,0.0,0.0,0.0,0.0,0.0,0.0,0.0,0.0,0.0,0.0,0.0,0.0,0.0,0.0,0.0,0.0,0.0,0.0,0.0,0.0,0.0,0.0,0.0,0.0,0.0,0.0,0.0,0.0,0.0,0.0,0.0,0.0,0.0,0.0,0.0,0.0,0.0,0.0,0.0,0.0,0.0,0.0,0.0,0.0,0.0,0.0,0.0,0.0,0.0,0.0,0.0,0.0,0.0,0.0,0.0,0.0,0.0,0.0,0.0,3.0801,3.0801,3.08,3.0787,3.0795,3.0786,0.0,0.0,0.0,0.0,0.0,0.0,0.0,0.0,0.0,0.0,0.0,0.0,0.0,0.0,0.0,0.0,0.0,0.0,0.0,0.0,0.0,0.0,0.0,0.0,0.0,0.0,0.0,0.0,0.0,0.0,0.0,0.0,0.0,0.0,0.0,0.0,0.0,0.0,0.0,0.0,0.0,0.0,0.0,0.0,0.0,0.0,0.0,0.0,0.0,0.0,0.0,0.0,0.0,0.0,0.0,0.0,0.0,0.0,0.0,0.0,0.0,0.0,0.0,0.0,0.0,0.0,0.0,0.0,0.0,0.0,0.0,0.0,0.0,0.0,0.0,0.0,0.0,0.0,0.0,0.0,0.0,0.0,0.0,0.0,0.0,0.0,0.0,0.0,0.0,0.0,0.0,0.0,0.0,0.0,0.0,0.0,0.0,0.0,0.0,0.0,0.0,0.0,0.0,0.0,0.0,0.0,0.0,0.0,3.0801,3.0801,3.0801,3.0801,3.0787,3.0798,0.0,0.0,0.0,0.0,0.0,0.0,0.0,0.0,0.0,0.0,0.0,0.0,0.0,0.0,0.0,0.0,0.0,0.0,0.0,0.0,0.0,0.0,0.0,0.0,0.0,0.0,0.0,0.0,0.0,0.0,0.0,0.0,0.0,0.0,0.0,0.0,0.0,0.0,0.0,0.0,0.0,0.0,0.0,0.0,0.0,0.0,0.0,0.0,0.0,0.0,0.0,0.0,0.0,0.0,0.0,0.0,0.0,0.0,0.0,0.0,0.0,0.0,0.0,0.0,0.0,0.0,0.0,0.0,0.0,0.0,0.0,0.0,0.0,0.0,0.0,0.0,0.0,0.0,0.0,0.0,0.0,0.0,0.0,0.0,0.0,0.0,0.0,0.0,0.0,0.0,0.0,0.0,0.0,0.0,0.0,0.0,0.0,0.0,0.0,0.0,0.0,0.0,0.0,0.0,0.0,0.0,0.0,0.0,0.0,3.0801,3.0801,3.0801,3.08,3.0788,3.0799,0.0,0.0,0.0,0.0,0.0,0.0,0.0,0.0,0.0,0.0,0.0,0.0,0.0,0.0,0.0,0.0,0.0,0.0,0.0,0.0,0.0,0.0,0.0,0.0,0.0,0.0,0.0,0.0,0.0,0.0,0.0,0.0,0.0,0.0,0.0,0.0,0.0,0.0,0.0,0.0,0.0,0.0,0.0,0.0,0.0,0.0,0.0,0.0,0.0,0.0,0.0,0.0,0.0,0.0,0.0,0.0,0.0,0.0,0.0,0.0,0.0,0.0,0.0,0.0,0.0,0.0,0.0,0.0,0.0,0.0,0.0,0.0,0.0,0.0,0.0,0.0,0.0,0.0,0.0,0.0,0.0,0.0,0.0,0.0,0.0,0.0,0.0,0.0,0.0,0.0,0.0,0.0,0.0,0.0,0.0,0.0,0.0,0.0,0.0,0.0,0.0,0.0,0.0,0.0,0.0,0.0,0.0,0.0,0.0,3.164,0.0,3.164,3.1639,3.1646,3.1501,0.0,0.0,0.0,0.0,0.0,0.0,0.0,0.0,0.0,0.0,0.0,0.0,0.0,0.0,0.0,0.0,0.0,0.0,0.0,0.0,0.0,0.0,0.0,0.0,0.0,0.0,0.0,0.0,0.0,0.0,0.0,0.0,0.0,0.0,0.0,0.0,0.0,0.0,0.0,0.0,0.0,0.0,0.0,0.0,0.0,0.0,0.0,0.0,0.0,0.0,0.0,0.0,0.0,0.0,0.0,0.0,0.0,0.0,0.0,0.0,0.0,0.0,0.0,0.0,0.0,0.0,0.0,0.0,0.0,0.0,0.0,0.0,0.0,0.0,0.0,0.0,0.0,0.0,0.0,0.0,0.0,0.0,0.0,0.0,0.0,0.0,0.0,0.0,0.0,0.0,0.0,0.0,0.0,0.0,0.0,0.0,0.0,0.0,0.0,0.0,0.0,0.0,0.0,0.0,0.0,0.0,0.0,0.0,3.3397,3.3358,3.3338,3.3279,3.3396,3.3305,3.2944,0.0,0.0,0.0,0.0,0.0,0.0,0.0,0.0,0.0,0.0,0.0,0.0,0.0,0.0,0.0,0.0,0.0,0.0,0.0,0.0,0.0,0.0,0.0,0.0,0.0,0.0,0.0,0.0,0.0,0.0,0.0,0.0,0.0,0.0,0.0,0.0,0.0,0.0,0.0,0.0,0.0,0.0,0.0,0.0,0.0,0.0,0.0,0.0,0.0,0.0,0.0,0.0,0.0,0.0,0.0,0.0,0.0,0.0,0.0,0.0,0.0,0.0,0.0,0.0,0.0,0.0,0.0,0.0,0.0,0.0,0.0,0.0,0.0,0.0,0.0,0.0,0.0,0.0,0.0,0.0,0.0,0.0,0.0,0.0,0.0,0.0,0.0,0.0,0.0,0.0,0.0,0.0,0.0,0.0,0.0,0.0,0.0,0.0,0.0,0.0,0.0,0.0,0.0,0.0,0.0,0.0,0.0,0.0,0.0,3.3435,3.3397,3.3397,3.3396,3.3384,3.3276,0.0,0.0,0.0,0.0,0.0,0.0,0.0,0.0,0.0,0.0,0.0,0.0,0.0,0.0,0.0,0.0,0.0,0.0,0.0,0.0,0.0,0.0,0.0,0.0,0.0,0.0,0.0,0.0,0.0,0.0,0.0,0.0,0.0,0.0,0.0,0.0,0.0,0.0,0.0,0.0,0.0,0.0,0.0,0.0,0.0,0.0,0.0,0.0,0.0,0.0,0.0,0.0,0.0,0.0,0.0,0.0,0.0,0.0,0.0,0.0,0.0,0.0,0.0,0.0,0.0,0.0,0.0,0.0,0.0,0.0,0.0,0.0,0.0,0.0,0.0,0.0,0.0,0.0,0.0,0.0,0.0,0.0,0.0,0.0,0.0,0.0,0.0,0.0,0.0,0.0,0.0,0.0,0.0,0.0,0.0,0.0,0.0,0.0,0.0,0.0,0.0,0.0,0.0,0.0,0.0,0.0,0.0,0.0,0.0,3.49,3.4548,3.4372,3.4352,3.4357,3.4212,3.3881,0.0,0.0,0.0,0.0,0.0,0.0,0.0,0.0,0.0,0.0,0.0,0.0,0.0,0.0,0.0,0.0,0.0,0.0,0.0,0.0,0.0,0.0,0.0,0.0,0.0,0.0,0.0,0.0,0.0,0.0,0.0,0.0,0.0,0.0,0.0,0.0,0.0,0.0,0.0,0.0,0.0,0.0,0.0,0.0,0.0,0.0,0.0,0.0,0.0,0.0,0.0,0.0,0.0,0.0,0.0,0.0,0.0,0.0,0.0,0.0,0.0,0.0,0.0,0.0,0.0,0.0,0.0,0.0,0.0,0.0,0.0,0.0,0.0,0.0,0.0,0.0,0.0,0.0,0.0,0.0,0.0,0.0,0.0,0.0,0.0,0.0,0.0,0.0,0.0,0.0,0.0,0.0,0.0,0.0,0.0,0.0,0.0,0.0,0.0,0.0,0.0,0.0,0.0,0.0,0.0,0.0,0.0,0.0,3.7359,3.6558,3.6128,3.6049,3.6054,3.5654,0.0,0.0,0.0,0.0,0.0,0.0,0.0,0.0,0.0,0.0,0.0,0.0,0.0,0.0,0.0,0.0,0.0,0.0,0.0,0.0,0.0,0.0,0.0,0.0,0.0,0.0,0.0,0.0,0.0,0.0,0.0,0.0,0.0,0.0,0.0,0.0,0.0,0.0,0.0,0.0,0.0,0.0,0.0,0.0,0.0,0.0,0.0,0.0,0.0,0.0,0.0,0.0,0.0,0.0,0.0,0.0,0.0,0.0,0.0,0.0,0.0,0.0,0.0,0.0,0.0,0.0,0.0,0.0,0.0,0.0,0.0,0.0,0.0,0.0,0.0,0.0,0.0,0.0,0.0,0.0,0.0,0.0,0.0,0.0,0.0,0.0,0.0,0.0,0.0,0.0,0.0,0.0,0.0,0.0,0.0,0.0,0.0,0.0,0.0,0.0,0.0,0.0,0.0,0.0,0.0,0.0,0.0,0.0,0.0,3.819,3.7955,3.7545,3.6999,3.691,3.647,0.0,0.0,0.0,0.0,0.0,0.0,0.0,0.0,0.0,0.0,0.0,0.0,0.0,0.0,0.0,0.0,0.0,0.0,0.0,0.0,0.0,0.0,0.0,0.0,0.0,0.0,0.0,0.0,0.0,0.0,0.0,0.0,0.0,0.0,0.0,0.0,0.0,0.0,0.0,0.0,0.0,0.0,0.0,0.0,0.0,0.0,0.0,0.0,0.0,0.0,0.0,0.0,0.0,0.0,0.0,0.0,0.0,0.0,0.0,0.0,0.0,0.0,0.0,0.0,0.0,0.0,0.0,0.0,0.0,0.0,0.0,0.0,0.0,0.0,0.0,0.0,0.0,0.0,0.0,0.0,0.0,0.0,0.0,0.0,0.0,0.0,0.0,0.0,0.0,0.0,0.0,0.0,0.0,0.0,0.0,0.0,0.0,0.0,0.0,0.0,0.0,0.0,0.0,0.0,0.0,0.0,0.0,0.0,3.9074,3.9063,3.9415,3.9196,3.837,3.7952,3.734,0.0,0.0,0.0,0.0,0.0,0.0,0.0,0.0,0.0,0.0,0.0,0.0,0.0,0.0,0.0,0.0,0.0,0.0,0.0,0.0,0.0,0.0,0.0,0.0,0.0,0.0,0.0,0.0,0.0,0.0,0.0,0.0,0.0,0.0,0.0,0.0,0.0,0.0,0.0,0.0,0.0,0.0,0.0,0.0,0.0,0.0,0.0,0.0,0.0,0.0,0.0,0.0,0.0,0.0,0.0,0.0,0.0,0.0,0.0,0.0,0.0,0.0,0.0,0.0,0.0,0.0,0.0,0.0,0.0,0.0,0.0,0.0,0.0,0.0,0.0,0.0,0.0,0.0,0.0,0.0,0.0,0.0,0.0,0.0,0.0,0.0,0.0,0.0,0.0,0.0,0.0,0.0,0.0,0.0,0.0,0.0,0.0,0.0,0.0,0.0,0.0,0.0,0.0,0.0,0.0,0.0,0.0,0.0,3.9931,3.9938,4.07,4.0731,3.9946,3.9086,3.8227,0.0,0.0,0.0,0.0,0.0,0.0,0.0,0.0,0.0,0.0,0.0,0.0,0.0,0.0,0.0,0.0,0.0,0.0,0.0,0.0,0.0,0.0,0.0,0.0,0.0,0.0,0.0,0.0,0.0,0.0,0.0,0.0,0.0,0.0,0.0,0.0,0.0,0.0,0.0,0.0,0.0,0.0,0.0,0.0,0.0,0.0,0.0,0.0,0.0,0.0,0.0,0.0,0.0,0.0,0.0,0.0,0.0,0.0,0.0,0.0,0.0,0.0,0.0,0.0,0.0,0.0,0.0,0.0,0.0,0.0,0.0,0.0,0.0,0.0,0.0,0.0,0.0,0.0,0.0,0.0,0.0,0.0,0.0,0.0,0.0,0.0,0.0,0.0,0.0,0.0,0.0,0.0,0.0,0.0,0.0,0.0,0.0,0.0,0.0,0.0,0.0,0.0,0.0,0.0,0.0,0.0,0.0,0.0,4.0827,4.0825,4.1001,4.1008,4.0824,3.9977,3.9121,0.0,0.0,0.0,0.0,0.0,0.0,0.0,0.0,0.0,0.0,0.0,0.0,0.0,0.0,0.0,0.0,0.0,0.0,0.0,0.0,0.0,0.0,0.0,0.0,0.0,0.0,0.0,0.0,0.0,0.0,0.0,0.0,0.0,0.0,0.0,0.0,0.0,0.0,0.0,0.0,0.0,0.0,0.0,0.0,0.0,0.0,0.0,0.0,3.5764,0.0,0.0,0.0,0.0,0.0,0.0,0.0,0.0,0.0,0.0,0.0,0.0,0.0,0.0,0.0,0.0,0.0,0.0,0.0,0.0,0.0,0.0,0.0,0.0,0.0,0.0,0.0,0.0,0.0,0.0,0.0,0.0,0.0,0.0,0.0,0.0,0.0,0.0,0.0,0.0,0.0,0.0,0.0,0.0,0.0,0.0,0.0,0.0,0.0,0.0,0.0,0.0,0.0,0.0,0.0,0.0,0.0,0.0,0.0,4.1114,4.1114,4.1108,4.1114,4.1091,4.0605,3.994,0.0,0.0,0.0,0.0,0.0,0.0,0.0,0.0,0.0,0.0,0.0,0.0,0.0,0.0,0.0,0.0,0.0,0.0,0.0,0.0,0.0,0.0,0.0,0.0,0.0,0.0,0.0,0.0,0.0,0.0,0.0,0.0,0.0,0.0,0.0,0.0,0.0,0.0,0.0,0.0,0.0,0.0,0.0,0.0,0.0,0.0,0.0,0.0,0.0,0.0,0.0,0.0,0.0,0.0,0.0,0.0,0.0,0.0,0.0,0.0,0.0,0.0,0.0,0.0,0.0,0.0,0.0,0.0,0.0,0.0,0.0,0.0,0.0,0.0,0.0,0.0,0.0,0.0,0.0,0.0,0.0,0.0,0.0,0.0,0.0,0.0,0.0,0.0,0.0,0.0,0.0,0.0,0.0,0.0,0.0,0.0,0.0,0.0,0.0,0.0,0.0,0.0,0.0,0.0,0.0,0.0,0.0,4.07,4.1169,4.129,4.1182,4.1148,4.1265,4.1117,4.0657,3.9912,0.0,0.0,0.0,0.0,0.0,0.0,0.0,0.0,0.0,0.0,0.0,0.0,0.0,0.0,0.0,0.0,0.0,0.0,0.0,0.0,0.0,0.0,0.0,0.0,0.0,0.0,0.0,0.0,0.0,0.0,0.0,0.0,0.0,0.0,0.0,0.0,0.0,0.0,3.5803,3.5766,0.0,0.0,0.0,0.0,0.0,0.0,0.0,0.0,3.5793,0.0,0.0,0.0,0.0,0.0,0.0,0.0,0.0,0.0,0.0,0.0,0.0,0.0,0.0,0.0,0.0,0.0,0.0,0.0,0.0,0.0,0.0,0.0,0.0,0.0,0.0,0.0,0.0,0.0,0.0,0.0,0.0,0.0,0.0,0.0,0.0,0.0,0.0,0.0,0.0,0.0,0.0,0.0,0.0,0.0,0.0,0.0,0.0,0.0,0.0,0.0,0.0,0.0,0.0,0.0,0.0,3.9896,4.069,4.1456,4.215,4.1484,4.141,4.2064,4.1437,4.0993,4.075,0.0,0.0,0.0,0.0,0.0,0.0,0.0,0.0,0.0,0.0,0.0,0.0,0.0,0.0,0.0,0.0,0.0,0.0,0.0,0.0,0.0,0.0,0.0,0.0,0.0,0.0,0.0,0.0,0.0,0.0,0.0,0.0,0.0,0.0,0.0,0.0,0.0,0.0,0.0,3.5794,3.5764,0.0,0.0,0.0,0.0,0.0,0.0,0.0,0.0,3.5806,0.0,0.0,0.0,0.0,0.0,0.0,0.0,0.0,0.0,0.0,0.0,0.0,0.0,0.0,0.0,0.0,0.0,0.0,0.0,0.0,0.0,0.0,0.0,0.0,0.0,0.0,0.0,0.0,0.0,0.0,0.0,0.0,0.0,0.0,0.0,0.0,0.0,0.0,0.0,0.0,0.0,0.0,0.0,0.0,0.0,0.0,0.0,0.0,0.0,0.0,0.0,0.0,0.0,0.0,0.0,4.1184,4.1583,4.2189,4.3028,4.2641,4.2367,4.2286,4.1923,4.1498,0.0,0.0,0.0,0.0,0.0,0.0,0.0,0.0,0.0,0.0,0.0,0.0,0.0,0.0,0.0,0.0,0.0,0.0,0.0,0.0,0.0,0.0,0.0,0.0,0.0,0.0,0.0,0.0,0.0,0.0,0.0,0.0,0.0,0.0,0.0,0.0,0.0,0.0,0.0,0.0,3.5788,3.5801,3.5743,0.0,0.0,0.0,0.0,0.0,0.0,3.5793,3.5791,0.0,0.0,0.0,0.0,0.0,0.0,0.0,0.0,0.0,0.0,0.0,0.0,0.0,0.0,0.0,0.0,0.0,0.0,0.0,0.0,0.0,0.0,0.0,0.0,0.0,0.0,0.0,0.0,0.0,0.0,0.0,0.0,0.0,0.0,0.0,0.0,0.0,0.0,0.0,0.0,0.0,0.0,0.0,0.0,0.0,0.0,0.0,0.0,0.0,0.0,0.0,0.0,0.0,0.0,0.0,4.2375,4.2595,4.3084,4.3884,4.3743,4.327,4.2587,4.2395,4.1887,0.0,0.0,0.0,0.0,0.0,0.0,0.0,0.0,0.0,0.0,0.0,0.0,0.0,0.0,0.0,0.0,0.0,0.0,0.0,0.0,0.0,0.0,0.0,0.0,0.0,0.0,0.0,0.0,0.0,0.0,0.0,0.0,0.0,0.0,0.0,0.0,0.0,0.0,0.0,0.0,0.0,3.5795,3.5793,3.5955,0.0,0.0,0.0,0.0,3.6302,3.6183,0.0,0.0,0.0,0.0,0.0,0.0,0.0,0.0,0.0,0.0,0.0,0.0,0.0,0.0,0.0,0.0,0.0,0.0,0.0,0.0,0.0,0.0,0.0,0.0,0.0,0.0,0.0,0.0,0.0,0.0,0.0,0.0,0.0,0.0,0.0,0.0,0.0,0.0,0.0,0.0,0.0,0.0,0.0,0.0,0.0,0.0,0.0,0.0,0.0,0.0,0.0,0.0,0.0,0.0,0.0,0.0,4.2415,4.3174,4.3942,4.4666,4.4055,4.3626,4.3443,4.2719,4.1883,0.0,0.0,0.0,0.0,0.0,0.0,0.0,0.0,0.0,0.0,0.0,0.0,0.0,0.0,0.0,0.0,0.0,0.0,0.0,0.0,0.0,0.0,0.0,0.0,0.0,0.0,0.0,0.0,0.0,0.0,0.0,0.0,0.0,0.0,0.0,0.0,0.0,0.0,0.0,0.0,0.0,3.5793,3.5793,3.6474,3.6962,0.0,0.0,3.7217,3.7977,3.745,0.0,0.0,0.0,0.0,0.0,0.0,0.0,0.0,0.0,0.0,0.0,0.0,0.0,0.0,0.0,0.0,0.0,0.0,0.0,0.0,0.0,0.0,0.0,0.0,0.0,0.0,0.0,0.0,0.0,0.0,0.0,0.0,0.0,0.0,0.0,0.0,0.0,0.0,0.0,0.0,0.0,0.0,0.0,0.0,0.0,0.0,0.0,0.0,0.0,0.0,0.0,0.0,0.0,0.0,0.0,4.3378,4.3863,4.4249,4.4844,4.5642,4.5316,4.4863,4.4336,4.3497,4.2618,0.0,0.0,0.0,0.0,0.0,0.0,0.0,0.0,0.0,0.0,0.0,0.0,0.0,0.0,0.0,0.0,0.0,0.0,0.0,0.0,0.0,0.0,0.0,0.0,0.0,0.0,0.0,0.0,0.0,0.0,0.0,0.0,0.0,0.0,0.0,0.0,0.0,0.0,0.0,0.0,0.0,0.0,3.716,3.7535,0.0,0.0,0.0,3.7937,3.8343,0.0,0.0,0.0,0.0,0.0,0.0,0.0,0.0,0.0,0.0,0.0,0.0,0.0,0.0,0.0,0.0,0.0,0.0,0.0,0.0,0.0,0.0,0.0,0.0,0.0,0.0,0.0,0.0,0.0,0.0,0.0,0.0,0.0,0.0,0.0,0.0,0.0,0.0,0.0,0.0,0.0,0.0,0.0,0.0,0.0,0.0,0.0,0.0,0.0,0.0,0.0,0.0,0.0,0.0,0.0,0.0,0.0,4.4998,4.5208,4.5648,4.6281,4.6246,4.5813,4.4921,4.4272,0.0,0.0,0.0,0.0,0.0,0.0,0.0,0.0,0.0,0.0,0.0,0.0,0.0,0.0,0.0,0.0,0.0,0.0,0.0,0.0,0.0,0.0,0.0,0.0,0.0,0.0,0.0,3.6323,0.0,0.0,0.0,0.0,0.0,0.0,0.0,0.0,0.0,0.0,0.0,0.0,0.0,0.0,3.7632,3.8214,3.8476,3.8641,0.0,0.0,3.8729,3.8986,3.8833,3.8461,0.0,0.0,0.0,0.0,0.0,0.0,0.0,0.0,0.0,0.0,0.0,0.0,0.0,0.0,0.0,0.0,0.0,0.0,0.0,0.0,0.0,0.0,0.0,0.0,0.0,0.0,0.0,0.0,0.0,0.0,0.0,0.0,0.0,0.0,0.0,0.0,0.0,0.0,0.0,0.0,0.0,0.0,0.0,0.0,0.0,0.0,0.0,0.0,0.0,0.0,0.0,0.0,0.0,0.0,4.4961,4.5018,4.5798,4.6242,4.6302,4.6299,4.5855,4.4938,4.4843,4.4396,0.0,0.0,0.0,0.0,0.0,0.0,0.0,0.0,0.0,0.0,0.0,0.0,0.0,0.0,0.0,0.0,0.0,0.0,0.0,0.0,0.0,0.0,0.0,0.0,0.0,0.0,0.0,0.0,0.0,0.0,0.0,0.0,0.0,0.0,0.0,0.0,0.0,0.0,0.0,0.0,0.0,3.8253,3.8306,3.8984,3.9525,0.0,3.9525,3.9779,4.0521,3.9995,3.9508,3.945,0.0,0.0,0.0,0.0,0.0,0.0,0.0,0.0,0.0,0.0,0.0,0.0,0.0,0.0,0.0,0.0,0.0,0.0,0.0,0.0,0.0,0.0,0.0,0.0,0.0,0.0,0.0,0.0,0.0,0.0,0.0,0.0,0.0,0.0,0.0,0.0,0.0,0.0,0.0,0.0,0.0,0.0,0.0,0.0,0.0,0.0,0.0,0.0,0.0,0.0,0.0,0.0,0.0,4.5801,4.58,4.6132,4.6304,4.6296,4.6291,4.6123,4.5785,4.5253,4.4785,0.0,0.0,0.0,0.0,0.0,0.0,0.0,0.0,0.0,0.0,0.0,0.0,0.0,0.0,0.0,0.0,0.0,0.0,0.0,0.0,0.0,0.0,0.0,0.0,0.0,0.0,0.0,0.0,3.8215,3.808,3.7732,0.0,0.0,0.0,0.0,0.0,0.0,0.0,0.0,0.0,0.0,3.9279,3.9768,4.0128,0.0,0.0,4.033,4.0452,4.0746,4.0535,4.0164,3.9677,3.929,0.0,0.0,0.0,0.0,0.0,0.0,0.0,0.0,0.0,0.0,0.0,0.0,0.0,0.0,0.0,0.0,0.0,0.0,0.0,0.0,0.0,0.0,0.0,0.0,0.0,0.0,0.0,0.0,0.0,0.0,0.0,0.0,0.0,0.0,0.0,0.0,0.0,0.0,0.0,0.0,0.0,0.0,0.0,0.0,0.0,0.0,0.0,0.0,0.0,0.0,0.0,0.0,4.6289,4.6308,4.6562,4.6561,4.6303,4.6574,4.6566,4.6296,4.5707,4.5361,0.0,0.0,0.0,0.0,0.0,0.0,0.0,0.0,0.0,0.0,0.0,0.0,0.0,0.0,0.0,0.0,0.0,0.0,0.0,0.0,0.0,0.0,0.0,0.0,0.0,0.0,0.0,0.0,3.8737,3.8586,3.8586,0.0,0.0,0.0,0.0,0.0,0.0,0.0,0.0,0.0,0.0,4.0115,4.0684,4.0774,4.077,4.0802,4.0805,4.0794,4.0795,4.0804,4.0607,4.0059,0.0,0.0,0.0,0.0,0.0,0.0,0.0,0.0,0.0,0.0,0.0,0.0,0.0,0.0,0.0,0.0,0.0,0.0,0.0,0.0,0.0,0.0,0.0,0.0,0.0,0.0,0.0,4.1211,0.0,0.0,4.125,0.0,0.0,0.0,0.0,0.0,0.0,0.0,0.0,0.0,0.0,0.0,0.0,0.0,0.0,0.0,0.0,0.0,0.0,0.0,0.0,0.0,0.0,4.6308,4.6328,4.7129,4.7168,4.6404,4.7127,4.7202,4.639,4.6285,4.6276,4.6245,0.0,0.0,0.0,0.0,0.0,0.0,0.0,0.0,0.0,0.0,0.0,0.0,0.0,0.0,0.0,0.0,0.0,0.0,0.0,0.0,0.0,0.0,0.0,0.0,0.0,0.0,4.0678,3.9984,3.9481,0.0,0.0,0.0,0.0,0.0,0.0,0.0,0.0,0.0,3.9425,4.0078,4.0609,4.0678,4.07,4.0733,4.079,4.0797,4.0797,4.0797,4.0797,4.0797,0.0,0.0,0.0,0.0,0.0,0.0,0.0,0.0,0.0,0.0,0.0,0.0,0.0,0.0,0.0,0.0,0.0,0.0,0.0,0.0,0.0,0.0,0.0,0.0,0.0,0.0,0.0,4.2851,4.2871,0.0,0.0,0.0,0.0,0.0,0.0,0.0,0.0,0.0,0.0,0.0,4.6758,4.7324,0.0,0.0,0.0,0.0,0.0,0.0,0.0,0.0,0.0,0.0,0.0,0.0,4.6601,4.7148,4.7441,4.7754,4.8026,4.8319,4.8317,4.8018,4.7469,4.6897,4.6315,0.0,0.0,0.0,0.0,0.0,0.0,0.0,0.0,0.0,0.0,0.0,0.0,0.0,0.0,0.0,0.0,0.0,0.0,0.0,0.0,0.0,0.0,0.0,0.0,0.0,4.0794,0.0,0.0,0.0,0.0,0.0,0.0,0.0,0.0,0.0,0.0,0.0,3.9579,4.0126,4.0444,4.0614,4.0628,4.0628,4.0631,0.0,0.0,0.0,0.0,0.0,0.0,0.0,0.0,0.0,0.0,0.0,0.0,0.0,0.0,3.9296,3.8143,3.8312,3.8576,3.8385,0.0,0.0,0.0,0.0,0.0,0.0,0.0,0.0,0.0,0.0,0.0,0.0,0.0,0.0,4.3711,4.3711,4.3711,0.0,0.0,0.0,0.0,0.0,0.0,0.0,0.0,4.7402,4.8066,4.8086,4.8633,4.8887,4.8867,4.832,4.7187,0.0,0.0,0.0,0.0,0.0,0.0,0.0,0.0,4.7031,4.7598,4.8203,4.8633,4.8886,4.9198,4.9197,4.8902,4.8354,4.7802,4.7243,4.631,4.5798,0.0,0.0,0.0,0.0,0.0,0.0,0.0,0.0,0.0,0.0,0.0,0.0,0.0,0.0,0.0,0.0,0.0,0.0,0.0,0.0,0.0,0.0,0.0,4.1548,0.0,0.0,0.0,0.0,0.0,0.0,0.0,0.0,0.0,3.9889,3.9816,4.0004,4.0531,4.0579,4.0579,4.0589,0.0,0.0,0.0,0.0,0.0,0.0,0.0,4.0591,4.0591,4.0591,4.0588,4.0593,4.0584,4.0631,4.0892,0.0,0.0,3.897,3.9085,3.9352,3.9161,3.9548,3.9815,3.9557,3.9489,3.9452,0.0,0.0,0.0,0.0,4.3808,0.0,0.0,0.0,4.3867,4.3926,0.0,4.3926,0.0,0.0,0.0,0.0,4.5195,4.6855,0.0,0.0,4.8516,4.8945,4.8945,4.9004,4.8984,4.8984,4.8964,4.8904,4.8787,4.7187,0.0,0.0,0.0,0.0,0.0,0.0,4.7656,4.7773,4.9316,4.9805,4.9062,4.9805,4.9824,4.9002,4.8961,4.8917,4.8851,4.7985,4.7518,4.7513,4.5917,0.0,0.0,0.0,0.0,0.0,0.0,0.0,0.0,0.0,0.0,0.0,0.0,0.0,0.0,0.0,0.0,0.0,0.0,0.0,0.0,4.3298,0.0,0.0,0.0,0.0,0.0,0.0,0.0,0.0,0.0,4.0699,4.0716,4.0668,4.0623,4.0642,0.0,0.0,0.0,0.0,4.0657,4.0696,4.0684,4.0703,4.0703,4.0703,4.0703,4.0703,0.0,0.0,4.0688,4.0654,4.0862,4.1579,4.1687,4.1356,4.0463,4.0315,4.0262,4.0057,4.0041,3.9887,3.9657,3.9702,3.9568,4.6866,0.0,0.0,0.0,0.0,4.5565,4.5898,4.6484,4.6484,4.6836,4.7383,4.6758,0.0,0.0,0.0,0.0,0.0,0.0,4.8516,4.8574,4.9414,4.9824,4.9863,5.041,5.0683,5.0663,5.0055,4.976,4.9721,4.8687,4.816,4.8159,0.0,0.0,0.0,0.0,4.8828,4.9433,4.9941,5.0351,5.0683,5.0937,5.0664,4.9863,4.9843,4.9549,4.8941,4.8624,4.8476,4.8414,4.735,0.0,0.0,0.0,0.0,0.0,0.0,0.0,0.0,0.0,0.0,0.0,0.0,0.0,0.0,0.0,0.0,0.0,0.0,0.0,4.3221,4.3237,4.3125,0.0,0.0,0.0,0.0,0.0,0.0,0.0,0.0,0.0,4.2371,4.184,4.1466,0.0,0.0,4.1666,4.2294,4.1851,4.1678,4.2294,4.2371,0.0,4.239,4.239,4.239,4.239,4.2343,4.2315,4.2302,4.227,4.2275,4.2478,4.2488,4.2346,4.2077,4.1945,4.1851,4.1645,4.1563,4.1455,4.12,4.1107,4.1038,4.8516,4.7291,4.7315,4.7336,4.7336,4.732,4.7633,4.8121,4.8104,4.8417,4.8866,4.8338,4.8104,4.8104,4.7558,0.0,0.0,0.0,4.9414,4.9453,5.0292,5.0682,5.0702,5.1169,5.1383,5.1363,5.0871,5.0614,5.0613,5.0123,4.9906,4.9867,0.0,4.89,4.8922,4.9215,4.9646,5.0155,5.0487,5.0897,5.1386,5.1387,5.1152,5.0703,5.0683,5.041,4.992,4.9546,4.9362,4.9308,4.815,4.7265,0.0,0.0,0.0,0.0,0.0,0.0,0.0,0.0,0.0,0.0,0.0,4.4291,4.4295,0.0,0.0,0.0,4.4235,4.4198,4.4195,4.4191,0.0,0.0,0.0,0.0,0.0,0.0,0.0,4.3092,4.3088,4.3095,4.3089,4.2927,4.2681,4.235,4.2312,4.2508,4.3028,0.0,4.2504,4.3028,4.3088,4.3056,4.3075,4.3039,4.3026,4.3026,4.2985,4.2963,4.2958,4.2903,4.2962,4.3221,4.3292,4.3368,4.3654,4.3629,4.3275,4.2522,4.2264,4.2134,4.1931,4.1842,4.1745,4.9734,4.9014,4.9068,4.9013,4.8897,4.8897,4.8936,4.8995,4.8995,4.9035,4.9093,4.9015,4.8976,4.8898,4.8961,0.0,4.9023,4.9901,5.0291,5.033,5.1069,5.1398,5.1398,5.1398,5.1398,5.1397,5.1392,5.1389,5.1389,5.138,5.1394,5.1355,4.9867,4.9092,4.9132,4.9835,5.0206,5.0226,5.1008,5.1401,5.1385,5.1386,5.1387,5.1387,5.1387,5.1386,5.1366,5.062,5.0202,5.015,4.8614,4.7677,4.7593,0.0,0.0,0.0,0.0,0.0,0.0,0.0,0.0,0.0,0.0,0.0,0.0,0.0,0.0,0.0,4.5743,0.0,4.5677,4.5696,0.0,0.0,0.0,4.4183,4.3381,4.33,4.3307,4.3301,0.0,0.0,4.3312,4.3923,4.4115,4.3385,4.3231,4.3212,4.3273,4.3246,4.3192,4.3357,4.3246,4.3196,4.3354,4.328,4.3272,4.3253,4.3109,4.3201,4.3196,4.3144,4.3384,4.4044,4.4162,4.4302,4.5055,4.5044,4.4604,4.2976,4.2557,4.2398,4.2344,4.2236,4.2149,5.0964,5.077,5.0794,5.0054,4.8844,4.8831,4.9204,4.981,4.9814,5.0188,5.0754,5.0109,4.9484,4.8937,4.9544,4.9799,4.9859,5.0737,5.1107,5.1127,5.1321,5.1398,5.1398,5.1395,5.1392,5.1392,5.1384,5.1398,5.1398,5.1395,5.1394,5.1375,5.1009,5.0818,5.0806,5.1001,5.1082,5.1085,5.1301,5.1399,5.14,5.1384,5.1386,5.1386,5.1386,5.1387,5.1386,5.1207,5.1084,5.1062,5.0065,4.9188,4.8519,4.7687,0.0,0.0,0.0,0.0,0.0,0.0,0.0,0.0,0.0,4.5812,4.5803,0.0,4.5777,0.0,4.5722,4.5682,4.5629,4.5625,0.0,0.0,4.5332,4.525,4.503,4.5011,4.5007,4.5017,4.4944,4.4941,4.4917,4.5058,4.5074,4.4863,4.4376,4.4226,4.4802,4.4348,4.4167,4.4671,4.4796,4.4825,4.4762,4.4834,4.4763,4.4811,4.4796,4.4805,4.4805,4.4741,4.4787,4.4973,4.5001,4.5081,4.5223,4.5219,4.5039,4.4561,4.4314,4.4127,4.3948,4.3861,4.3762,5.1394,5.1394,5.1394,5.0848,4.995,4.9955,5.023,5.0661,5.0665,5.094,5.1351,5.0901,5.0435,5.0066,5.0477,5.0673,5.0734,5.1181,5.1395,5.1395,5.1391,5.1389,5.1389,5.1385,5.1384,5.1384,5.1397,5.1394,5.1394,5.1394,5.1394,5.1394,5.1394,5.1397,5.1383,5.1384,5.1386,5.1389,5.1393,5.1395,5.1395,5.14,5.1384,5.1385,5.1386,5.1386,5.1386,5.1402,5.1397,5.1375,5.0558,4.9882,4.9394,4.8544,4.7868,0.0,0.0,0.0,0.0,0.0,0.0,0.0,0.0,0.0,0.0,0.0,4.644,4.6746,4.6778,4.6752,4.673,4.6706,4.6725,4.6706,4.6706,4.6701,4.6721,4.6706,4.6697,4.6674,4.6627,4.6599,4.6614,4.6565,4.6565,4.6546,4.6186,4.5798,4.5457,4.5017,4.4906,4.5328,4.5405,4.54,4.5361,4.5356,4.5375,4.5351,4.535,4.5348,4.5348,4.5342,4.5283,4.5283,4.5283,4.5291,4.5265,4.5216,4.5136,4.5068,4.4956,4.4796,4.4666,4.4558,4.4418,5.1394,5.1394,5.1394,5.1394,5.1394,5.1394,5.1394,5.1394,5.1394,5.1394,5.1394,5.1394,5.14,5.1389,5.1388,5.1391,5.1396,5.1391,5.1388,5.1388,5.1399,5.1394,5.1394,5.1394,5.1394,5.1394,5.1394,5.1394,5.1394,5.1394,5.1394,5.1394,5.1394,5.1394,5.1394,5.1394,5.1394,5.1394,5.1384,5.1389,5.1389,5.1395,5.14,5.1384,5.1384,5.1384,5.1384,5.14,5.1395,5.137,5.0657,5.0221,5.0085,4.9394,4.8915,0.0,4.8734,0.0,0.0,0.0,0.0,0.0,0.0,0.0,0.0,4.7137,4.7334,4.8029,4.8101,4.8101,4.8101,4.8101,4.8101,4.8101,4.8101,4.8101,4.8101,4.8096,4.8058,4.8015,4.7996,4.7985,4.7935,4.8001,4.7972,4.7851,4.7744,4.7197,4.608,4.5778,4.5797,4.5707,4.571,4.5875,4.5762,4.5588,4.5517,4.5474,4.5364,4.5302,4.5302,4.5302,4.5283,4.5283,4.5291,4.5275,4.5203,4.5167,4.5091,4.5028,4.4949,4.4877,4.4808,4.4659,4.4503,5.1394,5.1394,5.1394,5.1394,5.1394,5.1394,5.1394,5.1394,5.1394,5.1394,5.1394,5.1394,5.1395,5.1397,5.1397,5.1398,5.1399,5.1398,5.1397,5.1397,5.1395,5.1394,5.1394,5.1394,5.1394,5.1394,5.1394,5.1394,5.1394,5.1394,5.1394,5.1394,5.1394,5.1394,5.1394,0.0,0.0,0.0,5.1396,5.1397,5.1398,5.1388,5.1392,5.1394,5.1398,0.0,5.14,5.1395,5.1391,5.1389,5.1244,0.0,0.0,0.0,0.0,0.0,0.0,0.0,0.0,0.0,0.0,0.0,4.8044,4.7915,4.805,4.7961,4.7937,4.8086,4.8101,4.8101,4.8101,4.8101,4.8101,4.8101,4.8101,4.8101,4.8101,4.8068,4.8001,4.801,4.795,4.7945,4.7987,4.7868,4.7865,4.7941,4.7835,4.7696,4.7406,4.7316,4.733,4.733,4.721,4.7294,4.7335,4.6705,4.6271,4.6214,4.5679,4.5359,4.534,4.5302,4.5302,4.5297,4.5265,4.5213,4.5197,4.5129,4.508,4.5003,4.4979,4.4956,4.4821,4.4738,4.4626,5.2448,5.2059,5.2039,5.1785,0.0,5.1394,5.1394,5.1394,5.1394,5.1394,5.1394,5.1394,5.1394,5.1394,5.1394,5.1394,5.1394,5.1394,5.1394,5.1394,5.1394,5.1394,5.1394,5.1394,5.1394,5.1394,5.1394,5.1394,5.1394,5.1394,5.1394,5.1394,5.1394,5.1394,5.1394,5.1394,5.1394,5.1394,5.1394,5.1394,5.1394,5.14,5.1385,5.139,5.1393,0.0,0.0,0.0,0.0,0.0,0.0,0.0,0.0,5.073,0.0,5.0097,5.009,5.004,4.9947,4.9864,4.9807,4.9739,4.961,4.9333,4.888,4.9177,4.9394,4.9399,4.9394,4.9375,4.938,4.9375,4.9375,4.9394,4.9375,4.937,4.9336,4.9312,4.9272,4.9215,4.9157,4.9133,4.908,4.9039,4.9041,4.9035,4.9035,4.8997,4.894,4.8309,4.7794,4.7794,4.7794,4.7794,4.7755,4.7483,4.7144,4.7049,4.6443,4.5965,4.5889,4.5569,4.5291,4.527,4.5213,4.5181,4.5114,4.5061,4.502,4.4961,4.4943,4.4925,4.4852,4.4789,4.4718,5.358,5.2937,5.2918,5.2507,5.1843,5.1862,5.1843,5.1843,5.1531,0.0,0.0,5.1394,5.1394,5.1394,5.1394,5.1394,5.1394,5.1394,5.1394,5.1394,5.1394,5.1394,5.1394,5.1394,5.1394,5.1394,5.1394,5.1394,5.1414,5.155,5.1629,5.1648,5.1765,5.1842,5.1843,5.1863,5.1863,5.1843,5.155,5.1394,5.1394,5.1394,5.1398,5.1387,5.1387,5.1388,5.1388,5.1387,5.1384,5.1394,5.1394,5.1394,5.1394,5.1394,5.1384,5.1397,5.1394,5.1325,5.1215,5.1117,5.1085,5.1076,5.0897,5.0459,4.9673,5.0284,5.0688,5.0688,5.0688,5.0688,5.0688,5.0688,5.0688,5.0688,5.0688,5.0668,5.0594,5.0588,5.045,5.0404,5.0319,5.0348,5.0231,5.0206,5.0296,5.0283,5.0162,5.0296,5.0124,4.915,4.8386,4.8405,4.8481,4.8329,4.8252,4.8118,4.8061,4.8004,4.7297,4.6762,4.6598,4.6045,4.5551,4.5491,4.5328,4.5139,4.5014,4.4985,4.498,4.4926,4.4895,4.4895,4.4889,4.484,4.477,5.3932,5.3815,5.3815,5.3755,5.3638,5.3638,5.3638,5.3521,5.2058,5.1394,5.1394,5.1394,5.1394,5.1394,5.1394,5.1394,5.1394,5.1394,5.1394,5.1394,5.1394,5.1394,5.1394,5.1394,5.1394,5.1394,5.1394,5.1394,5.1472,5.2157,5.2527,5.2625,5.3249,5.3619,5.3639,5.3639,5.3638,5.36,5.2156,5.1394,5.1394,5.1394,5.1394,5.1396,5.1417,5.1397,5.1396,5.1396,5.1395,5.1394,5.1394,5.1394,5.1394,5.1394,5.1384,5.1397,5.1394,5.1344,5.1218,5.1156,5.1056,5.0925,5.0793,5.0649,5.0539,5.063,5.0688,5.0688,5.0688,5.0688,5.0688,5.0688,5.0688,5.0688,5.0688,5.0663,5.0603,5.0556,5.0484,5.0393,5.0337,5.0314,5.0302,5.0296,5.0296,5.0296,5.0296,5.0296,5.0258,5.0105,4.9958,4.9958,4.9958,4.9958,4.971,4.9308,4.8965,4.8932,4.8195,4.758,4.7535,4.6862,4.6311,4.6197,4.5656,4.5191,4.5061,4.4943,4.4989,4.499,4.4971,4.4914,4.4895,4.484,4.4764,5.5121,5.4733,5.4719,5.4429,5.3979,5.3984,5.3987,5.3927,5.3161,5.2805,5.2819,5.2819,5.28,5.2761,5.2312,5.2118,5.2078,5.1609,5.1648,5.2098,5.2118,5.237,5.278,5.2799,5.2799,5.2819,5.2819,5.2819,5.2839,5.321,5.3405,5.3425,5.3815,5.399,5.399,5.399,5.399,5.399,5.321,5.2799,5.2799,5.2819,5.28,5.2799,5.237,5.2098,5.2118,5.1648,5.1394,5.1394,5.1394,5.1394,5.1394,5.1389,5.1397,5.1396,5.1367,5.1319,5.1256,5.1153,5.104,5.0905,5.0855,5.0785,5.0692,5.0683,5.0688,5.0688,5.0688,5.0688,5.0688,5.0688,5.0688,5.0688,5.0663,5.0618,5.0562,5.0465,5.0429,5.0348,5.03,5.0302,5.0296,5.0296,5.0296,5.0296,5.0296,5.0296,5.0296,5.0296,5.0296,5.0296,5.0296,5.0296,5.0283,5.0015,4.9767,4.9748,4.9026,4.852,4.837,4.7705,4.6985,4.6494,4.6282,4.6175,4.5765,4.564,4.5602,4.5564,4.516,4.4952,4.4883,4.484,4.4757,5.6199,5.5596,5.5586,5.52,5.4597,5.4583,5.4585,5.4605,5.4599,5.4593,5.4547,5.4189,5.399,5.3932,5.3288,5.2996,5.2897,5.2292,5.2351,5.2937,5.2996,5.3346,5.3951,5.399,5.399,5.399,5.399,5.399,5.401,5.4186,5.44,5.4556,5.4596,5.4575,5.4575,5.4575,5.4594,5.4575,5.4575,5.438,5.401,5.399,5.399,5.3951,5.3346,5.2996,5.2937,5.2351,5.1999,5.198,5.1804,5.1687,5.1668,5.1504,5.1394,5.1396,5.1364,5.1298,5.1282,5.1173,5.1047,5.0937,5.0901,5.0932,5.1013,5.1,5.089,5.0731,5.0688,5.0688,5.0688,5.0688,5.0683,5.0687,5.0628,5.0553,5.0489,5.0435,5.0379,5.0314,5.0296,5.0296,5.0296,5.0296,5.0296,5.0296,5.0296,5.0296,5.0296,5.0296,5.0296,5.0296,5.0296,5.0296,5.0296,5.0277,5.0239,5.0271,4.9728,4.9337,4.9097,4.8452,4.7591,4.6909,4.7024,4.6942,4.6392,4.6354,4.6436,4.6417,4.5843,4.5173,4.4908,4.4833,4.4757,5.6541,5.6484,5.6453,5.6439,5.6306,5.6308,5.6289,5.6289,5.6346,5.6364,5.6128,5.4705,5.405,5.399,5.3932,5.3873,5.3873,5.3795,5.3776,5.3854,5.3893,5.3932,5.4088,5.4049,5.399,5.4049,5.4088,5.4147,5.4205,5.485,5.5573,5.6274,5.6372,5.6293,5.6312,5.6312,5.6332,5.6351,5.6351,5.5591,5.4088,5.399,5.399,5.399,5.3932,5.3873,5.3873,5.3795,5.3737,5.3717,5.2976,5.2566,5.2508,5.1863,5.1422,5.1436,5.1432,5.1344,5.1242,5.1156,5.115,5.0993,5.1037,5.1287,5.1888,5.1914,5.1525,5.0986,5.0745,5.0822,5.0707,5.0741,5.0759,5.0728,5.0617,5.0556,5.0421,5.0388,5.0384,5.0308,5.0296,5.0296,5.0296,5.0296,5.0296,5.0296,5.0296,5.0296,5.0296,5.0296,5.0296,5.0296,5.0296,5.0296,5.0296,5.0296,5.0259,5.0218,5.0156,4.9948,4.9664,4.9176,4.8403,4.7599,4.7479,4.7359,4.686,4.674,4.7289,4.7213,4.6639,4.5849,4.5105,4.4953,4.4997,5.6614,5.6614,5.662,5.6621,5.662,5.6619,5.6618,5.6618,5.662,5.6621,5.6543,5.5837,5.5538,5.551,5.4998,5.4781,5.4742,5.4227,5.4303,5.4733,5.4772,5.5044,5.5512,5.5531,5.5551,5.5531,5.5531,5.5551,5.5609,5.5903,5.6255,5.6566,5.6605,5.6605,5.6605,5.6605,5.6605,5.6605,5.6605,5.6234,5.563,5.5551,5.5531,5.5473,5.5044,5.4772,5.4714,5.4283,5.399,5.399,5.3659,5.3463,5.3463,5.3146,5.2941,5.2931,5.2902,5.2857,5.2799,5.2724,5.265,5.2609,5.2535,5.264,5.2829,5.2771,5.2536,5.223,5.2163,5.2149,5.208,5.1652,5.1305,5.1189,5.0807,5.0476,5.0393,5.0359,5.0325,5.0302,5.0296,5.0296,5.0296,5.0296,5.0296,5.0296,5.0296,5.0296,5.0296,5.0296,5.0296,5.0296,5.0296,5.0296,5.0296,5.0248,5.0218,5.0188,5.012,5.0038,4.9948,4.9756,4.918,4.83,4.8502,4.8426,4.7915,4.7877,4.8161,4.7972,4.7517,4.6765,4.6392,4.6335,4.6322,5.6581,5.6582,5.6577,5.657,5.6564,5.6581,5.658,5.6562,5.657,5.6573,5.6575,5.6579,5.6582,5.6502,5.591,5.5651,5.557,5.4998,5.5053,5.562,5.5639,5.6009,5.6571,5.661,5.6608,5.6605,5.6566,5.6585,5.6605,5.6605,5.6605,5.6605,5.6605,5.6605,5.6605,5.6605,5.6605,5.6605,5.6605,5.6605,5.6585,5.6605,5.6605,5.6546,5.6001,5.5669,5.5631,5.5044,5.4712,5.4713,5.4517,5.4361,5.4361,5.4139,5.3978,5.3993,5.394,5.3902,5.3894,5.3849,5.3801,5.3727,5.365,5.3665,5.3722,5.3629,5.3637,5.3807,5.3812,5.3686,5.302,5.2497,5.213,5.1987,5.1425,5.1033,5.0799,5.0682,5.0588,5.0353,5.0296,5.0296,5.0296,5.0296,5.0296,5.0296,5.0296,5.0296,5.0296,5.0296,5.0296,5.0296,5.0296,5.0296,5.0296,5.0255,5.0219,5.0164,5.0082,4.9992,4.9966,4.9913,4.9627,4.8755,4.9469,4.9507,4.8654,4.8616,4.885,4.8623,4.8199,4.7649,4.722,4.7359,4.734,5.6561,5.6494,5.6507,5.6511,5.6489,5.6515,5.6508,5.6512,5.6506,5.6499,5.6511,5.6521,5.6529,5.6595,5.6484,5.6539,5.6496,5.6377,5.6357,5.6475,5.6494,5.655,5.6601,5.662,5.6615,5.6607,5.6606,5.6606,5.6605,5.6605,5.6605,5.6605,5.6605,5.6605,5.6605,5.6605,5.6605,5.6605,5.6605,5.6605,5.6605,5.6605,5.6605,5.6585,5.6546,5.6488,5.6488,5.6489,5.6429,5.6469,5.5669,5.5241,5.5182,5.4498,5.4122,5.4073,5.402,5.397,5.4003,5.4054,5.3992,5.3874,5.3886,5.3959,5.4572,5.4506,5.4685,5.5371,5.5213,5.4641,5.3428,5.3107,5.2931,5.2849,5.278,5.231,5.1645,5.155,5.1162,5.0646,5.0531,5.0525,5.0392,5.0296,5.034,5.0315,5.0296,5.0296,5.0296,5.0296,5.0296,5.0296,5.0296,5.0296,5.029,5.0231,5.0157,5.0095,5.0044,4.9985,4.9945,4.9817,4.94,4.9191,4.9583,4.9583,4.9109,4.9021,4.921,4.9134,4.89,4.8445,4.8123,4.7611,4.7668,5.6515,5.6482,5.6483,5.647,5.6441,5.6434,5.643,5.6432,5.6487,5.6498,5.6486,5.6482,5.6516,5.6529,5.654,5.6575,5.6601,5.662,5.662,5.662,5.6618,5.6616,5.6614,5.6611,5.6605,5.6617,5.6616,5.6612,5.6605,5.6605,5.6605,5.6605,5.6605,5.6605,5.6605,5.6605,5.6605,5.6605,5.6605,5.6605,5.6605,5.6605,5.6605,5.6605,5.6605,5.6605,5.6605,5.6605,5.6605,5.6605,5.6293,5.6138,5.6098,5.5824,5.5667,5.5664,5.5659,5.5612,5.5562,5.5563,5.5545,5.5466,5.5341,5.5259,5.5442,5.5374,5.5355,5.5493,5.5477,5.5052,5.4656,5.4099,5.3735,5.3618,5.3185,5.2797,5.2473,5.2365,5.2231,5.1983,5.1888,5.1716,5.1232,5.1137,5.0907,5.0411,5.0296,5.0353,5.0315,5.0296,5.0397,5.0315,5.0296,5.029,5.0249,5.0163,5.0095,5.005,4.9985,4.9952,4.9893,4.9893,4.9589,4.9533,4.9791,4.9791,4.94,4.9438,4.9627,4.9589,4.9355,4.9185,4.909,4.8673,4.8749,5.6462,5.6447,5.647,5.6455,5.6407,5.6405,5.6405,5.6407,5.6457,5.6468,5.6476,5.6471,5.6468,5.6464,5.6465,5.6488,5.654,5.6554,5.6579,5.658,5.6581,5.6582,5.6601,5.6619,5.6614,5.6609,5.6603,5.6616,5.6606,5.6605,5.6605,5.6605,5.6605,5.6605,5.6605,5.6605,5.6605,5.6605,5.6605,5.6605,5.6605,5.6605,5.6605,5.6605,5.6605,5.6605,5.6605,5.6605,5.6605,5.6605,5.6605,5.6605,5.6605,5.6605,5.6605,5.6605,5.6605,5.6561,5.6509,5.6491,5.6461,5.6415,5.6272,5.6156,5.6042,5.5856,5.5673,5.5545,5.5433,5.5384,5.5295,5.4893,5.4574,5.4473,5.3989,5.3511,5.3269,5.3231,5.3059,5.2772,5.2677,5.2461,5.2117,5.2015,5.1735,5.1162,5.1104,5.1104,5.1104,5.1104,5.1104,5.1123,5.1219,5.1049,5.0861,5.0717,5.0336,5.0195,4.9965,4.9906,4.9893,4.9893,4.9893,4.9893,4.9893,4.9893,4.9893,4.9893,4.9893,4.9893,4.9798,4.9608,4.9646,4.9779,4.9627,5.6388,5.6418,5.6393,5.6391,5.6389,5.6408,5.6389,5.6389,5.6414,5.639,5.6407,5.6393,5.6411,5.6407,5.6411,5.6414,5.6434,5.6464,5.6511,5.6501,5.6505,5.6551,5.6598,5.6601,5.6601,5.6618,5.6609,5.6617,5.6607,5.6607,5.6606,5.6605,5.6605,5.6605,5.6605,5.6605,5.6605,5.6605,5.6605,5.6605,5.6605,5.6605,5.6605,5.6605,5.6605,5.6605,5.6605,5.6605,5.6605,5.6605,5.6605,5.6605,5.6605,5.6605,5.6605,5.6605,5.6605,5.656,5.6509,5.6491,5.6457,5.6398,5.6294,5.617,5.6074,5.5909,5.5745,5.5626,5.5494,5.5396,5.5396,5.5333,5.5269,5.5384,5.511,5.4785,5.4295,5.4104,5.3798,5.3206,5.3072,5.2868,5.2811,5.2805,5.269,5.2543,5.2486,5.2442,5.2384,5.2365,5.2639,5.2639,5.2365,5.1966,5.1662,5.1351,5.083,5.0379,5.0091,4.9893,4.9893,4.9893,4.9893,4.9893,4.9893,4.9893,4.9893,4.9893,4.9893,4.9893,4.9893,4.9893,4.9893,4.9893,4.9893,5.6363,5.6328,5.6328,5.6327,5.6326,5.6326,5.6323,5.6329,5.6327,5.6345,5.6336,5.6375,5.6407,5.6393,5.6395,5.6395,5.6398,5.6411,5.6467,5.6488,5.6492,5.6504,5.6534,5.6528,5.6559,5.6601,5.6618,5.661,5.6619,5.6616,5.6613,5.6606,5.6605,5.6605,5.6605,5.6605,5.6605,5.6605,5.6605,5.6605,5.6605,5.6605,5.6605,5.6605,5.6605,5.6605,5.6605,5.6605,5.6605,5.6605,5.6605,5.6605,5.6605,5.6605,5.6605,5.6584,5.6558,5.6513,5.6506,5.6482,5.6465,5.6393,5.6311,5.621,5.6114,5.5926,5.5768,5.5668,5.551,5.5389,5.539,5.5384,5.5384,5.5396,5.5396,5.5301,5.4995,5.4938,5.4881,5.469,5.4575,5.4352,5.3855,5.3683,5.3492,5.3015,5.2925,5.2925,5.2868,5.3002,5.2792,5.2792,5.2741,5.2857,5.2456,5.2194,5.1844,5.1233,5.0728,5.0265,5.017,5.0075,5.0057,4.9893,4.9893,4.9893,4.9893,4.9893,4.9893,4.9893,4.9893,4.9893,4.9893,4.9893,4.9893,5.6342,5.6305,5.6309,5.6314,5.6314,5.6314,5.6314,5.6317,5.6317,5.6306,5.6309,5.6347,5.6355,5.6375,5.6355,5.6355,5.6355,5.6347,5.638,5.6431,5.6443,5.6464,5.6494,5.6487,5.6529,5.6561,5.6601,5.6618,5.661,5.6604,5.6618,5.6612,5.6607,5.6605,5.6605,5.6605,5.6605,5.6605,5.6605,5.6605,5.6605,5.6605,5.6605,5.6605,5.6605,5.6605,5.6605,5.6605,5.6605,5.6604,5.6582,5.656,5.6559,5.6574,5.6571,5.657,5.6524,5.6497,5.649,5.6487,5.6472,5.6403,5.6333,5.6262,5.6137,5.5969,5.5847,5.5733,5.5618,5.548,5.5414,5.539,5.539,5.5396,5.5396,5.5396,5.5396,5.5396,5.5377,5.5301,5.532,5.511,5.4753,5.4562,5.439,5.3855,5.376,5.3779,5.3766,5.3817,5.3722,5.3722,5.3932,5.3773,5.323,5.298,5.2845,5.2225,5.1535,5.1054,5.0732,5.0618,5.0542,5.0057,4.9893,4.9893,4.9893,4.9893,4.9893,4.9893,4.9893,4.9893,4.9893,4.9893,4.9893,5.6299,5.6299,5.6307,5.6314,5.6314,5.6314,5.6314,5.6314,5.6314,5.6317,5.6298,5.6324,5.6301,5.6317,5.6304,5.6304,5.6301,5.6306,5.6321,5.6333,5.6369,5.6433,5.6462,5.6482,5.6492,5.6512,5.656,5.6582,5.66,5.6592,5.6621,5.6619,5.661,5.6605,5.6605,5.6605,5.6605,5.6605,5.6605,5.6605,5.6605,5.6605,5.6605,5.6605,5.6605,5.6604,5.6583,5.6581,5.6582,5.6583,5.6533,5.6506,5.6503,5.6491,5.6506,5.6508,5.6483,5.6493,5.65,5.6492,5.6468,5.6407,5.6356,5.6261,5.6202,5.6071,5.5943,5.5827,5.5742,5.5602,5.5468,5.5402,5.539,5.539,5.5396,5.5396,5.5396,5.5396,5.5396,5.5396,5.5396,5.5377,5.5282,5.5288,5.5244,5.5205,5.511,5.5033,5.5052,5.4938,5.5244,5.5167,5.4881,5.4587,5.4011,5.3914,5.3771,5.3431,5.2722,5.2153,5.1395,5.1123,5.0915,5.0429,5.0044,5.0006,4.9912,4.9912,4.9912,4.9893,4.9893,4.9893,4.9893,4.9893,4.9893,5.6307,5.6304,5.6298,5.6314,5.6314,5.6314,5.6314,5.6314,5.6314,5.6314,5.6314,5.6314,5.6314,5.6314,5.6314,5.6314,5.6317,5.6304,5.6307,5.6314,5.6317,5.6361,5.6407,5.6412,5.6447,5.6503,5.6521,5.6514,5.6542,5.658,5.6612,5.662,5.6612,5.6605,5.6605,5.6605,5.6605,5.6605,5.6605,5.6605,5.6605,5.6605,5.6605,5.6605,5.6605,5.6561,5.6533,5.6521,5.6523,5.6511,5.6499,5.649,5.649,5.6483,5.648,5.6498,5.6489,5.65,5.6492,5.6482,5.6476,5.6405,5.6371,5.6336,5.6265,5.6163,5.6032,5.5929,5.5803,5.5671,5.5551,5.5456,5.5402,5.539,5.5396,5.5396,5.5396,5.5396,5.5396,5.5396,5.5396,5.5396,5.5396,5.5396,5.5396,5.5396,5.5396,5.5396,5.5396,5.5396,5.5396,5.5396,5.5212,5.5082,5.4927,5.4817,5.4702,5.4528,5.4022,5.3473,5.2506,5.1597,5.1312,5.0915,5.0568,5.0436,5.0113,4.9924,4.9905,5.0006,4.9893,4.9893,4.9893,4.9893,4.9893,5.6314,5.6314,5.6314,5.6314,5.6314,5.6314,5.6314,5.6314,5.6314,5.6314,5.6314,5.6314,5.6314,5.6314,5.6314,5.6314,5.6314,5.6314,5.6314,5.6298,5.6297,5.635,5.6388,5.6394,5.6408,5.646,5.6494,5.6498,5.6514,5.6562,5.6599,5.6611,5.6619,5.661,5.6605,5.6605,5.6605,5.6605,5.6605,5.6605,5.6605,5.6605,5.6605,5.6604,5.6561,5.6532,5.6497,5.6482,5.648,5.649,5.6482,5.6491,5.6489,5.6484,5.6482,5.648,5.649,5.6482,5.648,5.6492,5.6457,5.6417,5.639,5.6355,5.6303,5.6213,5.6114,5.6018,5.588,5.574,5.5615,5.5476,5.5396,5.5384,5.5396,5.5396,5.5396,5.5396,5.5396,5.5396,5.5396,5.5396,5.5396,5.5396,5.5396,5.5396,5.5396,5.5396,5.5396,5.5396,5.539,5.5371,5.5351,5.5216,5.5091,5.4986,5.4897,5.4806,5.4685,5.4268,5.3435,5.2298,5.1919,5.1597,5.1187,5.0834,5.0606,5.036,5.0246,5.0227,5.0038,4.9912,4.9912,4.9893,4.9893,5.6314,5.6314,5.6314,5.6314,5.6314,5.6314,5.6314,5.6314,5.6314,5.6314,5.6314,5.6314,5.6314,5.6314,5.6314,5.6314,5.6314,5.6314,5.6314,5.6314,5.6301,5.6312,5.6381,5.6383,5.6394,5.6418,5.6478,5.6499,5.6516,5.6558,5.6582,5.6599,5.6609,5.6618,5.661,5.6606,5.6605,5.6605,5.6605,5.6605,5.6605,5.6605,5.6584,5.656,5.6546,5.6514,5.6498,5.6484,5.65,5.6496,5.6482,5.6492,5.6488,5.6496,5.6489,5.6489,5.6492,5.6489,5.6487,5.6487,5.6479,5.6441,5.6415,5.6371,5.6311,5.6243,5.6159,5.6074,5.5989,5.5801,5.561,5.5452,5.5396,5.5396,5.5396,5.5396,5.5396,5.5396,5.5396,5.5396,5.5396,5.5396,5.5396,5.5396,5.5396,5.5396,5.5396,5.5396,5.5371,5.5339,5.5332,5.5351,5.5325,5.5273,5.5168,5.508,5.4976,5.4893,5.4871,5.4579,5.4086,5.3252,5.2771,5.2355,5.1964,5.1642,5.1395,5.1149,5.0921,5.0561,5.0436,5.017,4.9943,4.9912,4.9893,5.6314,5.6314,5.6314,5.6314,5.6314,5.6314,5.6314,5.6314,5.6314,5.6314,5.6314,5.6314,5.6314,5.6314,5.6314,5.6314,5.6314,5.6314,5.6314,5.6314,5.6314,5.6301,5.6326,5.6322,5.636,5.6378,5.6416,5.6457,5.6494,5.6521,5.6558,5.6582,5.6597,5.6607,5.6618,5.6609,5.6605,5.6605,5.6605,5.6605,5.6605,5.6604,5.656,5.6529,5.6506,5.6487,5.6498,5.6482,5.6496,5.6498,5.6498,5.6494,5.6494,5.6489,5.6485,5.6485,5.6485,5.6485,5.6485,5.6485,5.6483,5.6476,5.6419,5.6398,5.6381,5.6256,5.617,5.6098,5.5989,5.5771,5.5551,5.5447,5.5409,5.5396,5.5396,5.5396,5.5396,5.5396,5.5396,5.5396,5.5396,5.5396,5.5396,5.5396,5.5396,5.5396,5.5396,5.5396,5.5339,5.53,5.528,5.5274,5.5234,5.5194,5.5125,5.5042,5.4978,5.4931,5.4909,5.4882,5.4389,5.4067,5.3567,5.3131,5.2722,5.2456,5.226,5.2108,5.1926,5.1395,5.0827,5.0542,5.0303,5.0132,4.9893,5.6314,5.6314,5.6314,5.6314,5.6314,5.6314,5.6314,5.6314,5.6314,5.6314,5.6314,5.6314,5.6314,5.6314,5.6314,5.6314,5.6314,5.6314,5.6314,5.6314,5.6314,5.6314,5.6314,5.6314,5.6327,5.6355,5.639,5.641,5.6443,5.6481,5.6528,5.656,5.6581,5.6612,5.6621,5.6611,5.6605,5.6605,5.6605,5.6605,5.6605,5.658,5.6546,5.6508,5.6484,5.649,5.648,5.6494,5.6487,5.6485,5.6485,5.6485,5.6485,5.6485,5.6485,5.6485,5.6485,5.6485,5.6485,5.6485,5.6485,5.6485,5.6424,5.6398,5.6378,5.6282,5.617,5.607,5.5947,5.574,5.5486,5.5428,5.5384,5.5396,5.5396,5.5396,5.5396,5.5396,5.5396,5.5396,5.5396,5.5396,5.5396,5.5396,5.5396,5.5396,5.5396,5.539,5.5287,5.5242,5.5189,5.5188,5.5154,5.5099,5.5047,5.4978,5.4934,5.4916,5.4901,5.4901,5.4712,5.4503,5.4287,5.3927,5.3594,5.3423,5.3226,5.3075,5.2715,5.2051,5.1483,5.1054,5.0618,5.0284,5.0038,5.6314,5.6314,5.6314,5.6314,5.6314,5.6314,5.6314,5.6314,5.6314,5.6314,5.6314,5.6314,5.6314,5.6314,5.6314,5.6314,5.6314,5.6314,5.6314,5.6314,5.6314,5.6314,5.6314,5.6301,5.6314,5.6305,5.6376,5.6399,5.6412,5.6457,5.6493,5.6513,5.6562,5.6598,5.6607,5.6614,5.6607,5.6605,5.6605,5.6603,5.6581,5.6532,5.6514,5.6505,5.649,5.6482,5.6492,5.6487,5.6485,5.6485,5.6485,5.6485,5.6485,5.6485,5.6485,5.6485,5.6485,5.6485,5.6485,5.6485,5.6485,5.6485,5.6439,5.6393,5.635,5.6269,5.6168,5.6025,5.5871,5.564,5.5432,5.5403,5.5384,5.5396,5.5396,5.5396,5.5396,5.5396,5.5396,5.5396,5.5396,5.5396,5.5396,5.5396,5.5396,5.5396,5.5396,5.5358,5.5255,5.5182,5.5149,5.5087,5.5057,5.5028,5.4982,5.496,5.4897,5.4909,5.4901,5.4901,5.4901,5.4761,5.4628,5.4742,5.4522,5.4257,5.406,5.3908,5.3416,5.2696,5.2032,5.1521,5.0997,5.0448,5.0151,5.6314,5.6314,5.6314,5.6314,5.6314,5.6314,5.6314,5.6314,5.6314,5.6314,5.6314,5.6314,5.6314,5.6314,5.6314,5.6314,5.6314,5.6314,5.6314,5.6314,5.6314,5.6314,5.6314,5.6314,5.6301,5.6317,5.6378,5.639,5.6407,5.6454,5.6489,5.6516,5.6557,5.6601,5.6597,5.6607,5.6614,5.6607,5.6604,5.658,5.6533,5.6504,5.6488,5.6494,5.65,5.6492,5.6489,5.6485,5.6485,5.6485,5.6485,5.6485,5.6485,5.6485,5.6485,5.6485,5.6485,5.6485,5.6485,5.6485,5.6485,5.6476,5.6427,5.6367,5.6321,5.6219,5.6126,5.5922,5.5712,5.5516,5.5414,5.5396,5.5384,5.5396,5.5396,5.5396,5.5396,5.5396,5.5396,5.5396,5.5396,5.5396,5.5396,5.5396,5.5396,5.5396,5.5396,5.5319,5.5222,5.5142,5.5087,5.5016,5.4956,5.4946,5.4909,5.4916,5.4901,5.4901,5.4901,5.4901,5.4901,5.4901,5.4901,5.4901,5.4901,5.4712,5.4591,5.4553,5.4212,5.3537,5.2771,5.1976,5.1376,5.077,5.0113,5.6314,5.6314,5.6314,5.6314,5.6314,5.6314,5.6314,5.6314,5.6314,5.6314,5.6314,5.6314,5.6314,5.6314,5.6314,5.6314,5.6314,5.6314,5.6314,5.6314,5.6314,5.6314,5.6314,5.6314,5.6314,5.6333,5.6381,5.6399,5.6393,5.6416,5.6462,5.652,5.6529,5.6561,5.6581,5.661,5.662,5.6593,5.6564,5.6533,5.6485,5.6494,5.6487,5.6486,5.6492,5.6487,5.6485,5.6485,5.6485,5.6485,5.6485,5.6485,5.6485,5.6485,5.6485,5.6485,5.6485,5.6485,5.6485,5.6485,5.6485,5.6481,5.6439,5.6358,5.6309,5.6206,5.6073,5.5832,5.5638,5.5462,5.5415,5.5396,5.5396,5.5396,5.5396,5.5396,5.5396,5.5396,5.5396,5.5396,5.5396,5.5396,5.5396,5.5396,5.5396,5.5396,5.5396,5.5306,5.5202,5.5121,5.5066,5.4985,5.4931,5.4916,5.4901,5.4901,5.4901,5.4901,5.4901,5.4901,5.4901,5.4901,5.4901,5.4901,5.4901,5.4901,5.4863,5.4723,5.4541,5.4257,5.3233,5.2298,5.1691,5.1073,5.0379,5.6314,5.6314,5.6314,5.6314,5.6314,5.6314,5.6314,5.6314,5.6314,5.6314,5.6314,5.6314,5.6314,5.6314,5.6314,5.6314,5.6314,5.6314,5.6314,5.6314,5.6314,5.6314,5.6314,5.6314,5.6298,5.6317,5.635,5.6383,5.6388,5.6416,5.6443,5.6486,5.6501,5.6518,5.6582,5.6614,5.6607,5.6574,5.6541,5.6488,5.6493,5.6489,5.6482,5.6487,5.6485,5.6485,5.6485,5.6485,5.6485,5.6485,5.6485,5.6485,5.6485,5.6485,5.6485,5.6485,5.6485,5.6485,5.6485,5.6485,5.6485,5.6483,5.6439,5.6356,5.6265,5.6156,5.6025,5.5756,5.5579,5.547,5.5416,5.5396,5.5396,5.5396,5.5396,5.5396,5.5396,5.5396,5.5396,5.5396,5.5396,5.5396,5.5396,5.5396,5.5396,5.5396,5.5396,5.5313,5.5208,5.5128,5.5059,5.4956,5.4901,5.4901,5.4901,5.4901,5.4901,5.4901,5.4901,5.4901,5.4901,5.4901,5.4901,5.4901,5.4901,5.4901,5.4901,5.4901,5.475,5.4314,5.3378,5.2639,5.207,5.1319,5.0523,5.6314,5.6314,5.6314,5.6314,5.6314,5.6314,5.6314,5.6314,5.6314,5.6314,5.6314,5.6314,5.6314,5.6314,5.6314,5.6314,5.6314,5.6314,5.6314,5.6314,5.6314,5.6314,5.6314,5.6314,5.6314,5.6312,5.6311,5.6347,5.6402,5.6459,5.648,5.6494,5.649,5.6532,5.66,5.6618,5.6586,5.6531,5.6496,5.6493,5.6486,5.6484,5.6492,5.6487,5.6485,5.6485,5.6485,5.6485,5.6485,5.6485,5.6485,5.6485,5.6485,5.6485,5.6485,5.6485,5.6485,5.6485,5.6485,5.6485,5.6485,5.6479,5.6439,5.6325,5.6233,5.6074,5.59,5.5735,5.5579,5.5476,5.5422,5.5384,5.5396,5.5396,5.5396,5.5396,5.5396,5.5396,5.5396,5.5396,5.5396,5.5396,5.5396,5.5396,5.5396,5.5396,5.5364,5.5287,5.5215,5.5128,5.5038,5.4934,5.4901,5.4901,5.4901,5.4901,5.4901,5.4901,5.4901,5.4901,5.4901,5.4901,5.4901,5.4901,5.4901,5.4901,5.4901,5.4901,5.4901,5.4496,5.3757,5.3113,5.2487,5.1635,5.0713,5.6314,5.6314,5.6314,5.6314,5.6314,5.6314,5.6314,5.6314,5.6314,5.6314,5.6314,5.6314,5.6314,5.6314,5.6314,5.6314,5.6314,5.6314,5.6314,5.6317,5.6317,5.6317,5.6298,5.6314,5.6315,5.6311,5.6336,5.6382,5.6427,5.6426,5.6439,5.6486,5.65,5.6544,5.6597,5.6619,5.655,5.6514,5.6486,5.6489,5.6484,5.6492,5.6485,5.6485,5.6485,5.6485,5.6485,5.6485,5.6485,5.6485,5.6485,5.6485,5.6485,5.6485,5.6485,5.6485,5.6485,5.6485,5.6485,5.6485,5.6485,5.6474,5.6417,5.633,5.6195,5.6037,5.5861,5.5766,5.5596,5.5468,5.5409,5.5403,5.5384,5.5396,5.5396,5.5396,5.5396,5.5396,5.5396,5.5396,5.5396,5.5396,5.5396,5.5396,5.5396,5.5396,5.5364,5.5319,5.5202,5.5087,5.4995,5.4931,5.4901,5.4901,5.4901,5.4901,5.4901,5.4901,5.4901,5.4901,5.4901,5.4901,5.4901,5.4901,5.4901,5.4901,5.4901,5.4901,5.4901,5.4591,5.4231,5.3605,5.2942,5.1805,5.0915,5.6314,5.6314,5.6314,5.6314,5.6314,5.6314,5.6314,5.6314,5.6314,5.6314,5.6314,5.6314,5.6314,5.6314,5.6314,5.6301,5.6307,5.6307,5.6314,5.6314,5.632,5.6323,5.6332,5.6347,5.6322,5.6308,5.6366,5.641,5.6417,5.6431,5.6459,5.6483,5.649,5.6537,5.6595,5.6601,5.655,5.6504,5.6499,5.6484,5.6492,5.6487,5.6485,5.6485,5.6485,5.6485,5.6485,5.6485,5.6485,5.6485,5.6485,5.6485,5.6485,5.6485,5.6485,5.6485,5.6485,5.6485,5.6485,5.6485,5.6485,5.647,5.641,5.6309,5.6202,5.6029,5.5885,5.5797,5.5649,5.551,5.5414,5.5396,5.5384,5.5396,5.5396,5.5396,5.5396,5.5396,5.5396,5.5396,5.5396,5.5396,5.5396,5.5396,5.5396,5.5396,5.5364,5.5338,5.5214,5.5066,5.4992,5.4916,5.4901,5.4901,5.4901,5.4901,5.4901,5.4901,5.4901,5.4901,5.4901,5.4901,5.4901,5.4901,5.4901,5.4901,5.4901,5.4901,5.4901,5.4704,5.4458,5.4079,5.334,5.2184,5.1237,5.6314,5.6314,5.6314,5.6314,5.6314,5.6314,5.6314,5.6314,5.6314,5.6314,5.6314,5.6314,5.6314,5.6314,5.6301,5.6314,5.6299,5.6302,5.6333,5.637,5.6403,5.6372,5.6395,5.6381,5.6377,5.6376,5.6412,5.6446,5.6459,5.6461,5.649,5.6483,5.6484,5.6532,5.6575,5.6581,5.6542,5.6507,5.6496,5.6494,5.6487,5.6485,5.6485,5.6485,5.6485,5.6485,5.6485,5.6485,5.6485,5.6485,5.6485,5.6485,5.6485,5.6485,5.6485,5.6485,5.6485,5.6485,5.6485,5.6485,5.6485,5.6446,5.6382,5.63,5.6232,5.6086,5.595,5.5822,5.5673,5.5545,5.5438,5.5384,5.5396,5.5396,5.5396,5.5396,5.5396,5.5396,5.5396,5.5396,5.5396,5.5396,5.5396,5.5396,5.5396,5.5396,5.5326,5.53,5.5187,5.5045,5.4978,5.4923,5.4909,5.4901,5.4901,5.4901,5.4901,5.4901,5.4901,5.4901,5.4901,5.4901,5.4901,5.4901,5.4901,5.4901,5.4901,5.4901,5.4901,5.4901,5.4712,5.4306,5.37,5.2677,5.1824,5.6314,5.6314,5.6314,5.6314,5.6314,5.6314,5.6314,5.6314,5.6314,5.6314,5.6314,5.6314,5.6314,5.6298,5.6297,5.6309,5.6308,5.6367,5.64,5.6406,5.6408,5.6389,5.6394,5.6407,5.64,5.6412,5.6443,5.6474,5.6485,5.6498,5.6498,5.6482,5.6481,5.655,5.6575,5.656,5.6512,5.6494,5.649,5.6487,5.6485,5.6485,5.6485,5.6485,5.6485,5.6485,5.6485,5.6485,5.6485,5.6485,5.6485,5.6485,5.6485,5.6485,5.6485,5.6485,5.6485,5.6485,5.6485,5.6485,5.6481,5.6419,5.638,5.6318,5.6267,5.6137,5.6012,5.5871,5.5722,5.5613,5.5486,5.5421,5.539,5.5396,5.539,5.5371,5.5364,5.5358,5.5351,5.5338,5.5358,5.5396,5.5396,5.5396,5.5396,5.539,5.5319,5.5247,5.5127,5.5042,5.4975,5.4923,5.4901,5.4901,5.4901,5.4901,5.4901,5.4901,5.4901,5.4901,5.4901,5.4901,5.4901,5.4901,5.4901,5.4901,5.4901,5.4901,5.4901,5.4901,5.4769,5.4522,5.3833,5.3113,5.2449,5.6314,5.6314,5.6314,5.6314,5.6314,5.6314,5.6314,5.6314,5.6314,5.6314,5.6314,5.6314,5.6301,5.6314,5.6309,5.6319,5.6336,5.6375,5.6404,5.6434,5.6439,5.6434,5.6422,5.6429,5.6443,5.6448,5.6461,5.6496,5.6498,5.6494,5.6494,5.6491,5.6503,5.655,5.6576,5.6537,5.6499,5.6485,5.6496,5.6489,5.6489,5.6485,5.6485,5.6485,5.6485,5.6485,5.6485,5.6485,5.6485,5.6485,5.6485,5.6485,5.6485,5.6485,5.6485,5.6485,5.6485,5.6485,5.6485,5.6485,5.6457,5.6415,5.64,5.6367,5.6298,5.6216,5.6102,5.594,5.5817,5.5684,5.5551,5.545,5.5409,5.5396,5.5307,5.5294,5.528,5.5274,5.5267,5.5254,5.5293,5.5286,5.528,5.5254,5.5293,5.5286,5.5234,5.5161,5.5078,5.5,5.496,5.4916,5.4901,5.4901,5.4901,5.4901,5.4901,5.4901,5.4901,5.4901,5.4901,5.4901,5.4901,5.4901,5.4901,5.4901,5.4901,5.4901,5.4901,5.4901,5.4787,5.4655,5.4371,5.3726,5.3158,5.6314,5.6314,5.6314,5.6314,5.6314,5.6314,5.6314,5.6314,5.6314,5.6314,5.6314,5.6314,5.6314,5.6315,5.6311,5.6342,5.6373,5.6405,5.6437,5.647,5.6472,5.6498,5.6483,5.6485,5.6468,5.6489,5.6484,5.6494,5.6494,5.6493,5.6491,5.6503,5.6513,5.6531,5.6575,5.652,5.6489,5.649,5.6484,5.6484,5.6489,5.6485,5.6485,5.6485,5.6485,5.6485,5.6485,5.6485,5.6485,5.6485,5.6485,5.6485,5.6485,5.6485,5.6485,5.6485,5.6485,5.6485,5.6485,5.6485,5.6474,5.6437,5.6405,5.6367,5.6323,5.6272,5.6193,5.6001,5.5875,5.5748,5.561,5.5486,5.544,5.5345,5.5268,5.5216,5.5222,5.5202,5.5195,5.5188,5.5135,5.5107,5.5107,5.5121,5.5155,5.5155,5.5128,5.5073,5.5009,5.4963,5.4931,5.4916,5.4901,5.4901,5.4901,5.4901,5.4901,5.4901,5.4901,5.4901,5.4901,5.4901,5.4901,5.4901,5.4901,5.4901,5.4901,5.4901,5.4901,5.4901,5.4901,5.4787,5.4598,5.4333,5.3764,5.6314,5.6314,5.6314,5.6314,5.6314,5.6314,5.6314,5.6314,5.6314,5.6314,5.6301,5.6314,5.6309,5.6311,5.6347,5.6373,5.641,5.6453,5.6483,5.6485,5.6487,5.6496,5.6482,5.6486,5.649,5.6484,5.6491,5.6493,5.6494,5.6491,5.6499,5.6509,5.6545,5.6584,5.658,5.6538,5.6491,5.6482,5.6493,5.6486,5.6489,5.6485,5.6485,5.6485,5.6485,5.6485,5.6485,5.6485,5.6485,5.6485,5.6485,5.6485,5.6485,5.6485,5.6485,5.6485,5.6485,5.6485,5.6485,5.6485,5.6485,5.6448,5.6403,5.6377,5.6358,5.6269,5.617,5.6074,5.5953,5.5793,5.5635,5.5527,5.5445,5.5294,5.5209,5.5176,5.5155,5.5128,5.5114,5.5121,5.5082,5.5068,5.5061,5.5045,5.5066,5.5059,5.5057,5.505,5.4992,5.496,5.4909,5.4901,5.4901,5.4901,5.4901,5.4901,5.4901,5.4901,5.4901,5.4901,5.4901,5.4901,5.4901,5.4901,5.4901,5.4901,5.4901,5.4901,5.4901,5.4901,5.4901,5.4901,5.4769,5.4598,5.4325,5.6314,5.6314,5.6314,5.6314,5.6314,5.6314,5.6314,5.6314,5.6304,5.631,5.632,5.6327,5.6347,5.6367,5.639,5.6419,5.6443,5.6479,5.6494,5.6494,5.6496,5.649,5.648,5.6486,5.6489,5.6503,5.649,5.6491,5.6512,5.6507,5.6533,5.6541,5.6573,5.6606,5.6599,5.656,5.6521,5.6514,5.6482,5.6494,5.6496,5.6485,5.6485,5.6485,5.6485,5.6485,5.6485,5.6485,5.6485,5.6485,5.6485,5.6485,5.6485,5.6485,5.6485,5.6485,5.6485,5.6485,5.6485,5.6455,5.6453,5.6448,5.642,5.6402,5.6383,5.6287,5.6225,5.6114,5.6016,5.5842,5.5673,5.5573,5.5408,5.5255,5.5149,5.5121,5.508,5.5052,5.5016,5.5023,5.5031,5.5031,5.5031,5.5002,5.5,5.4978,5.4956,5.4982,5.4982,5.4938,5.4901,5.4901,5.4901,5.4901,5.4901,5.4901,5.4901,5.4901,5.4901,5.4901,5.4901,5.4901,5.4901,5.4901,5.4901,5.4901,5.4901,5.4901,5.4901,5.4901,5.4901,5.4901,5.4901,5.478,5.4609,5.6314,5.6314,5.6314,5.6314,5.6314,5.6304,5.632,5.6298,5.6312,5.6305,5.6308,5.6378,5.638,5.6383,5.6393,5.6426,5.6461,5.6487,5.6498,5.649,5.6494,5.6487,5.6498,5.6485,5.6509,5.6512,5.6518,5.6527,5.6528,5.6557,5.6582,5.6585,5.6594,5.6605,5.6597,5.6582,5.655,5.6505,5.6491,5.6484,5.648,5.6487,5.6487,5.6485,5.6485,5.6485,5.6485,5.6485,5.6485,5.6485,5.6485,5.6485,5.6485,5.6485,5.6485,5.6485,5.6485,5.6485,5.6483,5.6448,5.6417,5.6417,5.6403,5.639,5.6361,5.6318,5.6249,5.616,5.6046,5.5895,5.574,5.5551,5.5371,5.5229,5.5087,5.5031,5.5,5.4963,5.4938,5.4931,5.4938,5.4938,5.4934,5.4938,5.4941,5.4946,5.4938,5.4931,5.4931,5.4931,5.4901,5.4901,5.4901,5.4901,5.4901,5.4901,5.4901,5.4901,5.4901,5.4901,5.4901,5.4901,5.4901,5.4901,5.4901,5.4901,5.4901,5.4901,5.4901,5.4901,5.4901,5.4901,5.4901,5.4901,5.4761,5.6314,5.6314,5.6314,5.6307,5.6312,5.6355,5.633,5.6315,5.6342,5.6356,5.6358,5.6388,5.6405,5.6393,5.6448,5.6481,5.6489,5.6498,5.6486,5.6496,5.6491,5.6485,5.6496,5.6502,5.6525,5.6552,5.6577,5.6559,5.658,5.6605,5.6605,5.6606,5.6609,5.662,5.6613,5.662,5.6557,5.6516,5.6504,5.6493,5.6488,5.6494,5.6489,5.6485,5.6485,5.6485,5.6485,5.6485,5.6485,5.6485,5.6485,5.6485,5.6485,5.6485,5.6485,5.6485,5.6485,5.6485,5.6483,5.6443,5.639,5.6378,5.6358,5.6333,5.633,5.6323,5.6272,5.6191,5.6062,5.5918,5.5731,5.5556,5.5371,5.5203,5.508,5.5021,5.4971,5.4931,5.4901,5.4901,5.4901,5.4901,5.4901,5.4901,5.4923,5.4909,5.4901,5.4901,5.4901,5.4901,5.4901,5.4901,5.4901,5.4901,5.4901,5.4901,5.4901,5.4901,5.4901,5.4901,5.4901,5.4901,5.4901,5.4901,5.4901,5.4901,5.4901,5.4901,5.4901,5.4901,5.4901,5.4901,5.4901,5.4901,5.4901,5.6332,5.6335,5.6351,5.6344,5.6347,5.6394,5.6375,5.6344,5.638,5.6404,5.639,5.6415,5.6446,5.645,5.6468,5.6498,5.648,5.6498,5.6491,5.6483,5.6486,5.6521,5.6531,5.6554,5.6558,5.6603,5.6605,5.6604,5.6605,5.6605,5.6605,5.6605,5.6605,5.6618,5.6612,5.66,5.6581,5.6546,5.6515,5.6499,5.6496,5.6498,5.6489,5.6485,5.6485,5.6485,5.6485,5.6485,5.6485,5.6485,5.6485,5.6485,5.6485,5.6485,5.6485,5.6485,5.6485,5.6485,5.6481,5.6434,5.64,5.6382,5.6345,5.6315,5.63,5.6304,5.6251,5.6187,5.6058,5.5926,5.5757,5.5568,5.5377,5.5176,5.5087,5.4995,5.4956,5.4909,5.4901,5.4901,5.4901,5.4901,5.4901,5.4901,5.4901,5.4901,5.4901,5.4901,5.4901,5.4901,5.4901,5.4901,5.4901,5.4901,5.4901,5.4901,5.4901,5.4901,5.4901,5.4901,5.4901,5.4901,5.4901,5.4901,5.4901,5.4901,5.4901,5.4901,5.4901,5.4901,5.4901,5.4901,5.4901,5.4901,5.4901,5.6406,5.6408,5.6391,5.6391,5.6397,5.6403,5.6412,5.6412,5.6412,5.6393,5.6439,5.6476,5.6485,5.647,5.6484,5.6492,5.6482,5.6496,5.6491,5.6486,5.6527,5.6554,5.6581,5.6605,5.6603,5.6604,5.6605,5.6605,5.6605,5.6605,5.6605,5.6605,5.6605,5.6615,5.6609,5.6617,5.6601,5.6573,5.6522,5.648,5.65,5.648,5.6485,5.6485,5.6485,5.6485,5.6485,5.6485,5.6485,5.6485,5.6485,5.6485,5.6485,5.6485,5.6485,5.6485,5.6485,5.6485,5.6474,5.6425,5.6402,5.6375,5.6332,5.631,5.6298,5.6285,5.6218,5.6183,5.6077,5.5946,5.5772,5.5602,5.5401,5.5217,5.5107,5.5002,5.4938,5.4901,5.4901,5.4901,5.4901,5.4901,5.4901,5.4901,5.4901,5.4901,5.4901,5.4901,5.4901,5.4901,5.4901,5.4901,5.4901,5.4901,5.4901,5.4901,5.4901,5.4901,5.4901,5.4901,5.4901,5.4901,5.4901,5.4901,5.4901,5.4901,5.4901,5.4901,5.4901,5.4901,5.4901,5.4901,5.4901,5.4901,5.4901,5.6408,5.6391,5.6393,5.6403,5.6405,5.6448,5.6476,5.6479,5.6479,5.6479,5.6481,5.6485,5.6496,5.6488,5.6494,5.6484,5.6498,5.6512,5.6502,5.6511,5.6555,5.658,5.6585,5.6605,5.6605,5.6605,5.6605,5.6605,5.6605,5.6605,5.6605,5.6605,5.6605,5.6613,5.6605,5.6615,5.6601,5.6597,5.6531,5.6494,5.6493,5.6486,5.6485,5.6485,5.6485,5.6485,5.6485,5.6485,5.6485,5.6485,5.6485,5.6485,5.6485,5.6485,5.6485,5.6485,5.6485,5.6485,5.6472,5.6425,5.6394,5.6389,5.636,5.633,5.6288,5.6246,5.6188,5.6153,5.6073,5.5941,5.5798,5.5635,5.5449,5.5282,5.5109,5.5009,5.4916,5.4901,5.4901,5.4901,5.4901,5.4901,5.4901,5.4901,5.4901,5.4901,5.4901,5.4901,5.4901,5.4901,5.4901,5.4901,5.4901,5.4901,5.4901,5.4901,5.4901,5.4901,5.4901,5.4901,5.4901,5.4901,5.4901,5.4901,5.4901,5.4901,5.4901,5.4901,5.4901,5.4901,5.4901,5.4901,5.4901,5.4901,5.4901,5.6444,5.6427,5.6441,5.6446,5.645,5.6483,5.6489,5.6498,5.65,5.6484,5.649,5.6486,5.649,5.6489,5.6494,5.6501,5.6515,5.6549,5.6554,5.6559,5.658,5.6603,5.6605,5.6605,5.6605,5.6605,5.6605,5.6605,5.6605,5.6605,5.6605,5.6605,5.6606,5.6611,5.6622,5.6613,5.662,5.6599,5.6537,5.6509,5.6485,5.6492,5.6487,5.6485,5.6485,5.6485,5.6485,5.6485,5.6485,5.6485,5.6485,5.6485,5.6485,5.6485,5.6485,5.6485,5.6485,5.6485,5.6472,5.6446,5.6408,5.6389,5.6351,5.6317,5.6262,5.6218,5.6213,5.6176,5.6058,5.5931,5.5851,5.5708,5.5533,5.5351,5.5197,5.508,5.4971,5.4901,5.4901,5.4901,5.4901,5.4901,5.4901,5.4901,5.4901,5.4901,5.4901,5.4901,5.4901,5.4901,5.4901,5.4901,5.4901,5.4901,5.4901,5.4901,5.4901,5.4901,5.4901,5.4901,5.4901,5.4901,5.4901,5.4901,5.4901,5.4901,5.4901,5.4901,5.4901,5.4901,5.4901,5.4901,5.4901,5.4901,5.4901,5.6485,5.6485,5.6489,5.6489,5.6492,5.6494,5.6484,5.6496,5.6498,5.6489,5.6482,5.6489,5.6493,5.6488,5.65,5.6506,5.6532,5.6559,5.6583,5.6584,5.6604,5.6605,5.6605,5.6605,5.6605,5.6605,5.6605,5.6605,5.6605,5.6605,5.6605,5.6605,5.6607,5.661,5.6619,5.661,5.6619,5.66,5.6545,5.6496,5.6485,5.649,5.6494,5.6485,5.6485,5.6485,5.6485,5.6485,5.6485,5.6485,5.6485,5.6485,5.6485,5.6485,5.6485,5.6485,5.6485,5.6483,5.6472,5.6437,5.6414,5.6389,5.6323,5.6278,5.6225,5.6213,5.6206,5.6141,5.6042,5.5973,5.5895,5.5791,5.5607,5.5426,5.5281,5.5121,5.5014,5.4909,5.4901,5.4901,5.4901,5.4901,5.4901,5.4901,5.4901,5.4901,5.4901,5.4901,5.4901,5.4901,5.4901,5.4901,5.4901,5.4901,5.4901,5.4901,5.4901,5.4901,5.4901,5.4901,5.4901,5.4901,5.4901,5.4901,5.4901,5.4901,5.4901,5.4901,5.4901,5.4901,5.4901,5.4901,5.4901,5.4901,5.4901,5.6485,5.6487,5.6482,5.6488,5.649,5.6486,5.6494,5.6496,5.6498,5.6488,5.6499,5.65,5.6482,5.6484,5.6485,5.6511,5.658,5.6585,5.6605,5.6605,5.6605,5.6605,5.6605,5.6605,5.6605,5.6605,5.6605,5.6605,5.6605,5.6605,5.6605,5.6605,5.6605,5.6607,5.6611,5.6606,5.6618,5.6581,5.6548,5.6497,5.6485,5.6494,5.6492,5.6485,5.6485,5.6485,5.6485,5.6485,5.6485,5.6485,5.6485,5.6485,5.6485,5.6485,5.6485,5.6485,5.6485,5.6457,5.6439,5.641,5.6389,5.6336,5.6291,5.6256,5.6222,5.6221,5.6188,5.6102,5.6029,5.601,5.5928,5.5856,5.5714,5.5468,5.5281,5.5147,5.5019,5.4946,5.4909,5.4901,5.4901,5.4901,5.4901,5.4901,5.4901,5.4901,5.4901,5.4901,5.4901,5.4901,5.4901,5.4901,5.4901,5.4901,5.4901,5.4901,5.4901,5.4901,5.4901,5.4901,5.4901,5.4901,5.4901,5.4901,5.4901,5.4901,5.4901,5.4901,5.4901,5.4901,5.4901,5.4901,5.4901,5.4901,5.4901]}]]